[[{"header":{"parameterUnit":"m.s-1","parameterCategory":1,"la1":30.6,"la2":29.2853,"lo1":-89.7004,"lo2":-87.6739,"dy":0.0162,"dx":0.0183,"nx":112,"ny":82,"refTime":"2023-04-09T12:00:00:Z","depth":0,"parameterNumber":2,"parameterNumberName":"U-component_of_WINDS"},"data":[0.0,0.0,0.0,0.0,0.0,0.0,0.0,0.0,0.0,0.0,0.0,0.0,0.0,0.0,0.0,0.0,0.0,0.0,0.0,0.0,0.0,0.0,0.0,0.0,0.0,0.0,0.0,0.0,0.0,0.0,0.0,0.0,0.0,0.0,0.0,0.0,0.0,0.0,0.0,0.0,0.0,0.0,0.0,0.0,0.0,0.0,0.0,0.0,0.0,0.0,0.0,0.0,0.0,0.0,0.0,0.0,0.0,0.0,0.0,0.0,0.0,0.0,0.0,0.0,0.0,0.0,0.0,0.0,0.0,0.0,0.0,0.0,0.0,0.0,0.0,0.0,0.0,0.0,0.0,0.0,0.0,0.0,0.0,0.0,0.0,0.0,0.0,0.0,0.0,0.0,-3.7769,-3.7956,-3.8331,-3.8697,-3.9309,-3.9814,-4.0062,-4.0062,0.0,0.0,0.0,0.0,0.0,0.0,0.0,0.0,0.0,0.0,0.0,0.0,0.0,0.0,0.0,0.0,0.0,0.0,0.0,0.0,0.0,0.0,0.0,0.0,0.0,0.0,0.0,0.0,0.0,0.0,0.0,0.0,0.0,0.0,0.0,0.0,0.0,0.0,0.0,0.0,0.0,0.0,0.0,0.0,0.0,0.0,0.0,0.0,0.0,0.0,0.0,0.0,0.0,0.0,0.0,0.0,0.0,0.0,0.0,0.0,0.0,0.0,0.0,0.0,0.0,0.0,0.0,0.0,0.0,0.0,0.0,0.0,0.0,0.0,0.0,0.0,0.0,0.0,0.0,0.0,0.0,0.0,0.0,0.0,0.0,0.0,0.0,0.0,0.0,0.0,0.0,0.0,0.0,0.0,0.0,0.0,0.0,0.0,0.0,0.0,0.0,0.0,0.0,0.0,-3.9264,-4.0159,-4.0296,-4.0464,-4.0586,-4.0655,-4.0701,-4.0701,0.0,0.0,0.0,0.0,0.0,0.0,0.0,0.0,0.0,0.0,0.0,0.0,0.0,0.0,0.0,0.0,0.0,0.0,0.0,0.0,0.0,0.0,0.0,0.0,0.0,0.0,0.0,0.0,0.0,0.0,0.0,0.0,0.0,0.0,0.0,0.0,0.0,0.0,0.0,0.0,0.0,0.0,0.0,0.0,0.0,0.0,0.0,0.0,0.0,0.0,0.0,0.0,0.0,0.0,0.0,0.0,0.0,0.0,0.0,0.0,0.0,0.0,0.0,0.0,0.0,0.0,0.0,0.0,0.0,0.0,0.0,0.0,0.0,0.0,0.0,0.0,0.0,0.0,0.0,0.0,0.0,0.0,0.0,0.0,0.0,0.0,0.0,0.0,0.0,0.0,0.0,0.0,0.0,0.0,0.0,0.0,0.0,0.0,0.0,0.0,0.0,0.0,0.0,-3.9846,-4.0182,-4.08,-4.1076,-4.1237,-4.1237,-4.1489,-4.165,-4.165,-4.092,0.0,0.0,0.0,0.0,0.0,0.0,0.0,0.0,0.0,0.0,0.0,0.0,0.0,0.0,0.0,0.0,0.0,0.0,0.0,0.0,0.0,0.0,0.0,0.0,0.0,0.0,0.0,0.0,0.0,0.0,0.0,0.0,0.0,0.0,0.0,0.0,0.0,0.0,0.0,0.0,0.0,0.0,0.0,0.0,0.0,0.0,0.0,0.0,0.0,0.0,0.0,0.0,0.0,0.0,0.0,0.0,0.0,0.0,0.0,0.0,0.0,0.0,0.0,0.0,0.0,0.0,0.0,0.0,0.0,0.0,0.0,0.0,0.0,0.0,0.0,0.0,0.0,0.0,0.0,0.0,0.0,0.0,0.0,0.0,0.0,0.0,0.0,0.0,0.0,0.0,0.0,0.0,0.0,0.0,0.0,0.0,0.0,0.0,0.0,0.0,0.0,0.0,-4.1099,-4.1191,-4.1191,-4.1512,-4.1765,-4.1765,-4.2109,-4.2339,-4.2339,-4.1971,0.0,0.0,0.0,0.0,0.0,0.0,0.0,0.0,0.0,0.0,0.0,0.0,0.0,0.0,0.0,0.0,0.0,0.0,0.0,0.0,0.0,0.0,0.0,0.0,0.0,0.0,0.0,0.0,0.0,0.0,0.0,0.0,0.0,0.0,0.0,0.0,0.0,0.0,0.0,0.0,0.0,0.0,0.0,0.0,0.0,0.0,0.0,0.0,0.0,0.0,0.0,0.0,0.0,0.0,0.0,0.0,0.0,0.0,0.0,0.0,0.0,0.0,0.0,0.0,0.0,0.0,0.0,0.0,0.0,0.0,0.0,0.0,0.0,0.0,0.0,0.0,0.0,0.0,0.0,0.0,0.0,0.0,0.0,0.0,0.0,0.0,0.0,0.0,0.0,0.0,0.0,0.0,0.0,0.0,0.0,0.0,0.0,0.0,0.0,0.0,0.0,0.0,-4.1926,-4.2224,-4.2224,-4.227,-4.2293,-4.2293,-4.2316,-4.2339,-4.2339,-4.2293,0.0,0.0,0.0,0.0,0.0,0.0,0.0,0.0,0.0,0.0,0.0,0.0,0.0,0.0,0.0,0.0,0.0,0.0,0.0,0.0,0.0,0.0,0.0,0.0,0.0,0.0,0.0,0.0,0.0,0.0,0.0,0.0,0.0,0.0,0.0,0.0,0.0,0.0,0.0,0.0,0.0,0.0,0.0,0.0,0.0,0.0,0.0,0.0,0.0,0.0,0.0,0.0,0.0,0.0,0.0,0.0,0.0,0.0,0.0,0.0,0.0,0.0,0.0,0.0,0.0,0.0,0.0,0.0,0.0,0.0,0.0,0.0,0.0,0.0,0.0,0.0,0.0,0.0,0.0,0.0,0.0,0.0,0.0,0.0,0.0,0.0,0.0,0.0,0.0,0.0,0.0,0.0,0.0,0.0,0.0,0.0,0.0,0.0,0.0,0.0,0.0,0.0,-4.2224,-4.2339,-4.2339,-4.2339,-4.2339,-4.2339,-4.2339,-4.2339,-4.2339,0.0,0.0,0.0,0.0,0.0,0.0,0.0,0.0,0.0,0.0,0.0,0.0,0.0,0.0,0.0,0.0,0.0,0.0,0.0,0.0,0.0,0.0,0.0,0.0,0.0,0.0,0.0,0.0,0.0,0.0,0.0,0.0,0.0,0.0,0.0,0.0,0.0,0.0,0.0,0.0,0.0,0.0,0.0,0.0,0.0,0.0,0.0,0.0,0.0,0.0,0.0,0.0,0.0,0.0,0.0,0.0,0.0,0.0,0.0,0.0,0.0,0.0,0.0,0.0,0.0,0.0,0.0,0.0,0.0,0.0,0.0,0.0,0.0,0.0,0.0,0.0,0.0,0.0,0.0,0.0,0.0,0.0,0.0,0.0,0.0,0.0,0.0,0.0,0.0,0.0,0.0,0.0,0.0,0.0,0.0,0.0,0.0,0.0,0.0,0.0,0.0,0.0,-4.2293,-4.2339,-4.2339,-4.2339,-4.2339,-4.2339,-4.2339,-4.2339,-4.2339,-4.2339,0.0,0.0,0.0,0.0,0.0,0.0,0.0,0.0,0.0,0.0,0.0,0.0,0.0,0.0,0.0,0.0,0.0,0.0,0.0,0.0,0.0,0.0,0.0,0.0,0.0,0.0,0.0,0.0,0.0,0.0,0.0,0.0,0.0,0.0,0.0,0.0,0.0,0.0,0.0,0.0,0.0,0.0,0.0,0.0,0.0,0.0,0.0,0.0,0.0,0.0,0.0,0.0,0.0,0.0,0.0,0.0,0.0,0.0,0.0,0.0,0.0,0.0,0.0,0.0,0.0,0.0,0.0,0.0,0.0,0.0,0.0,0.0,0.0,0.0,0.0,0.0,0.0,0.0,0.0,0.0,0.0,0.0,0.0,0.0,0.0,0.0,0.0,0.0,0.0,0.0,0.0,0.0,0.0,0.0,0.0,0.0,0.0,0.0,0.0,0.0,0.0,0.0,-4.2339,-4.2339,-4.2339,-4.2339,-4.2339,-4.2339,-4.2339,-4.2339,-4.2339,0.0,0.0,0.0,0.0,0.0,0.0,0.0,0.0,0.0,0.0,0.0,0.0,0.0,0.0,0.0,0.0,0.0,0.0,0.0,0.0,0.0,0.0,0.0,0.0,0.0,0.0,0.0,0.0,0.0,0.0,0.0,0.0,0.0,0.0,0.0,0.0,0.0,0.0,0.0,0.0,0.0,0.0,0.0,0.0,0.0,0.0,0.0,0.0,0.0,0.0,0.0,0.0,0.0,0.0,0.0,0.0,0.0,0.0,0.0,0.0,0.0,0.0,0.0,0.0,0.0,0.0,0.0,0.0,0.0,0.0,0.0,0.0,0.0,0.0,0.0,0.0,0.0,0.0,0.0,0.0,0.0,0.0,0.0,0.0,0.0,0.0,0.0,0.0,0.0,0.0,0.0,0.0,0.0,0.0,0.0,0.0,0.0,0.0,0.0,0.0,0.0,0.0,0.0,-4.2339,-4.2339,-4.2339,-4.2339,-4.2339,-4.2339,-4.2339,-4.2339,-4.2339,-4.2339,0.0,0.0,0.0,0.0,0.0,0.0,0.0,0.0,0.0,0.0,0.0,0.0,0.0,0.0,0.0,0.0,0.0,0.0,0.0,0.0,0.0,0.0,0.0,0.0,0.0,0.0,0.0,0.0,0.0,0.0,0.0,0.0,0.0,0.0,0.0,0.0,0.0,0.0,0.0,0.0,0.0,0.0,0.0,0.0,0.0,0.0,0.0,0.0,0.0,0.0,0.0,0.0,0.0,0.0,0.0,0.0,0.0,0.0,0.0,0.0,0.0,0.0,0.0,0.0,0.0,0.0,0.0,0.0,0.0,0.0,0.0,0.0,0.0,0.0,0.0,0.0,0.0,0.0,0.0,0.0,0.0,0.0,0.0,0.0,0.0,0.0,0.0,0.0,0.0,0.0,0.0,0.0,0.0,0.0,0.0,0.0,0.0,0.0,0.0,0.0,0.0,0.0,-4.2212,-4.2339,-4.2408,-4.2614,-4.2637,-4.2706,-4.2913,-4.2936,-4.2936,-4.2936,0.0,0.0,0.0,0.0,0.0,0.0,0.0,0.0,0.0,0.0,0.0,0.0,0.0,0.0,0.0,0.0,0.0,0.0,0.0,0.0,0.0,0.0,0.0,0.0,0.0,0.0,0.0,0.0,0.0,0.0,0.0,0.0,0.0,0.0,0.0,0.0,0.0,0.0,0.0,0.0,0.0,0.0,0.0,0.0,0.0,0.0,0.0,0.0,0.0,0.0,0.0,0.0,0.0,0.0,0.0,0.0,0.0,0.0,0.0,0.0,0.0,0.0,0.0,0.0,0.0,0.0,0.0,0.0,0.0,0.0,0.0,0.0,0.0,0.0,0.0,0.0,0.0,0.0,0.0,0.0,0.0,0.0,0.0,0.0,0.0,0.0,0.0,0.0,0.0,0.0,0.0,0.0,0.0,0.0,0.0,0.0,0.0,0.0,0.0,0.0,0.0,0.0,-4.213,-4.2454,-4.266,-4.3096,-4.3142,-4.3326,-4.3762,-4.3808,-4.3808,-4.3808,0.0,0.0,0.0,0.0,0.0,0.0,0.0,0.0,0.0,0.0,0.0,0.0,0.0,0.0,0.0,0.0,0.0,0.0,0.0,0.0,0.0,0.0,0.0,0.0,0.0,0.0,0.0,0.0,0.0,0.0,0.0,0.0,0.0,0.0,0.0,0.0,0.0,0.0,0.0,0.0,0.0,0.0,0.0,0.0,0.0,0.0,0.0,0.0,0.0,0.0,0.0,0.0,0.0,0.0,0.0,0.0,0.0,0.0,0.0,0.0,-2.6684,-2.6529,0.0,0.0,0.0,0.0,0.0,0.0,0.0,0.0,0.0,0.0,0.0,0.0,0.0,0.0,0.0,0.0,0.0,0.0,0.0,0.0,0.0,0.0,0.0,0.0,0.0,0.0,0.0,0.0,0.0,0.0,0.0,0.0,0.0,0.0,0.0,0.0,0.0,0.0,0.0,0.0,-4.2784,-4.3257,-4.3533,-4.3648,-4.3648,-4.3693,-4.3808,-4.3808,-4.3808,-4.3808,-4.3808,0.0,0.0,0.0,0.0,0.0,0.0,0.0,0.0,0.0,0.0,0.0,0.0,0.0,0.0,0.0,0.0,0.0,0.0,0.0,0.0,0.0,0.0,0.0,0.0,0.0,0.0,0.0,0.0,0.0,0.0,0.0,0.0,0.0,0.0,0.0,0.0,0.0,0.0,0.0,0.0,0.0,0.0,0.0,0.0,0.0,0.0,0.0,0.0,0.0,0.0,0.0,0.0,0.0,0.0,0.0,0.0,0.0,0.0,0.0,-2.7156,-2.6968,0.0,0.0,0.0,0.0,0.0,0.0,0.0,0.0,0.0,0.0,0.0,0.0,0.0,0.0,0.0,0.0,0.0,0.0,0.0,0.0,0.0,0.0,0.0,0.0,0.0,0.0,0.0,0.0,0.0,0.0,0.0,0.0,0.0,0.0,0.0,0.0,0.0,0.0,0.0,0.0,-4.3157,-4.3648,-4.39,-4.4176,-4.4199,-4.429,-4.4543,-4.4543,-4.4543,-4.4543,-4.4543,0.0,0.0,0.0,0.0,0.0,0.0,0.0,0.0,0.0,0.0,0.0,0.0,0.0,0.0,0.0,0.0,0.0,0.0,0.0,0.0,0.0,0.0,0.0,0.0,0.0,0.0,0.0,0.0,0.0,0.0,0.0,0.0,0.0,0.0,0.0,0.0,0.0,0.0,0.0,0.0,0.0,0.0,0.0,0.0,0.0,0.0,0.0,0.0,0.0,0.0,0.0,0.0,0.0,-2.5221,-2.5151,-2.5358,-2.5366,-2.5718,-2.6226,-2.7391,-2.7222,-2.6084,-2.6149,0.0,0.0,0.0,0.0,0.0,0.0,0.0,0.0,0.0,0.0,0.0,0.0,0.0,0.0,0.0,0.0,0.0,0.0,0.0,0.0,0.0,0.0,-3.0719,-3.5158,-3.5111,-3.4018,-3.4018,0.0,0.0,0.0,0.0,0.0,0.0,0.0,0.0,0.0,0.0,0.0,-4.3238,-4.3883,-4.4245,-4.4681,-4.4727,-4.491,-4.5324,-4.537,-4.537,-4.537,-4.537,-4.537,0.0,0.0,0.0,0.0,0.0,0.0,0.0,0.0,0.0,0.0,0.0,0.0,0.0,0.0,0.0,0.0,0.0,0.0,0.0,0.0,0.0,0.0,0.0,0.0,0.0,0.0,0.0,0.0,0.0,0.0,0.0,0.0,-2.5293,-2.3889,0.0,0.0,0.0,0.0,0.0,0.0,0.0,0.0,0.0,0.0,0.0,0.0,0.0,-2.5187,-2.5576,-2.5856,-2.6052,-2.6008,-2.6283,-2.6299,-2.6478,-2.6632,-2.6893,-2.6985,-2.7123,0.0,-2.6072,-2.6131,0.0,0.0,0.0,0.0,0.0,0.0,0.0,0.0,0.0,0.0,0.0,0.0,0.0,0.0,0.0,0.0,0.0,0.0,0.0,0.0,0.0,0.0,-3.181,-3.6093,-3.5963,-3.488,-3.488,-3.4587,-3.4422,-3.4807,-3.488,-3.488,0.0,0.0,0.0,0.0,0.0,0.0,-4.2245,-4.403,-4.5186,-4.5255,-4.5255,-4.5278,-4.5347,-4.537,-4.537,-4.537,-4.537,-4.537,-4.537,-4.537,0.0,0.0,0.0,0.0,0.0,0.0,0.0,0.0,0.0,0.0,0.0,0.0,0.0,0.0,0.0,0.0,0.0,0.0,0.0,0.0,0.0,0.0,0.0,0.0,0.0,0.0,0.0,0.0,0.0,-2.4842,-2.429,-2.3399,-2.2997,-2.2586,0.0,0.0,0.0,0.0,0.0,0.0,0.0,0.0,0.0,-2.5313,-2.5313,-2.5574,-2.6229,-2.6115,-2.6223,-2.6435,-2.6294,-2.629,-2.6298,-2.6438,-2.6424,-2.6424,-2.6424,-2.6235,-2.6102,-2.646,-2.6111,-2.5173,0.0,0.0,0.0,0.0,-2.4715,-2.4876,-2.5352,-2.5937,-2.6527,-2.6586,0.0,0.0,0.0,0.0,0.0,0.0,0.0,-2.7094,-3.0543,-3.1246,-3.1888,-3.5166,-3.5439,-3.5082,-3.532,-3.521,-3.5082,-3.5045,-3.5027,-3.51,-3.532,-3.5357,0.0,0.0,0.0,-3.978,-4.1193,-4.2226,-4.2796,-4.2796,-4.2796,-4.3214,-4.409,-4.409,-4.4503,-4.537,-4.537,-4.537,-4.537,-4.537,-4.464,0.0,0.0,0.0,0.0,0.0,0.0,0.0,0.0,0.0,0.0,0.0,0.0,0.0,0.0,0.0,0.0,0.0,0.0,0.0,0.0,0.0,0.0,0.0,0.0,0.0,0.0,0.0,0.0,-2.4476,-2.4237,-2.3504,-2.3184,-2.2886,0.0,0.0,0.0,0.0,0.0,0.0,-2.471,-2.4669,-2.4833,-2.5085,-2.516,-2.5307,-2.5781,-2.5608,-2.5673,-2.629,-2.5711,-2.5612,-2.6266,-2.5982,-2.6081,-2.6149,-2.6222,-2.6222,-2.612,-2.6617,-2.633,-2.571,-2.6072,-2.5844,-2.5418,-2.533,-2.5359,-2.5353,-2.6099,-2.6602,-2.7034,-2.7152,-2.797,-2.864,-2.6967,0.0,0.0,0.0,0.0,-2.7405,-3.0066,-3.1055,-3.2002,-3.4376,-3.5048,-3.5412,-3.5705,-3.576,-3.5687,-3.5394,-3.5339,-3.543,-3.5724,-3.576,0.0,-3.7747,-3.8224,-3.8932,-4.0085,-4.0514,-4.08,-4.08,-4.08,-4.1226,-4.2376,-4.2818,-4.3514,-4.48,-4.5325,-4.5416,-4.4982,-4.5531,-4.4886,-4.2904,0.0,0.0,0.0,0.0,0.0,0.0,0.0,0.0,0.0,0.0,0.0,0.0,0.0,0.0,0.0,0.0,0.0,0.0,0.0,0.0,0.0,0.0,0.0,0.0,0.0,0.0,0.0,0.0,0.0,-2.4795,-2.4527,0.0,0.0,0.0,0.0,-2.3559,-2.4145,-2.4245,-2.3462,-2.3472,-2.3502,-2.3515,-2.3791,-2.3678,-2.3426,-2.3554,-2.4276,-2.531,-2.4142,-2.4725,-2.6939,-2.6196,-2.6025,-2.65,-2.6808,-2.6764,-2.6457,-2.612,-2.5988,-2.6003,-2.631,-2.6427,-2.6398,-2.6076,-2.5881,-2.5855,-2.5884,-2.6085,-2.6589,-2.7058,-2.7372,-2.76,-2.7437,-2.7217,0.0,0.0,-2.7393,-2.8177,-2.9539,-3.1211,-3.2792,-3.4186,-3.5253,-3.6164,-3.6182,-3.6182,-3.6164,-3.6146,-3.6146,-3.6164,-3.6182,0.0,-3.6182,-3.6349,-3.7492,-3.8496,-3.8661,-3.9941,-4.08,-4.08,-4.08,-4.08,-4.0942,-4.2236,-4.3097,-4.3236,-4.4954,-4.5364,-4.3916,-4.5794,-4.5332,-4.2271,-4.2271,0.0,0.0,0.0,0.0,0.0,0.0,0.0,0.0,0.0,0.0,0.0,0.0,0.0,0.0,0.0,0.0,0.0,0.0,0.0,0.0,0.0,0.0,0.0,0.0,0.0,0.0,0.0,0.0,-2.4469,-2.4299,0.0,-2.371,-2.3781,-2.3825,-2.3548,-2.3278,-2.3107,-2.3107,-2.2979,-2.314,-2.3278,-2.3574,-2.3816,-2.3848,-2.3768,-2.4112,-2.4888,-2.4262,-2.4475,-2.5492,-2.5198,-2.4997,-2.4902,-2.5011,-2.4983,-2.4875,-2.4475,-2.5174,-2.6647,-2.7053,-2.6925,-2.6661,-2.6546,-2.641,-2.6369,-2.6084,-2.6467,-2.7222,-2.8399,-2.8487,-2.8203,-2.8432,-2.8297,-2.7876,-2.7671,-2.792,-2.8606,-3.0022,-3.1462,-3.2859,-3.4087,-3.5306,-3.6201,-3.6201,-3.6201,-3.6201,-3.6201,-3.6201,-3.6201,-3.6201,-3.6201,-3.6201,-3.6201,-3.6645,-3.707,-3.707,-3.7739,-3.8207,-3.8207,-3.8456,-3.9038,-4.0077,-4.0666,-4.1398,-4.227,-4.2997,-4.3248,-4.2668,-4.3397,-4.2753,-4.0704,-4.0554,-3.9805,0.0,0.0,0.0,0.0,0.0,0.0,0.0,0.0,0.0,0.0,0.0,0.0,0.0,0.0,0.0,0.0,0.0,0.0,0.0,0.0,0.0,0.0,0.0,0.0,0.0,-2.4487,-2.4366,-2.4396,-2.4242,-2.4072,-2.3681,-2.3308,-2.2996,-2.2687,-2.2147,-2.1899,-2.2038,-2.2026,-2.2319,-2.2743,-2.2885,-2.313,-2.3152,-2.3062,-2.3349,-2.4018,-2.3542,-2.3836,-2.4596,-2.4314,-2.4114,-2.3862,-2.3966,-2.3857,-2.3722,-2.3664,-2.4512,-2.6094,-2.6733,-2.6729,-2.6552,-2.6865,-2.6843,-2.6738,-2.6544,-2.6948,-2.7674,-2.8966,-2.9041,-2.8703,-2.8925,-2.8877,-2.8549,-2.833,-2.8417,-2.8791,-2.9759,-3.1347,-3.2859,-3.3634,-3.4989,-3.6237,-3.6384,-3.6421,-3.6457,-3.6586,-3.6402,-3.6256,-3.6402,-3.6421,-3.6457,-3.6604,-3.6622,-3.6622,-3.6622,-3.6861,-3.7026,-3.7026,-3.7264,-3.7871,-3.8918,-3.9353,-4.0105,-4.113,-4.1867,-4.1949,-4.1502,-4.2092,-4.1785,-4.0449,-4.0296,-3.9471,-3.7833,0.0,0.0,0.0,0.0,0.0,0.0,0.0,0.0,0.0,0.0,0.0,0.0,0.0,0.0,0.0,0.0,0.0,0.0,0.0,0.0,0.0,0.0,0.0,-2.4575,-2.4904,-2.4966,-2.4583,-2.4569,-2.4286,-2.3882,-2.2863,-2.201,-2.1308,-2.1047,-2.0781,-2.0509,-2.0744,-2.1041,-2.1486,-2.1752,-2.1738,-2.1296,-2.1531,-2.2097,-2.2843,-2.2097,-2.2694,-2.4462,-2.3748,-2.3446,-2.3469,-2.3767,-2.3735,-2.3302,-2.3568,-2.3858,-2.4086,-2.5184,-2.5841,-2.6101,-2.6875,-2.7041,-2.6794,-2.7088,-2.7381,-2.779,-2.8573,-2.8886,-2.8886,-2.8886,-2.8886,-2.8886,-2.8886,-2.89,-2.89,-2.89,-3.0747,-3.2588,-3.2588,-3.4423,-3.6366,-3.6769,-3.6861,-3.6971,-3.7356,-3.6787,-3.6384,-3.6787,-3.6861,-3.6989,-3.7374,-3.7429,0.0,-3.7429,-3.7429,-3.7448,-3.7448,-3.7448,-3.7466,-3.7466,-3.8804,-3.9693,-3.9693,-4.1575,-4.1968,-4.0296,-4.2201,-4.2799,-4.1699,-4.1561,-4.0578,-3.864,0.0,0.0,0.0,0.0,0.0,0.0,0.0,0.0,0.0,0.0,0.0,0.0,0.0,0.0,0.0,0.0,0.0,0.0,0.0,0.0,0.0,-2.4405,-2.4597,-2.5197,-2.5039,-2.4642,-2.4593,-2.4082,-2.3297,-2.2408,-2.171,-2.1278,-2.1072,-2.0757,-2.048,-2.0336,-2.0869,-2.1301,-2.1325,-2.187,-2.215,-2.2001,-2.1894,-2.2066,-2.2408,-2.2066,-2.2226,-2.3005,-2.2904,-2.25,-2.1976,-2.2236,-2.22,-2.1739,-2.151,-2.1848,-2.2368,-2.3945,-2.447,-2.4713,-2.5502,-2.6114,-2.6629,-2.7323,-2.7563,-2.779,-2.8573,-2.8886,-2.8886,-2.8886,-2.8886,-2.8886,-2.8886,-2.9061,-2.9237,-2.9237,-3.1292,-3.3364,-3.3364,-3.5225,-3.7118,-3.7246,-3.7264,-3.7301,-3.7411,-3.7246,-3.7136,-3.7246,-3.7264,-3.7301,-3.7411,-3.7429,-3.7429,-3.7429,-3.7668,-3.7851,-3.7851,-3.8126,-3.831,-3.831,-3.8605,-3.8918,-3.8918,-3.9481,-3.9537,-3.9086,-3.9651,-3.9764,-3.9421,-3.9421,-3.9207,0.0,0.0,0.0,0.0,0.0,0.0,0.0,0.0,0.0,0.0,0.0,0.0,0.0,0.0,0.0,0.0,0.0,0.0,0.0,0.0,0.0,0.0,-2.4289,-2.4223,-2.4611,-2.4491,-2.4295,-2.4046,-2.3228,-2.2203,-2.1217,-2.0769,-2.0364,-2.0221,-2.0027,-2.0027,-2.0162,-2.0694,-2.1129,-2.1437,-2.1888,-2.2109,-2.2259,-2.2114,-2.2114,-2.2259,-2.2223,-2.2283,-2.244,-2.2693,-2.2508,-2.1905,-2.1889,-2.1703,-2.1334,-2.0863,-2.1004,-2.1519,0.0,0.0,0.0,0.0,-2.5281,-2.5898,-2.6847,-2.7319,-2.779,-2.8573,-2.8886,-2.8915,-2.9047,-2.909,-2.912,-2.9108,-2.9123,-2.9268,-2.9268,-3.1286,-3.3503,-3.3661,-3.5556,-3.7466,-3.7631,-3.7668,-3.7723,-3.7906,-3.7924,0.0,-3.7924,-3.7778,-3.7741,-3.7906,-3.7924,-3.7924,-3.7924,-3.8144,-3.8273,-3.8273,-3.8493,-3.864,-3.864,-3.864,0.0,0.0,0.0,-3.864,-3.864,-3.8805,0.0,0.0,0.0,-3.9061,-3.8896,-3.9061,0.0,0.0,-3.897,-3.9098,0.0,0.0,0.0,0.0,0.0,0.0,0.0,0.0,0.0,0.0,0.0,0.0,0.0,0.0,0.0,0.0,-2.3891,-2.342,-2.3311,-2.3598,-2.3461,-2.3174,-2.2166,-2.1205,-2.039,-1.9904,-1.9479,-1.9187,-1.9402,-1.968,-2.0125,-2.0474,0.0,0.0,0.0,-2.196,-2.2259,-2.2295,-2.2307,-2.2307,-2.2573,-2.2693,-2.2705,-2.2971,-2.2781,-2.2471,-2.2027,-2.1693,-2.1578,-2.1101,-2.1082,-2.1416,-2.2305,-2.2817,-2.3175,-2.3988,-2.4627,-2.5104,-2.6043,0.0,0.0,-2.8475,-2.8817,-2.9047,-2.9181,-2.9268,-2.9326,-2.9134,-2.9086,-2.9115,-2.9115,-3.1037,-3.2952,-3.3302,-3.5348,-3.734,-3.7686,-3.7915,-3.8199,-3.8566,-3.864,-3.864,-3.864,-3.8328,-3.8218,-3.8585,-3.864,-3.864,-3.864,-3.864,-3.864,-3.864,-3.864,0.0,-3.864,-3.864,-3.864,-3.864,-3.8676,-3.8713,-3.8713,-3.908,-3.9135,-3.8786,-3.9483,-3.9667,-3.93,-3.9667,-3.9868,-3.9905,-3.9483,-3.952,0.0,0.0,0.0,0.0,0.0,0.0,0.0,0.0,0.0,0.0,0.0,0.0,0.0,0.0,0.0,-2.4156,-2.3486,-2.3077,-2.3166,-2.223,-2.1389,-2.0967,-2.0733,-2.0283,-1.9492,-1.9441,-1.9582,-1.9435,-1.9938,-2.023,-1.993,-2.0876,-2.136,-2.1222,-2.181,-2.2259,-2.2259,-2.2464,-2.2573,-2.2585,-2.2838,0.0,-2.2971,-2.2936,-2.2595,-2.2291,-2.2009,-2.164,-2.1362,-2.1211,-2.1233,-2.1276,-2.1545,-2.2039,-2.2717,-2.2878,-2.3348,-2.4295,-2.5422,-2.6361,-2.72,-2.8011,-2.8659,-2.9048,-2.8768,-2.8621,0.0,-2.8706,-2.8903,-2.91,-2.91,-3.0407,-3.1735,-3.1899,-3.4163,-3.6286,-3.6355,-3.7524,-3.8548,-3.8621,-3.864,-3.864,-3.864,-3.8585,-3.8548,-3.864,-3.864,-3.864,-3.864,-3.864,-3.864,-3.864,-3.864,-3.864,-3.864,-3.864,-3.864,-3.864,-3.8933,-3.9116,-3.9116,-3.9502,-3.9685,-3.9612,-3.9758,-3.9795,-3.9722,-3.9795,-4.0015,-4.0345,-3.9923,-3.9942,0.0,0.0,0.0,0.0,0.0,0.0,0.0,0.0,0.0,0.0,0.0,-2.413,-2.4291,0.0,-2.3722,-2.3624,-2.2842,-2.2205,-2.2049,-2.0816,-2.0255,-2.053,-2.0359,-2.0061,-1.9316,-1.9531,-1.9671,-1.9671,-2.008,-2.0145,-1.9844,-2.0447,-2.0759,-2.0759,-2.1488,-2.2011,-2.215,-2.2718,-2.285,-2.2543,-2.2805,-2.278,-2.2635,-2.2735,-2.2544,-2.2385,-2.2028,-2.1761,-2.1599,-2.1438,-2.1276,-2.1286,-2.1405,-2.1698,-2.1933,-2.2056,-2.2576,-2.356,-2.449,-2.56,-2.669,-2.7189,-2.7946,-2.8762,-2.8412,-2.8618,-2.8823,-2.8648,-2.88,-2.8924,-2.8924,-3.0007,-3.1105,-3.1271,-3.3708,-3.5994,-3.5994,-3.7312,-3.864,-3.864,-3.864,-3.8713,-3.8915,-3.8933,-3.8878,-3.8676,-3.864,-3.864,-3.864,-3.8823,-3.8933,-3.8933,-3.9116,-3.9245,-3.9245,-3.9245,-3.9245,-3.9245,-3.9428,-3.9538,-3.9538,-3.974,-3.985,-3.985,-4.0052,-4.0162,-4.0162,-4.0345,-4.0565,-4.0767,-4.0547,-4.0565,0.0,0.0,0.0,0.0,0.0,0.0,0.0,-2.5685,-2.4565,-2.4695,-2.4218,-2.3808,-2.3933,-2.3764,-2.3419,-2.3207,-2.2217,-2.1363,-2.0908,-1.9792,-1.9522,-2.0577,-2.0286,-1.9807,-1.9564,-1.9736,-1.9844,-1.9844,-1.9844,-1.9844,-1.9844,-2.0049,-2.0222,-2.0513,-2.1216,-2.1659,-2.1965,-2.2686,-2.2805,-2.2338,-2.2607,-2.2588,-2.227,-2.2476,-2.2406,-2.2406,-2.1922,-2.1761,-2.1761,-2.1438,-2.1308,-2.1362,-2.1545,-2.1534,-2.1437,-2.162,-2.2015,-2.2695,-2.3396,-2.4649,-2.6172,-2.6172,-2.7197,-2.8454,-2.8207,-2.8454,-2.8828,-2.8755,-2.8696,-2.8751,-2.8751,-2.9607,-3.0629,-3.1209,-3.3492,-3.5612,-3.6114,-3.7436,-3.8786,-3.886,-3.8878,-3.8988,-3.93,-3.9355,-3.9245,-3.8933,-3.8878,-3.8878,-3.8878,-3.9153,-3.9355,-3.9355,-3.9648,-3.9832,-3.985,-3.985,-3.985,-3.985,-3.9923,-3.996,-3.996,-4.0033,-4.007,-4.007,-4.0418,-4.0584,-4.0584,-4.0895,-4.106,-4.106,-4.106,-4.106,-3.0702,-2.9647,-2.9483,-2.9208,-2.8152,-2.7267,0.0,-2.5986,-2.4775,-2.5272,-2.4849,-2.4274,-2.4032,-2.3859,-2.3637,-2.2854,-2.1944,-2.1198,-2.0727,-1.99,-1.9531,-1.9886,-1.9756,-1.9575,-1.979,-1.9833,-1.9844,-1.9844,-1.9844,-1.9844,-1.9844,-2.0353,-2.078,-2.078,-2.1476,-2.1757,-2.1757,-2.2176,-2.2314,-2.2156,-2.2567,-2.2522,-2.2522,-2.2234,-2.1922,-2.1922,-2.1599,-2.1438,-2.1438,-2.1276,-2.1394,-2.1577,-2.1609,-2.1739,-2.1911,-2.1943,-2.1776,-2.1599,-2.2455,-2.3603,-2.4639,-2.4975,-2.6478,-2.8043,-2.7759,-2.7928,-2.8265,-2.8305,-2.852,-2.8551,-2.8551,-2.891,-2.9549,-3.0947,-3.2692,-3.452,-3.6181,-3.7844,-3.9281,-3.963,-3.9703,-3.9722,-3.9758,-3.9777,-3.9758,-3.9722,-3.9703,-3.9703,-3.9703,-3.974,-3.9777,-3.9777,-3.9795,-3.9832,-3.9832,-3.985,-3.985,-3.985,-4.0198,-4.04,-4.04,-4.073,-4.0932,-4.0932,-4.0969,-4.0987,-4.0987,-4.1042,-4.106,-4.106,-4.106,-4.106,-3.1673,-3.0562,-3.0031,-3.0391,-2.9111,-2.7621,-2.7164,-2.5942,-2.504,-2.5487,-2.5091,-2.4701,-2.4595,-2.4316,-2.3749,-2.2337,-2.1885,-2.1325,-2.0258,-2.0003,-1.9736,-1.9833,-1.9758,-1.9736,-1.9844,-1.9844,-1.9844,-1.9844,-1.9844,-1.9908,-2.0048,-2.0145,-2.0109,-2.0259,-2.0954,-2.1232,-2.1232,-2.2123,-2.2248,-2.2087,-2.2189,-2.2084,-2.1761,-2.0769,-2.012,-1.9632,-1.9479,-1.9875,-2.0652,-2.0652,-2.1116,-2.1836,-2.1976,-2.1937,-2.1853,-2.1853,-2.1684,-2.1525,-2.1821,-2.2449,-2.338,-2.3209,-2.4291,-2.5738,-2.6091,-2.6727,-2.7367,-2.8233,-2.8631,-2.8858,-2.8858,-2.8951,-2.9512,-3.1066,-3.2876,-3.4725,-3.6571,-3.8416,-3.963,-3.9813,-3.985,-3.9923,-4.0162,-4.0217,-4.029,-4.051,-4.0143,-3.985,-3.985,-4.0052,-4.029,-4.0529,-4.0547,-4.0547,-4.0547,-4.0547,-4.0547,-4.0547,-4.0712,-4.0822,-4.0822,-4.0969,-4.106,-4.106,-4.106,-4.106,-4.106,-4.106,-4.106,-4.106,-4.106,-4.106,-3.1898,-3.1139,-3.0348,-3.0857,-2.9429,-2.7757,-2.6858,-2.5997,-2.5388,-2.5484,-2.525,-2.4889,-2.4975,-2.452,-2.3785,-2.2531,-2.2337,-2.1722,-2.0414,-2.0145,-2.0145,-1.9844,-1.9844,-1.9844,-1.9844,-1.9844,-1.9876,-1.9941,-1.9951,-2.0059,-2.0141,-1.9895,-1.9855,-1.9864,-2.04,-2.0687,-2.0687,-2.1501,-2.175,-2.1103,-2.1103,-2.0769,-2.013,-1.9307,-1.8491,-1.7837,-1.8065,-1.8825,-1.9795,-2.0186,-2.0847,-2.1747,-2.1927,-2.1863,-2.1744,-2.1402,-2.1231,-2.1261,-2.1078,-2.1649,-2.2341,-2.1995,-2.2718,-2.4132,-2.5175,-2.6044,-2.6958,-2.8366,-2.8938,-2.9165,-2.9165,-2.9219,-2.9771,-3.2057,-3.3569,-3.5265,-3.7629,-3.9156,-4.0052,-4.0162,-4.018,-4.0272,-4.0584,-4.0639,-4.073,-4.1024,-4.0547,-4.018,-4.018,-4.0437,-4.0749,-4.1024,-4.106,-4.106,-4.106,-4.106,-4.106,-4.106,-4.106,-4.106,-4.106,-4.106,-4.106,-4.106,-4.106,-4.106,-4.106,-4.106,-4.106,-4.106,-4.106,-4.106,-3.0031,-2.9917,-2.9379,-2.9732,-2.8753,-2.7385,-2.6703,-2.6269,-2.5848,-2.5581,-2.5144,-2.4862,-2.4876,-2.4556,-2.4037,-2.3588,-2.3395,-2.2831,-2.1176,-2.1037,-2.0737,-1.9995,-1.9844,-1.9844,-1.9844,-1.9844,-1.9941,-2.0188,-2.0199,-2.0152,-1.9918,-2.0137,-2.0103,-1.9624,-1.9836,-1.9957,-1.9957,-2.0465,-1.9967,-1.8818,-1.9134,-1.8645,-1.7501,-1.7837,-1.7837,-1.7346,-1.8367,-1.8625,-1.8477,-2.0022,-2.0746,-2.0938,-2.148,-2.1786,-2.1811,-2.0945,-2.0598,-2.0607,-2.0607,-2.0955,-2.1302,-2.1302,-2.2489,-2.4058,-2.5449,-2.6325,-2.7059,-2.8496,-2.9245,-2.9472,-2.9472,-2.9673,-3.0684,-3.4016,-3.4798,-3.5824,-3.9587,-4.0455,-4.0565,-4.095,-4.1024,-4.1024,-4.1042,-4.1042,-4.1042,-4.106,-4.1042,-4.1024,-4.1024,-4.1024,-4.1042,-4.106,-4.106,-4.106,-4.106,-4.106,-4.106,-4.106,-4.106,-4.106,-4.106,-4.106,-4.106,-4.106,-4.106,-4.106,-4.106,-4.106,-4.106,-4.106,-4.106,-4.106,-2.9739,-2.948,-2.8963,-2.9461,-2.8146,-2.6706,-2.6357,-2.5877,-2.5653,-2.6154,-2.5456,-2.5087,-2.5427,-2.5268,-2.4616,-2.372,-2.3676,-2.3116,-2.1325,-2.1026,-2.0737,-1.9995,-1.9994,-2.0091,-2.0091,-1.9928,-1.9807,-1.9738,-1.974,-1.9614,-1.9671,-1.9603,-1.9384,-1.9371,-1.944,-1.9479,-1.9479,-2.0303,-1.9967,-1.8654,-1.8155,-1.7501,-1.6525,-1.6477,-1.6211,-1.5719,-1.6237,-1.6883,-1.7843,-1.8246,-1.9428,-2.0673,-2.049,-2.0712,-2.0955,-2.0781,-2.0443,-2.0095,-2.0095,-2.0269,-2.0463,-2.0598,-2.1213,-2.236,-2.4436,-2.5725,-2.6649,-2.8798,-2.9553,-2.9766,-2.9409,-2.9654,-3.041,-3.2559,-3.4104,-3.601,-3.8441,-4.0,-4.0895,-4.1024,-4.106,-4.106,-4.106,-4.106,-4.106,-4.106,-4.106,-4.106,-4.106,-4.106,-4.106,-4.106,-4.106,-4.106,-4.106,-4.106,-4.106,-4.106,-4.106,-4.106,-4.106,-4.106,-4.106,-4.106,-4.106,-4.106,-4.106,-4.106,-4.106,-4.106,-4.106,-4.106,-3.0224,-2.9914,-2.9346,-2.9731,-2.8237,-2.6617,-2.6413,-2.6069,-2.5841,-2.6344,-2.554,-2.51,-2.5597,-2.5397,-2.4781,-2.43,-2.4183,-2.3606,-2.1912,-2.1487,-2.1071,-2.0114,-1.996,-1.9934,-2.0019,-1.9637,-1.9522,-1.9824,-1.9508,-1.9364,-1.9423,-1.9272,-1.9018,-1.9153,-1.9163,-1.9163,-1.9163,-1.9479,-1.8981,-1.7501,-1.6353,-1.5734,-1.5467,-1.5409,-1.5333,-1.5063,-1.5406,-1.6043,-1.6836,-1.7239,-1.8209,-1.9379,-1.9553,-1.9902,-2.0095,-2.0346,-2.02,-2.0025,-2.0025,-2.0025,-2.0062,-2.027,-2.0562,-2.1353,-2.4163,-2.5282,-2.639,-2.8908,-2.9588,-2.9554,-2.9362,-2.9375,-2.99,-3.1642,-3.3731,-3.5826,-3.7929,-3.9841,-4.106,-4.106,-4.106,-4.106,-4.106,-4.106,-4.106,-4.106,-4.106,-4.106,-4.106,-4.106,-4.106,-4.106,-4.106,-4.106,-4.106,-4.106,-4.106,-4.106,-4.106,-4.106,-4.106,-4.106,-4.106,-4.106,-4.106,-4.106,-4.106,-4.106,-4.106,-4.106,-4.106,-4.106,-3.1431,-3.0994,-3.0409,-3.0409,-2.8707,-2.6998,-2.6983,-2.6692,-2.6399,-2.6399,-2.5548,-2.4891,-2.5338,-2.4814,-2.4575,-2.5296,-2.5077,-2.4302,-2.3078,-2.2396,-2.1615,-2.0342,-1.9913,-1.9709,-1.9928,-1.9374,-1.9344,-2.0134,-1.9814,-1.9423,-1.9307,-1.9316,-1.9163,-1.8673,-1.8673,-1.8673,-1.8673,-1.8174,-1.7018,-1.5365,-1.4066,-1.3818,-1.4462,-1.4813,-1.5078,-1.5413,-1.5917,-1.5821,-1.5481,-1.6498,-1.7088,-1.7271,-1.8506,-1.9039,-1.9241,-1.9971,-2.0223,-2.0233,-2.0251,-2.0242,-2.027,-2.0488,-2.0686,-2.1384,-2.4283,-2.5343,-2.6071,-2.9002,-2.9554,-2.9182,-2.9182,-2.8835,-2.9002,-3.1287,-3.3365,-3.5462,-3.7586,-3.9671,-4.106,-4.106,-4.106,-4.106,-4.106,-4.106,-4.106,-4.106,-4.106,-4.106,-4.106,-4.106,-4.106,-4.106,-4.106,-4.106,-4.106,-4.106,-4.106,-4.106,-4.106,-4.106,-4.106,-4.106,-4.106,-4.106,-4.106,-4.106,-4.106,-4.106,-4.106,-4.106,-4.106,-4.106,-3.1878,-3.0966,-2.9981,-2.9981,-2.8691,-2.742,-2.7129,-2.6983,-2.6838,-2.6838,-2.5812,-2.5214,-2.6027,-2.5669,-2.5272,-2.5726,-2.5084,-2.4382,-2.3844,-2.2253,-2.1204,-2.1119,-2.0511,-2.0126,-2.0179,-2.0248,-2.0048,-1.9563,-1.9238,-1.8942,-1.8837,-1.8837,-1.8837,-1.8673,-1.8673,-1.8673,-1.8673,-1.7519,-1.6689,-1.5859,-1.5006,-1.4929,-1.5318,-1.5391,-1.5354,-1.5399,-1.5745,-1.5462,-1.5111,-1.5506,-1.5866,-1.6569,-1.6577,-1.7538,-1.8902,-1.9133,-1.9606,-2.0478,-2.099,-2.0942,-2.0497,-2.1058,-2.1527,-2.2323,-2.431,-2.5503,-2.647,-2.792,-2.8462,-2.8655,-2.8101,-2.8294,-2.8474,-2.8809,-3.1954,-3.4925,-3.5636,-3.8597,-4.106,-4.106,-4.106,-4.106,-4.106,-4.106,-4.106,-4.106,-4.106,-4.106,-4.106,-4.106,-4.106,-4.106,-4.106,-4.106,-4.106,-4.106,-4.106,-4.106,-4.106,-4.106,-4.106,-4.106,-4.106,-4.106,-4.106,-4.106,-4.106,-4.106,-4.106,-4.106,-4.1378,-4.1378,-3.263,-3.1401,-2.9981,-2.9838,-2.8691,-2.752,-2.6952,-2.6778,-2.6735,-2.6301,-2.5442,-2.4947,-2.5841,-2.5669,-2.5641,-2.6242,-2.5884,-2.5445,-2.482,-2.3175,-2.1939,-2.1745,-2.0906,-2.0314,-2.0419,-2.0382,-2.013,-1.9642,-1.9163,-1.8837,-1.8673,-1.8673,-1.8673,-1.8673,-1.8673,-1.8673,-1.8337,-1.751,-1.6732,-1.6146,-1.5424,-1.5386,-1.5879,-1.5549,-1.567,-1.5737,-1.5484,-1.5175,-1.4992,-1.4822,-1.4999,-1.5528,-1.5704,-1.6687,-1.8271,-1.8714,-1.959,-2.0705,-2.1279,-2.1096,-2.102,-2.1856,-2.2262,-2.2647,-2.4043,-2.5195,-2.6106,-2.7184,-2.7739,-2.8101,-2.7739,-2.7739,-2.7752,-2.7739,-3.1245,-3.4226,-3.3716,-3.7552,-4.106,-4.106,-4.106,-4.106,-4.106,-4.106,-4.106,-4.106,-4.106,-4.106,-4.106,-4.106,-4.106,-4.106,-4.106,-4.106,-4.106,-4.106,-4.106,-4.106,-4.1229,-4.1378,-4.1378,-4.1565,-4.1733,-4.1733,-4.1733,-4.1565,-4.1378,-4.1565,-4.1565,-4.1378,-4.1882,-4.1882,-3.34,-3.1841,-3.0266,-2.9981,-2.8882,-2.7665,-2.6732,-2.6673,-2.6599,-2.5653,-2.4903,-2.475,-2.5425,-2.5584,-2.597,-2.692,-2.6929,-2.6566,-2.5908,-2.4598,-2.3487,-2.2776,-2.1567,-2.0718,-2.0769,-2.0455,-2.0292,-1.9967,-1.9642,-1.9316,-1.8837,-1.8673,-1.8673,-1.8837,-1.8837,-1.851,-1.8164,-1.7691,-1.7138,-1.63,-1.5685,-1.5523,-1.616,-1.5828,-1.5912,-1.6225,-1.5344,-1.4992,-1.4822,-1.4476,-1.4299,-1.4299,-1.5183,-1.6348,-1.7599,-1.8484,-1.978,-2.0913,-2.1102,-2.1353,-2.1353,-2.2268,-2.2452,-2.2637,-2.3546,-2.4635,-2.5548,-2.6458,-2.7184,-2.7558,-2.7558,-2.739,-2.7027,-2.7558,-3.0712,-3.335,-3.2146,-3.6518,-4.0892,-4.106,-4.106,-4.106,-4.106,-4.106,-4.106,-4.106,-4.1229,-4.1229,-4.1229,-4.106,-4.106,-4.106,-4.106,-4.106,-4.106,-4.1229,-4.1229,-4.1229,-4.1546,-4.1863,-4.1863,-4.2216,-4.2402,-4.2402,-4.2402,-4.2235,-4.1863,-4.2235,-4.2235,-4.1882,-4.2216,-4.2402,-3.3539,-3.1841,-3.0409,-3.0266,-2.9921,-2.9101,-2.7335,-2.7983,-2.8299,-2.6276,-2.5615,-2.5673,-2.659,-2.6488,-2.659,-2.7551,-2.6956,-2.6516,-2.7027,-2.5383,-2.4153,-2.4685,-2.3781,-2.2808,-2.1728,-2.1911,-2.1588,-2.013,-2.0303,-1.9978,-1.9316,-1.8837,-1.8837,-1.9153,-1.9153,-1.899,-1.8654,-1.8339,-1.7776,-1.6801,-1.6609,-1.6442,-1.616,-1.6292,-1.5843,-1.5168,-1.4992,-1.4822,-1.4476,-1.4299,-1.4299,-1.4299,-1.4476,-1.5891,-1.7599,-1.7813,-1.9314,-2.1121,-2.1704,-2.1723,-2.1723,-2.1908,-2.2093,-2.2083,-2.2637,-2.3913,-2.5001,-2.5183,-2.6106,-2.7208,-2.7208,-2.7027,-2.7027,-2.7027,-2.9502,-3.1777,-3.1437,-3.5288,-3.9331,-4.0892,-4.106,-4.106,-4.106,-4.106,-4.106,-4.106,-4.1378,-4.1546,-4.1546,-4.1378,-4.106,-4.106,-4.106,-4.106,-4.106,-4.1378,-4.1546,-4.1546,-4.2049,-4.2235,-4.2235,-4.2402,-4.2402,-4.2402,-4.2402,-4.2402,-4.2235,-4.2402,-4.2402,-4.2235,-4.2735,-4.2735,-3.3678,-3.2123,-3.1027,-3.1069,-3.0821,-3.0195,-2.8191,-2.8444,-2.8475,-2.6096,-2.5388,-2.5535,-2.6339,-2.6354,-2.6574,-2.7539,-2.7968,-2.7978,-2.7712,-2.7045,-2.6276,-2.5531,-2.4698,-2.3816,-2.3015,-2.2717,-2.2234,-2.1427,-2.0952,-2.014,-1.9316,-1.9153,-1.9163,-1.9316,-1.9805,-2.0028,-1.9975,-1.9085,-1.8411,-1.7926,-1.6935,-1.6199,-1.5943,-1.566,-1.5344,-1.4992,-1.4822,-1.4476,-1.4299,-1.4299,-1.4299,-1.4306,-1.4914,-1.616,-1.7837,-1.8292,-1.9612,-2.1168,-2.1538,-2.1538,-2.1538,-2.1538,-2.1908,-2.2268,-2.2268,-2.3362,-2.4818,-2.4452,-2.5742,-2.7027,-2.7027,-2.7027,-2.7027,-2.7027,-2.8449,-3.0739,-3.3876,-3.5809,-3.7757,-4.0536,-4.106,-4.106,-4.106,-4.121,-4.1378,-4.1378,-4.1714,-4.2049,-4.2049,-4.19,-4.1733,-4.1378,-4.1378,-4.1378,-4.1378,-4.1882,-4.2049,-4.2049,-4.2569,-4.2735,-4.2735,-4.2902,-4.3048,-4.3048,-4.3048,-4.2882,-4.2735,-4.2882,-4.2902,-4.2735,-4.3234,-4.3214,-3.4075,-3.279,-3.185,-3.1769,-3.1955,-3.1387,-2.8916,-2.8789,-2.8535,-2.5665,-2.5052,-2.5257,-2.59,-2.6076,-2.6413,-2.7335,-2.8626,-2.9093,-2.8067,-2.8313,-2.816,-2.6517,-2.574,-2.5092,-2.4455,-2.3508,-2.2878,-2.2717,-2.1438,-2.0303,-1.9479,-1.9316,-1.9316,-1.9642,-2.0303,-2.0742,-2.1126,-1.9844,-1.9044,-1.8723,-1.7223,-1.6102,-1.5528,-1.5175,-1.4999,-1.4822,-1.4476,-1.4299,-1.4299,-1.4299,-1.4476,-1.4666,-1.5705,-1.6759,-1.8027,-1.9123,-2.0235,-2.1168,-2.1168,-2.1168,-2.1168,-2.1168,-2.1723,-2.2278,-2.1908,-2.2995,-2.4269,-2.4086,-2.5377,-2.6664,-2.7027,-2.7027,-2.7208,-2.7208,-2.7752,-2.9873,-3.562,-3.6156,-3.6691,-4.0518,-4.121,-4.1229,-4.1397,-4.1546,-4.1695,-4.1863,-4.2216,-4.2569,-4.2569,-4.2569,-4.2402,-4.2049,-4.1882,-4.1882,-4.1882,-4.2216,-4.2569,-4.2569,-4.3068,-4.3234,-4.3234,-4.3546,-4.3711,-4.3711,-4.3711,-4.3546,-4.3234,-4.3546,-4.3546,-4.3234,-4.3546,-4.3711,-3.5021,-3.3889,-3.3081,-3.2641,-3.3221,-3.2887,-2.9612,-2.9688,-2.9385,-2.5846,-2.5052,-2.5257,-2.59,-2.6266,-2.6676,-2.7364,-2.7894,-2.8218,-2.8388,-2.8461,-2.8269,-2.809,-2.7961,-2.749,-2.6201,-2.5092,-2.3988,-2.3175,-2.1588,-2.0465,-1.9967,-1.9479,-1.9642,-2.0465,-2.0627,-2.0895,-2.162,-2.0837,-1.9871,-1.8723,-1.8044,-1.6737,-1.4992,-1.4992,-1.4822,-1.4299,-1.4299,-1.4299,-1.4299,-1.4299,-1.4829,-1.5543,-1.5876,-1.7306,-1.8931,-1.9305,-2.0235,-2.1168,-2.1168,-2.1168,-2.1168,-2.1168,-2.1168,-2.1353,-2.1353,-2.1889,-2.2984,-2.3903,-2.4829,-2.5924,-2.6845,-2.7377,-2.7739,-2.8294,-2.8113,-2.9143,-3.4052,-3.5273,-3.6658,-4.0837,-4.1695,-4.1714,-4.2235,-4.1882,-4.1882,-4.2235,-4.2735,-4.3068,-4.3068,-4.3068,-4.3068,-4.3068,-4.2569,-4.2402,-4.2402,-4.2735,-4.3068,-4.3068,-4.338,-4.3711,-4.3711,-4.3711,-4.3711,-4.3711,-4.3711,-4.3711,-4.3711,-4.3711,-4.3711,-4.3711,-4.3711,-4.3711,-3.6186,-3.516,-3.4288,-3.4106,-3.4501,-3.4067,-3.076,-3.0293,-2.9558,-2.5861,-2.5052,-2.514,-2.5388,-2.5549,-2.5842,-2.6486,-2.7431,-2.8188,-2.8037,-2.891,-2.9303,-2.8403,-2.8289,-2.7961,-2.7162,-2.6201,-2.4933,-2.3336,-2.2384,-2.1416,-2.079,-2.0303,-2.0303,-2.0627,-2.0926,-2.1434,-2.1825,-2.1221,-2.0075,-1.8547,-1.7755,-1.6393,-1.4646,-1.4646,-1.4476,-1.4299,-1.4299,-1.4299,-1.4299,-1.3945,-1.4653,-1.5727,-1.6346,-1.7575,-1.913,-2.018,-2.0723,-2.1168,-2.1168,-2.1168,-2.1168,-2.1168,-2.1168,-2.1168,-2.1168,-2.2258,-2.3536,-2.3903,-2.4829,-2.5924,-2.7015,-2.7739,-2.8294,-2.8474,-2.8474,-2.986,-3.4226,-3.5273,-3.6847,-4.1192,-4.1882,-4.1882,-4.2402,-4.2569,-4.255,-4.2735,-4.3214,-4.338,-4.338,-4.338,-4.338,-4.338,-4.3068,-4.2902,-4.2902,-4.3214,-4.338,-4.338,-4.3546,-4.3711,-4.3711,-4.3711,-4.3711,-4.3711,-4.3711,-4.3711,-4.3711,-4.3711,-4.3711,-4.3711,-4.3711,-4.3711,-3.7012,-3.6161,-3.5394,-3.5285,-3.5394,-3.4722,-3.1765,-3.0651,-2.9453,-2.6494,-2.5592,-2.5352,-2.544,-2.5544,-2.5658,-2.6076,-2.7199,-2.8015,-2.7865,-2.8822,-2.9275,-2.8284,-2.8244,-2.8146,-2.782,-2.6792,-2.5409,-2.3496,-2.2694,-2.2061,-2.1438,-2.1114,-2.079,-2.079,-2.1338,-2.1728,-2.1965,-2.1525,-2.0544,-1.9186,-1.8313,-1.7096,-1.5528,-1.4999,-1.4829,-1.4822,-1.4476,-1.4299,-1.4299,-1.4299,-1.5027,-1.6333,-1.7338,-1.8397,-1.9762,-2.0852,-2.1168,-2.1168,-2.1168,-2.1168,-2.1168,-2.1168,-2.1168,-2.1168,-2.1168,-2.2083,-2.3362,-2.4086,-2.5377,-2.6652,-2.7739,-2.8294,-2.8474,-2.8655,-2.8835,-3.0231,-3.4386,-3.562,-3.7019,-4.1695,-4.2383,-4.2216,-4.2716,-4.2902,-4.3068,-4.3214,-4.3546,-4.3711,-4.3711,-4.3711,-4.3711,-4.3711,-4.338,-4.3234,-4.3234,-4.3546,-4.3711,-4.3711,-4.3711,-4.3711,-4.3711,-4.3711,-4.3711,-4.3711,-4.3711,-4.3711,-4.3711,-4.3711,-4.3711,-4.3711,-4.3711,-4.3711,-3.757,-3.7009,-3.6109,-3.5705,-3.532,-3.4521,-3.2544,-3.0804,-2.9104,-2.7846,-2.6517,-2.5832,-2.6406,-2.6632,-2.6543,-2.6442,-2.7042,-2.7466,-2.7481,-2.7759,-2.7964,-2.7964,-2.8242,-2.8447,-2.8447,-2.684,-2.5104,-2.3816,-2.2545,-2.1922,-2.1922,-2.1438,-2.1276,-2.1276,-2.1502,-2.1728,-2.1965,-2.2212,-2.1765,-2.0588,-2.0066,-1.937,-1.8322,-1.6577,-1.5881,-1.6225,-1.4822,-1.4299,-1.4299,-1.5359,-1.6325,-1.7558,-1.8656,-1.9753,-2.0866,-2.1093,-2.1168,-2.1168,-2.1168,-2.1168,-2.1168,-2.1168,-2.1168,-2.1168,-2.1168,-2.1168,-2.1723,-2.4097,-2.6652,-2.8474,-2.8474,-2.8474,-2.8655,-2.9002,-2.8835,-2.9694,-3.4386,-3.5761,-3.7485,-4.2197,-4.3068,-4.3234,-4.3546,-4.338,-4.3234,-4.3711,-4.3711,-4.3711,-4.3711,-4.3711,-4.3711,-4.3711,-4.3711,-4.3711,-4.3711,-4.3711,-4.3711,-4.3711,-4.3711,-4.3711,-4.3711,-4.3711,-4.3711,-4.3711,-4.3711,-4.3711,-4.3711,-4.3711,-4.3711,-4.3711,-4.3711,-4.3711,-3.6833,-3.6047,-3.4833,-3.4422,-3.4293,-3.3702,-3.1771,-3.0583,-2.9529,-2.8245,-2.6784,-2.6026,-2.7445,-2.6951,-2.6568,-2.7378,-2.756,-2.7585,-2.7744,-2.8822,-2.9473,-2.9473,-2.9763,-2.9668,-2.8739,-2.8203,-2.7305,-2.6043,-2.5092,-2.3988,-2.2866,-2.2073,-2.1599,-2.1276,-2.1653,-2.1889,-2.1965,-2.2374,-2.1911,-2.0588,-2.0414,-1.9718,-1.8497,-1.7797,-1.7622,-1.7797,-1.6401,-1.6049,-1.6585,-1.5816,-1.6604,-1.8466,-1.8785,-1.9679,-2.0866,-2.1093,-2.1168,-2.1168,-2.1168,-2.1168,-2.1168,-2.1168,-2.1168,-2.1168,-2.1168,-2.1714,-2.2626,-2.4269,-2.6821,-2.8822,-2.8101,-2.9002,-2.99,-3.0079,-3.0258,-3.1642,-3.5967,-3.6674,-3.8049,-4.2678,-4.3214,-4.3234,-4.3711,-4.3546,-4.3546,-4.3711,-4.3711,-4.3711,-4.3711,-4.3711,-4.3711,-4.3711,-4.3711,-4.3711,-4.3711,-4.3711,-4.3711,-4.3711,-4.3711,-4.3711,-4.3711,-4.3711,-4.3711,-4.3711,-4.3711,-4.3711,-4.3711,-4.3711,-4.3711,-4.3711,-4.3711,-4.3711,-3.6068,-3.5314,-3.4094,-3.3817,-3.3716,-3.3211,-3.2025,-3.0863,-2.998,-2.9499,-2.7965,-2.7264,-2.8977,-2.8012,-2.7447,-2.8523,-2.8588,-2.8459,-2.8626,-2.9895,-3.0678,-3.04,-3.042,-3.013,-2.9027,-2.8573,-2.8104,-2.7319,-2.6056,-2.4773,-2.3496,-2.2395,-2.1761,-2.1276,-2.1728,-2.1965,-2.1976,-2.2449,-2.233,-2.1455,-2.1282,-2.0761,-2.0066,-1.937,-1.9021,-1.9021,-1.7622,-1.7136,0.0,-1.696,-1.7624,-1.9033,-1.9452,-2.0153,-2.0979,-2.1121,-2.1168,-2.1168,-2.1168,-2.1168,-2.1168,-2.1168,-2.1529,-2.1898,-2.1538,-2.2442,-2.3892,-2.4818,-2.6821,-2.8642,-2.8462,-2.9182,-2.9887,-3.0437,-3.0973,-3.2351,-3.6329,-3.7191,-3.8408,-4.2844,-4.3546,-4.338,-4.3711,-4.3711,-4.3711,-4.3711,-4.3711,-4.3711,-4.3711,-4.3711,-4.3711,-4.3711,-4.3711,-4.3711,-4.3711,-4.3711,-4.3711,-4.3711,-4.3711,-4.3711,-4.3711,-4.3711,-4.3711,-4.3711,-4.3711,-4.3711,-4.3711,-4.3711,-4.3711,-4.3711,-4.3711,-4.3711,0.0,-3.485,-3.3633,-3.3771,-3.3336,-3.3028,-3.3028,-3.1647,0.0,-3.1249,-3.0083,-2.9257,-3.0781,-2.985,-2.9012,-2.9835,-2.9844,-2.9864,-2.9933,-3.0846,-3.1204,-3.0447,-3.0264,-2.9931,-2.9012,-2.8104,-2.7633,-2.7633,-2.5727,-2.4295,-2.3976,-2.2705,-2.1761,-2.1276,-2.1728,-2.1976,-2.1986,-2.2449,-2.2686,-2.2686,-2.2341,-2.2341,-2.2686,-2.0945,-2.0076,-1.9892,-1.8497,-1.7907,-1.7728,-1.8449,-1.9033,-1.9559,-2.0491,-2.0989,-2.1168,-2.1168,-2.1168,-2.1168,-2.1168,-2.1168,-2.1168,-2.1168,-2.2073,-2.2984,-2.2268,-2.3719,-2.5707,-2.5548,-2.664,-2.8281,-2.9554,-2.9362,-2.8976,-3.0437,-3.1151,-3.2366,-3.5967,-3.7003,-3.8562,-4.2678,-4.3526,-4.3546,-4.3711,-4.3711,-4.3711,-4.3711,-4.3711,-4.3711,-4.3711,-4.3711,-4.3711,-4.3711,-4.3711,-4.3711,-4.3711,-4.3711,-4.3711,-4.3711,-4.3711,-4.3711,-4.3711,-4.3711,-4.3711,-4.3711,-4.3711,-4.3711,-4.3711,-4.3711,-4.3711,-4.3711,-4.3711,-4.3711,-3.5558,0.0,-3.2488,-3.2971,-3.2838,-3.2448,0.0,-3.1395,-3.0991,-3.1653,-3.0213,-2.9436,-3.1774,-3.1015,-3.024,-3.0983,-3.1154,-3.113,-3.0415,-3.1232,-3.1604,-3.0745,-3.0623,-3.0192,-2.9042,-2.873,-2.8573,-2.8573,-2.6689,-2.5263,-2.4786,-2.2866,-2.1761,-2.1276,-2.1728,-2.1965,-2.1976,-2.2449,-2.2686,-2.2686,-2.2514,-2.2514,-2.2686,-2.2157,-2.1811,-2.1465,-2.0066,-1.9665,-2.0046,-1.9312,-1.9527,-2.0491,-2.1026,-2.1121,-2.1168,-2.1168,-2.1168,-2.1168,-2.1168,-2.1168,-2.1168,-2.1538,-2.1898,-2.2268,-2.2821,-2.5012,-2.7003,-2.6276,-2.7895,-3.0079,-3.0258,-3.0794,-3.1151,-3.1521,-3.2054,-3.3102,-3.532,-3.5826,-3.7036,-4.0987,-4.1677,-4.2011,-4.3526,-4.3711,-4.3711,-4.3711,-4.3711,-4.3711,-4.3711,-4.3711,-4.3711,-4.3711,-4.3711,-4.3711,-4.3711,-4.3711,-4.3711,-4.3711,-4.3711,-4.3711,-4.3711,-4.3711,-4.3711,-4.3711,-4.3711,-4.3711,-4.3711,-4.3711,-4.3711,-4.3711,-4.3711,-4.3711,-3.6279,-3.4528,-3.2676,-3.3019,-3.2912,-3.2549,-3.2422,-3.2038,-3.1891,-3.2294,-3.1377,-3.1042,-3.2955,-3.229,-3.159,-3.2506,-3.2884,-3.2808,-3.2526,-3.3025,-3.2909,-3.1469,-3.1194,-3.0593,-2.9368,-2.9042,-2.8886,-2.8588,-2.7319,-2.6215,-2.5422,-2.3668,-2.2556,-2.1922,-2.1904,-2.1976,-2.1976,-2.2449,-2.2686,-2.2686,-2.2686,-2.2686,-2.2686,-2.2514,-2.2168,-2.1649,-2.0598,-2.0375,-2.0577,-1.9802,-2.0023,-2.0856,-2.097,-2.1083,-2.1168,-2.1353,-2.1538,-2.1538,-2.1538,-2.1538,-2.1538,-2.2083,-2.2637,-2.3362,-2.4086,-2.573,-2.7365,-2.7003,-2.7895,-2.9335,-3.0794,-3.1151,-3.1137,-3.1877,-3.2409,-3.3279,-3.4797,-3.532,-3.6535,-4.0313,-4.0987,-4.1509,-4.3361,-4.3711,-4.3711,-4.3711,-4.3711,-4.3711,-4.3711,-4.3711,-4.3711,-4.3711,-4.3711,-4.3711,-4.3711,-4.3711,-4.3711,-4.3711,-4.3711,-4.3711,-4.3711,-4.3711,-4.3711,-4.3711,-4.3711,-4.3711,-4.3711,-4.3711,-4.3711,-4.3711,-4.3711,-4.3711,-3.7253,-3.6055,-3.4338,-3.3922,-3.3418,-3.3058,-3.3135,-3.3135,-3.3027,-3.3027,-3.2772,-3.2872,-3.4046,-3.3369,-3.3151,-3.4352,-3.4523,-3.4548,-3.4726,-3.4644,-3.3978,-3.2041,-3.1395,-3.0747,-2.9679,-2.9212,-2.89,-2.8431,-2.7947,-2.6991,-2.574,-2.4455,-2.3359,-2.2624,-2.2256,-2.2008,-2.204,-2.2471,-2.2686,-2.2686,-2.2686,-2.2686,-2.2514,-2.2168,-2.1649,-2.1128,-2.0781,-2.0385,-2.0223,-2.0223,-2.045,-2.08,-2.0828,-2.096,-2.1306,-2.1704,-2.1908,-2.2093,-2.2093,-2.2093,-2.2093,-2.2637,-2.3546,-2.4635,-2.5354,-2.6083,-2.6821,-2.7908,-2.7715,-2.8063,-3.0973,-3.1137,-3.0588,-3.1685,-3.2409,-3.3102,-3.4288,-3.4813,-3.6205,-3.9787,-4.065,-4.1155,-4.3361,-4.3711,-4.3711,-4.3711,-4.3711,-4.3711,-4.3711,-4.3711,-4.3711,-4.3711,-4.3711,-4.3711,-4.3711,-4.3711,-4.3711,-4.3711,-4.3711,-4.3711,-4.3711,-4.3711,-4.3711,-4.3711,-4.3711,-4.3711,-4.3711,-4.3711,-4.3711,-4.3711,-4.3711,-4.3711,-3.7758,-3.8559,-3.8814,-3.6199,-3.4403,-3.3516,-3.4142,-3.3856,-3.3469,-3.3469,-3.3211,-3.3234,-3.4085,-3.4049,-3.4279,-3.5276,-3.5079,-3.4744,-3.44,-3.3569,-3.2365,-3.1042,-3.0468,-3.0129,-2.9523,-2.9819,-2.9664,-2.8886,-2.809,-2.6977,-2.574,-2.4136,-2.2959,-2.2374,-2.2499,-2.2408,-2.2277,-2.2546,-2.2686,-2.2686,-2.2686,-2.2514,-2.2168,-2.1995,-2.1475,-2.0781,-2.0607,-2.0385,-2.0223,-2.0223,-2.0365,-2.0601,-2.0771,-2.1048,-2.1644,-2.184,-2.2093,-2.2452,-2.2452,-2.2452,-2.2637,-2.3189,-2.3373,-2.3924,-2.573,-2.5366,-2.5377,-2.9156,-2.9873,-2.9694,-3.0616,-3.1507,-3.2218,-3.1507,-3.2054,-3.294,-3.3117,-3.3117,-3.4319,-3.7895,-3.8579,-3.9769,-4.3195,-4.3711,-4.3711,-4.3711,-4.3711,-4.3711,-4.3711,-4.3711,-4.3711,-4.3711,-4.3711,-4.3711,-4.3711,-4.3711,-4.3711,-4.3711,-4.3711,-4.3711,-4.3711,-4.3711,-4.3711,-4.3711,-4.3711,-4.3711,-4.3711,-4.3711,-4.3711,-4.3711,-4.3711,-4.3711,-3.7998,-3.823,-3.843,-3.7681,-3.7885,-3.8598,-3.9232,-3.8641,-3.7678,-3.6936,-3.6099,-3.5329,-3.4906,-3.5181,-3.6053,-3.7307,-3.7145,-3.6751,-3.6475,-3.4984,-3.3516,-3.2479,-3.095,-3.0144,-3.0159,-2.9679,-2.9353,-2.8886,-2.8559,-2.7619,-2.6228,-2.5104,-2.4037,-2.3213,-2.3104,-2.3022,-2.281,-2.3016,-2.3031,-2.2686,-2.2686,-2.2514,-2.1995,-2.1822,-2.1302,-2.0607,-2.0269,-2.0143,-2.0053,-2.0053,-2.0176,-2.0374,-2.0469,-2.0819,-2.1231,-2.2004,-2.2637,-2.3005,-2.3373,-2.3189,-2.3189,-2.3567,-2.3751,-2.4291,-2.6628,-2.5913,-2.5012,-2.9322,-2.9873,-2.9528,-3.1329,-3.2232,-3.2763,-3.2232,-3.2409,-3.2778,-3.2778,-3.2778,-3.3792,-3.7552,-3.8238,-3.943,-4.301,-4.3711,-4.3711,-4.3711,-4.3711,-4.3711,-4.3711,-4.3711,-4.3711,-4.3711,-4.3711,-4.3711,-4.3711,-4.3711,-4.3711,-4.3711,-4.3711,-4.3711,-4.3711,-4.3711,-4.3711,-4.3711,-4.3711,-4.3711,-4.3711,-4.3711,-4.3711,-4.3711,-4.3711,-4.3711,-3.8118,-3.8043,-3.8452,-3.9578,-4.0586,-4.1513,-4.2532,-4.19,-4.0688,-3.9517,-3.872,-3.7715,-3.5949,-3.6406,-3.7539,-3.8701,-3.8825,-3.8498,-3.7902,-3.6147,-3.4571,-3.3526,-3.1697,-3.0376,-3.0624,-2.9679,-2.9042,-2.8886,-2.9042,-2.8417,-2.6702,-2.6215,-2.5289,-2.4097,-2.3728,-2.3499,-2.339,-2.3665,-2.3376,-2.2686,-2.2686,-2.2341,-2.1822,-2.1649,-2.1128,-2.0607,-2.0269,-1.9921,-1.9921,-1.9921,-2.0006,-2.0324,-2.0195,-2.0478,-2.1048,-2.2372,-2.3189,-2.3557,-2.4107,-2.4107,-2.3924,-2.4107,-2.4291,-2.4829,-2.7534,-2.664,-2.5377,-2.9502,-2.9515,-2.8976,-3.1329,-3.2409,-3.2763,-3.2586,-3.2586,-3.2778,-3.2778,-3.2778,-3.3807,-3.688,-3.7895,-3.926,-4.2512,-4.3361,-4.3711,-4.3711,-4.3711,-4.3711,-4.3711,-4.3711,-4.3711,-4.3711,-4.3711,-4.3711,-4.3711,-4.3711,-4.3711,-4.3711,-4.3711,-4.3711,-4.3711,-4.3711,-4.3711,-4.3711,-4.3711,-4.3711,-4.3711,-4.3711,-4.3711,-4.3711,-4.4186,-4.4021,-3.85,-4.0176,-4.2131,-4.2589,-4.0038,-3.7868,-4.0147,-4.0184,-3.9361,-3.8553,-3.9495,-3.9502,-3.6443,-3.7324,-3.8331,-3.8194,-3.8728,-3.8614,-3.7082,-3.5777,-3.4292,-3.2713,-3.1748,-3.0949,-3.0159,-3.0129,-2.9664,-2.8886,-2.9664,-2.9353,-2.7633,-2.6833,-2.5857,-2.4689,-2.4151,-2.3913,-2.3664,-2.4268,-2.3892,-2.2686,-2.2686,-2.2168,-2.1302,-2.1822,-2.1475,-2.0607,-2.0607,-2.0269,-1.9921,-1.9921,-2.0105,-2.0482,-2.0324,-2.0836,-2.1777,-2.2923,-2.3557,-2.4086,-2.4635,-2.5012,-2.5377,-2.4818,-2.4818,-2.5183,-2.7715,-2.7353,-2.6809,-2.9681,-2.9515,-2.8616,-2.9362,-3.1151,-3.2586,-3.1685,-3.2054,-3.2778,-3.2778,-3.2778,-3.3279,-3.5352,-3.7052,-3.892,-4.0819,-4.2531,-4.3711,-4.3711,-4.3711,-4.3711,-4.3711,-4.3711,-4.3711,-4.3711,-4.3711,-4.3711,-4.3711,-4.3711,-4.3711,-4.3711,-4.3711,-4.3711,-4.3711,-4.3711,-4.3711,-4.3711,-4.3711,-4.3711,-4.3711,-4.3711,-4.3711,-4.3691,-4.5311,-4.5311,-3.893,-4.0763,-4.2861,-4.2125,-4.1787,-4.2385,-4.5366,-4.5031,-4.3877,-4.2638,-4.19,-4.0541,-3.7648,-3.9006,-4.0051,-3.8889,-3.9433,-3.9726,-3.878,-3.7485,-3.5975,-3.4637,-3.3035,-3.176,-3.0655,-2.9989,-2.9679,-2.9368,-2.9523,-2.9197,-2.8104,-2.7148,-2.6413,-2.5417,-2.4723,-2.4175,-2.3948,-2.4198,-2.372,-2.2686,-2.3031,-2.2686,-2.1822,-2.1995,-2.1649,-2.0955,-2.0955,-2.0781,-2.0269,-2.0269,-2.0443,-2.0647,-2.1176,-2.177,-2.2321,-2.3054,-2.374,-2.4107,-2.4291,-2.4646,-2.5012,-2.4463,-2.4646,-2.5183,-2.6991,-2.6991,-2.6809,-2.9169,-2.9349,-2.8989,-2.9887,-3.0781,-3.1493,-3.204,-3.2586,-3.2778,-3.2778,-3.2778,-3.3293,-3.5177,-3.688,-3.875,-4.065,-4.2512,-4.3711,-4.3711,-4.3711,-4.3711,-4.3711,-4.3711,-4.3711,-4.3711,-4.3711,-4.3711,-4.3711,-4.3711,-4.3711,-4.3711,-4.3711,-4.3711,-4.3711,-4.3711,-4.4186,-4.5311,-4.4186,-4.4822,-4.6888,-4.4822,-4.4186,-4.5311,-4.4822,-4.435,-3.9521,-4.0996,-4.2818,-4.2381,-4.3252,-4.5055,-4.8434,-4.7709,-4.5927,-4.4792,-4.3081,-4.1113,-3.9313,-4.033,-4.0732,-3.914,-3.9721,-3.9983,-3.8771,-3.7837,-3.6552,-3.4657,-3.3224,-3.1872,-3.0655,-2.9989,-2.9523,-2.9523,-2.9679,-2.9197,-2.8403,-2.7619,-2.6675,-2.5422,-2.4674,-2.4128,-2.3797,-2.3982,-2.372,-2.2859,-2.3204,-2.2859,-2.1995,-2.2168,-2.1995,-2.1475,-2.1475,-2.1302,-2.0781,-2.0781,-2.0781,-2.0831,-2.1797,-2.2327,-2.2568,-2.3206,-2.374,-2.4107,-2.4291,-2.4646,-2.5195,-2.4657,-2.4829,-2.5548,-2.6821,-2.7184,-2.7546,-2.8822,-2.9362,-2.9707,-3.041,-3.0767,-3.1137,-3.2409,-3.2778,-3.2778,-3.2778,-3.2778,-3.3117,-3.4494,-3.6031,-3.7895,-3.9787,-4.1658,-4.3029,-4.3526,-4.3711,-4.3711,-4.3711,-4.3711,-4.3711,-4.3711,-4.3711,-4.3711,-4.3711,-4.3711,-4.3711,-4.3711,-4.3711,-4.3711,-4.3711,-4.3711,-4.4494,-4.6264,-4.5148,-4.5616,-4.7985,-4.6244,-4.5616,-4.6264,-4.5616,-4.5291,-4.0106,-4.0834,-4.2303,-4.394,-4.4033,-4.4501,-4.767,-4.6469,-4.464,-4.3791,-4.2427,-4.1391,-4.1252,-4.1025,-4.0358,-3.8307,-3.9376,-3.9418,-3.6043,-3.6143,-3.5475,-3.236,-3.1905,-3.1352,-3.0205,-2.9679,-2.9523,-2.9523,-2.9819,-2.9508,-2.8403,-2.7919,-2.6662,-2.4627,-2.4184,-2.3797,-2.3298,-2.3801,-2.3892,-2.3376,-2.3376,-2.2859,-2.1995,-2.2514,-2.2514,-2.1995,-2.1995,-2.1822,-2.1302,-2.1302,-2.1302,-2.1342,-2.2329,-2.2505,-2.2209,-2.3023,-2.374,-2.4086,-2.4635,-2.5377,-2.63,-2.5742,-2.5924,-2.6482,-2.7377,-2.8462,-2.9182,-2.9182,-2.9887,-3.0588,-3.0588,-3.0959,-3.1507,-3.2586,-3.2778,-3.2778,-3.2778,-3.2778,-3.2778,-3.2778,-3.4319,-3.6031,-3.7895,-3.9787,-4.1677,-4.3361,-4.3711,-4.3711,-4.3711,-4.3711,-4.3711,-4.3711,-4.3711,-4.3711,-4.3711,-4.3711,-4.3711,-4.3711,-4.3711,-4.3711,-4.3711,-4.3711,-4.4494,-4.6264,-4.6264,-4.6264,-4.6405,-4.7985,-4.7985,-4.6426,-4.7985,-4.8776,-4.1124,-4.3317,-4.5563,-4.4304,-4.5339,-4.6754,-4.6968,-4.5978,-4.4914,-4.393,-4.3956,-4.3321,-4.0619,-4.1725,-4.1876,-3.8495,-3.9376,-3.9826,-3.8,-3.8231,-3.7593,-3.4767,-3.425,-3.3182,-3.1152,-3.0266,-2.9989,-2.9989,-2.9834,-2.9679,-2.9508,-2.8559,-2.7462,-2.5885,-2.5151,-2.4128,-2.281,-2.3642,-2.372,-2.2859,-2.3204,-2.3031,-2.2514,-2.2686,-2.2686,-2.2514,-2.2514,-2.2168,-2.1822,-2.2168,-2.2341,-2.2383,-2.3743,-2.4108,-2.3996,-2.4652,-2.5012,-2.5195,-2.5377,-2.5742,-2.63,-2.5742,-2.5924,-2.63,-2.6652,-2.792,-2.9362,-2.9528,-3.0423,-3.1315,-3.204,-3.1685,-3.1507,-3.2586,-3.2778,-3.2778,-3.2778,-3.2778,-3.2778,-3.2778,-3.4319,-3.6031,-3.7895,-3.9787,-4.1677,-4.3361,-4.3711,-4.3711,-4.3711,-4.3711,-4.3711,-4.3711,-4.3711,-4.3711,-4.3711,-4.3711,-4.3711,-4.3711,-4.3711,-4.3711,-4.3711,-4.3711,-4.4494,-4.6264,-4.6264,-4.7528,-4.9875,-4.9091,-4.9091,-4.9719,-4.9091,-4.8776,-4.3248,-4.5374,-4.76,-4.624,-4.7033,-4.7813,-4.6822,-4.6025,-4.5324,-4.4503,-4.464,-4.3978,-4.1053,-4.1976,-4.2104,-3.9213,-3.9798,-3.9983,-3.8559,-3.8353,-3.7399,-3.5121,-3.4357,-3.3166,-3.0949,-3.0406,-2.9974,-2.9819,-2.9353,-2.9042,-2.8886,-2.7776,-2.6675,-2.5092,-2.4674,-2.3974,-2.281,-2.3472,-2.3548,-2.3204,-2.3376,-2.3376,-2.3204,-2.2859,-2.2859,-2.3031,-2.3031,-2.2859,-2.2514,-2.3031,-2.3204,-2.342,-2.4447,-2.4829,-2.4886,-2.5377,-2.556,-2.556,-2.556,-2.5924,-2.63,-2.5924,-2.6118,-2.6664,-2.6664,-2.792,-2.9528,-2.9528,-3.0781,-3.204,-3.2409,-3.2232,-3.204,-3.2586,-3.2778,-3.2778,-3.2778,-3.2778,-3.2778,-3.3117,-3.3983,-3.5352,-3.7397,-3.8614,-4.0144,-4.2531,-4.338,-4.3711,-4.3711,-4.3711,-4.3711,-4.3711,-4.3711,-4.3711,-4.3711,-4.3711,-4.3711,-4.3711,-4.3711,-4.3711,-4.3711,-4.3711,-4.4822,-4.7208,-4.7368,-4.8618,-5.1293,-5.0985,-5.0985,-5.1447,-5.0342,-5.0187,-4.5943,-4.7237,-4.8713,-4.8936,-4.856,-4.8041,-4.7245,-4.6429,-4.5754,-4.546,-4.4778,-4.3836,-4.2484,-4.2207,-4.1785,-4.0203,-4.0298,-4.0063,-3.8576,-3.7575,-3.6288,-3.4435,-3.3355,-3.2016,-3.0546,-3.0175,-3.002,-2.9523,-2.8886,-2.809,-2.7305,-2.6373,-2.5104,-2.352,-2.3387,-2.3476,-2.3298,-2.3461,-2.372,-2.4064,-2.372,-2.372,-2.4064,-2.3204,-2.3031,-2.3548,-2.3548,-2.3548,-2.3548,-2.3892,-2.4235,-2.4293,-2.4799,-2.4994,-2.5063,-2.5558,-2.5742,-2.5742,-2.5742,-2.5924,-2.63,-2.63,-2.6664,-2.7027,-2.7027,-2.8281,-2.9707,-2.9362,-3.0973,-3.2586,-3.2232,-3.2409,-3.2778,-3.2778,-3.294,-3.294,-3.294,-3.294,-3.294,-3.3293,-3.347,-3.4158,-3.641,-3.6757,-3.7946,-4.1192,-4.2863,-4.3711,-4.3711,-4.3711,-4.3711,-4.3711,-4.3711,-4.3711,-4.3711,-4.3711,-4.3711,-4.3711,-4.3711,-4.3711,-4.3711,-4.3711,-4.5128,-4.8302,-4.8618,-4.9562,-5.1139,-5.302,-5.3322,-5.219,-5.1754,-5.2541,-4.6954,-4.8221,-4.9447,-4.909,-4.8484,-4.7962,-4.7821,-4.6808,-4.589,-4.5754,-4.5483,-4.4914,-4.4044,-4.3716,-4.3068,-4.1936,-4.1549,-4.1113,-4.0063,-3.9512,-3.8716,-3.7192,-3.58,-3.4283,-3.2602,-3.1308,-3.0434,-3.0004,-2.9197,-2.8886,-2.89,-2.779,-2.6531,-2.5263,-2.4837,-2.4294,-2.3298,-2.3971,-2.4235,-2.4064,-2.4407,-2.4407,-2.4578,-2.372,-2.3548,-2.3892,-2.3892,-2.3892,-2.4064,-2.4407,-2.4578,-2.4625,-2.5488,-2.5866,-2.5937,-2.6461,-2.6664,-2.6664,-2.6664,-2.6845,-2.6845,-2.6845,-2.6845,-2.7027,-2.7027,-2.7752,-2.9002,-2.9528,-3.0602,-3.1863,-3.2409,-3.2763,-3.294,-3.3293,-3.3293,-3.3293,-3.3293,-3.3293,-3.3293,-3.294,-3.2955,-3.3631,-3.589,-3.6394,-3.7602,-4.1192,-4.2863,-4.3711,-4.3711,-4.3711,-4.3711,-4.3711,-4.3711,-4.3711,-4.3711,-4.3711,-4.3711,-4.3711,-4.3711,-4.3711,-4.3711,-4.3711,-4.4186,-4.5311,-4.7666,-4.9249,-5.0365,-5.2996,-5.4248,-5.4248,-5.3948,-5.4098,-4.823,-4.9445,-5.0578,-5.0059,-4.8985,-4.7977,-4.824,-4.7074,-4.6025,-4.6294,-4.5619,-4.4821,-4.4738,-4.4211,-4.3675,-4.2978,-4.2677,-4.237,-4.1598,-4.0006,-3.8632,-3.7586,-3.5678,-3.3792,-3.2455,-3.1339,-3.0639,-3.0144,-2.9042,-2.8417,-2.8588,-2.7633,-2.6531,-2.5422,-2.52,-2.4656,-2.3962,-2.4362,-2.4632,-2.4749,-2.4749,-2.4749,-2.4749,-2.4235,-2.4064,-2.4064,-2.4235,-2.4407,-2.4407,-2.4921,-2.5092,-2.5139,-2.5838,-2.6218,-2.6278,-2.6834,-2.7027,-2.7027,-2.7027,-2.7027,-2.7027,-2.7027,-2.7027,-2.7027,-2.7027,-2.7571,-2.8281,-2.9362,-3.0245,-3.1137,-3.2232,-3.2586,-3.294,-3.347,-3.347,-3.3646,-3.3822,-3.3646,-3.3646,-3.3822,-3.3646,-3.3998,-3.5558,-3.641,-3.7774,-4.0331,-4.1844,-4.3029,-4.3546,-4.3711,-4.3711,-4.3711,-4.3711,-4.3711,-4.3711,-4.3711,-4.3711,-4.3711,-4.3711,-4.3711,-4.3711,-4.4658,-4.5758,-4.6706,-4.9227,-5.1116,-5.2389,-5.3948,-5.4868,-5.5337,-5.4868,-5.4868,-4.9796,-5.1014,-5.1815,-5.1485,-4.9925,-4.8502,-4.8763,-4.7449,-4.6294,-4.6965,-4.5595,-4.4546,-4.527,-4.4683,-4.4133,-4.3976,-4.3778,-4.3421,-4.2677,-4.0182,-3.8217,-3.7257,-3.5158,-3.3133,-3.1888,-3.1273,-3.081,-3.0129,-2.8886,-2.7947,-2.7633,-2.7018,-2.6215,-2.5104,-2.5062,-2.4849,-2.4625,-2.4568,-2.4842,-2.5433,-2.5092,-2.4749,-2.4749,-2.4749,-2.4578,-2.4407,-2.4749,-2.4749,-2.4921,-2.5263,-2.5433,-2.5494,-2.6013,-2.6218,-2.6278,-2.6834,-2.7027,-2.7027,-2.7027,-2.7027,-2.7208,-2.7208,-2.739,-2.739,-2.739,-2.7377,-2.792,-2.9002,-2.9887,-3.0602,-3.1863,-3.2409,-3.294,-3.347,-3.347,-3.3646,-3.4174,-3.3998,-3.3998,-3.47,-3.4525,-3.4525,-3.5399,-3.66,-3.8135,-3.9466,-4.0837,-4.2197,-4.3526,-4.3711,-4.3711,-4.3711,-4.3711,-4.3711,-4.3711,-4.3711,-4.3711,-4.3876,-4.3876,-4.3876,-4.3876,-4.6244,-4.8122,-4.9518,-5.1578,-5.3299,-5.4719,-5.5041,-5.5337,-5.5632,-5.5337,-5.5337,-5.1745,-5.265,-5.3281,-5.2956,-5.1471,-5.0206,-5.0334,-4.8787,-4.7364,-4.7364,-4.6294,-4.5645,-4.6866,-4.6229,-4.5423,-4.5614,-4.4762,-4.3898,-4.3004,-4.1559,-4.0125,-3.8709,-3.7185,-3.5401,-3.3145,-3.2577,-3.1697,-3.0159,-2.9819,-2.9197,-2.7633,-2.7947,-2.7148,-2.5104,-2.5693,-2.5489,-2.4625,-2.4735,-2.5011,-2.5433,-2.5263,-2.5263,-2.5263,-2.5263,-2.5263,-2.5263,-2.5263,-2.5263,-2.5263,-2.5433,-2.5433,-2.5494,-2.6013,-2.6218,-2.6278,-2.6834,-2.7027,-2.7027,-2.7027,-2.7571,-2.8294,-2.8294,-2.8822,-2.9349,-2.8474,-2.8101,-2.7908,-2.9349,-2.9528,-2.99,-3.2054,-3.2778,-3.294,-3.347,-3.347,-3.3646,-3.4174,-3.4525,-3.47,-3.4349,-3.4525,-3.4875,-3.505,-3.6427,-3.8135,-3.9466,-4.0837,-4.2197,-4.3526,-4.3711,-4.3711,-4.3711,-4.3711,-4.3711,-4.3711,-4.3711,-4.3876,-4.4205,-4.437,-4.4534,-4.4882,-4.8302,-5.0164,-5.0475,-5.1731,-5.2973,-5.39,-5.4992,-5.5779,-5.6072,-5.5779,-5.5779,-5.1839,-5.3076,-5.3872,-5.3078,-5.1846,-5.0842,-5.0867,-4.954,-4.824,-4.8133,-4.7447,-4.7017,-4.7073,-4.6678,-4.6382,-4.6233,-4.5679,-4.4955,-4.405,-4.2169,-4.0393,-3.9127,-3.7338,-3.5498,-3.4022,-3.3042,-3.2155,-3.1225,-3.0438,-2.9664,-2.8744,-2.8886,-2.7947,-2.5898,-2.6334,-2.5905,-2.4407,-2.4673,-2.5023,-2.5433,-2.5433,-2.5433,-2.5433,-2.5433,-2.5433,-2.5433,-2.5433,-2.5433,-2.5433,-2.5433,-2.5433,-2.5482,-2.5856,-2.6085,-2.6266,-2.6665,-2.7267,-2.7752,-2.7752,-2.8474,-2.9362,-2.9362,-2.9528,-2.9887,-2.9362,-2.9002,-2.8822,-3.0245,-3.0602,-3.0767,-3.2409,-3.2955,-3.3117,-3.3117,-3.3293,-3.347,-3.3822,-3.3998,-3.3998,-3.3822,-3.4174,-3.4525,-3.4525,-3.5209,-3.6584,-3.8767,-3.9805,-4.0987,-4.3361,-4.3711,-4.3711,-4.3711,-4.3711,-4.3711,-4.3711,-4.3711,-4.433,-4.5616,-4.5779,-4.6405,-4.7666,-5.0475,-5.2014,-5.2014,-5.3726,-5.4819,-5.5115,-5.5607,-5.6072,-5.6219,-5.6072,-5.6072,-5.2133,-5.3074,-5.3647,-5.3253,-5.2218,-5.1399,-5.1901,-5.0787,-4.9515,-4.9023,-4.8582,-4.8074,-4.704,-4.6866,-4.6859,-4.6366,-4.5852,-4.5335,-4.4614,-4.2351,-4.0459,-3.9237,-3.7425,-3.5736,-3.4441,-3.3585,-3.2856,-3.2146,-3.1304,-3.0376,-2.9523,-2.9679,-2.8744,-2.6228,-2.6833,-2.6188,-2.4226,-2.4894,-2.5298,-2.5433,-2.6103,-2.6103,-2.5433,-2.6103,-2.6103,-2.5433,-2.5433,-2.5604,-2.5775,-2.5433,-2.5604,-2.5799,-2.5723,-2.5989,-2.6254,-2.671,-2.7696,-2.8474,-2.8835,-2.9541,-3.0245,-3.0245,-3.0423,-3.0781,-3.0602,-3.0066,-3.0066,-3.1137,-3.1301,-3.1301,-3.2586,-3.3117,-3.3293,-3.294,-3.3132,-3.347,-3.3646,-3.3646,-3.3646,-3.3646,-3.3998,-3.4174,-3.4174,-3.4174,-3.5193,-3.774,-3.8597,-3.9957,-4.2678,-4.3361,-4.3711,-4.3711,-4.3711,-4.3711,-4.3711,-4.3876,-4.4822,-4.6867,-4.7027,-4.8143,-5.0164,-5.2166,-5.3251,-5.3251,-5.5115,-5.6219,-5.6219,-5.6219,-5.6219,-5.6219,-5.6219,-5.6219,-5.3476,-5.2793,-5.2585,-5.407,-5.3051,-5.2108,-5.4058,-5.2902,-5.122,-5.0206,-4.9177,-4.8158,-4.7146,-4.7162,-4.7003,-4.5894,-4.508,-4.438,-4.3653,-4.229,-4.0753,-3.8922,-3.784,-3.649,-3.4591,-3.428,-3.389,-3.2621,-3.2455,-3.1557,-2.9664,-3.0299,-2.9212,-2.5898,-2.6977,-2.6493,-2.4226,-2.6071,-2.6491,-2.5433,-2.811,-2.7941,-2.5433,-2.811,-2.7772,-2.5433,-2.5433,-2.5945,-2.6626,-2.5775,-2.5945,-2.6651,-2.6068,-2.5989,-2.6431,-2.7573,-2.822,-2.8655,-2.9528,-3.0423,-3.1137,-3.1137,-3.2218,-3.3117,-3.2203,-3.1479,-3.1287,-3.1834,-3.1301,-3.0945,-3.2409,-3.2763,-3.2778,-3.2778,-3.2763,-3.3117,-3.3998,-3.4174,-3.4174,-3.4174,-3.4174,-3.4174,-3.4174,-3.4174,-3.4684,-3.6047,-3.774,-3.9448,-4.0987,-4.2678,-4.3711,-4.3711,-4.3711,-4.3711,-4.3711,-4.4041,-4.5311,-4.7368,-4.7847,-4.9113,-5.1139,-5.2821,-5.3726,-5.3726,-5.5287,-5.6219,-5.6219,-5.6219,-5.6219,-5.6219,-5.6219,-5.6219,-5.4943,-5.4577,-5.4522,-5.4422,-5.4004,-5.3689,-5.3584,-5.3481,-5.3087,-5.1367,-5.0486,-4.9576,-4.8182,-4.74,-4.682,-4.6403,-4.5811,-4.5158,-4.487,-4.3401,-4.1895,-4.0545,-3.918,-3.754,-3.579,-3.5131,-3.426,-3.3061,-3.272,-3.2122,-3.0763,-3.1087,-3.0144,-2.779,-2.8246,-2.7396,-2.5313,-2.6816,-2.6978,-2.5933,-2.8278,-2.8278,-2.5933,-2.8446,-2.8446,-2.677,-2.7604,-2.7786,-2.7279,-2.7786,-2.8278,-2.846,-2.823,-2.8286,-2.8579,-2.9393,-3.0216,-3.1035,-3.1586,-3.238,-3.3102,-3.3102,-3.3293,-3.347,-3.3102,-3.2572,-3.2218,-3.2409,-3.2572,-3.2572,-3.2763,-3.294,-3.3117,-3.294,-3.2778,-3.294,-3.3293,-3.347,-3.3822,-3.3822,-3.3822,-3.3822,-3.3822,-3.347,-3.4319,-3.7052,-3.8066,-3.943,-4.2345,-4.3361,-4.3711,-4.3711,-4.3711,-4.3711,-4.3711,-4.4205,-4.5779,-4.8912,-4.954,-5.1116,-5.4348,-5.4967,-5.5287,-5.5287,-5.5901,-5.6219,-5.6219,-5.6219,-5.6219,-5.6219,-5.6219,-5.6219,-5.5783,-5.5336,-5.5128,-5.4931,-5.45,-5.4185,-5.4093,-5.4203,-5.3971,-5.2375,-5.1758,-5.0998,-4.959,-4.8269,-4.7082,-4.6561,-4.585,-4.5355,-4.5214,-4.3651,-4.2291,-4.171,-4.0065,-3.8322,-3.6719,-3.6062,-3.497,-3.3534,-3.3178,-3.2736,-3.1993,-3.1686,-3.0763,-2.9197,-2.8573,-2.7769,-2.6751,-2.7893,-2.8194,-2.7266,-2.9621,-2.9621,-2.7266,-2.9788,-2.9788,-2.8278,-3.0122,-2.9955,-2.8615,-2.9286,-2.9621,-2.9955,-2.9621,-2.9649,-2.9957,-3.0496,-3.1339,-3.2266,-3.2661,-3.3365,-3.4174,-3.3822,-3.3646,-3.3646,-3.347,-3.3293,-3.294,-3.294,-3.3117,-3.3117,-3.2955,-3.294,-3.3117,-3.294,-3.2778,-3.2763,-3.294,-3.3293,-3.347,-3.347,-3.3646,-3.3646,-3.3646,-3.347,-3.4158,-3.6551,-3.7724,-3.926,-4.1825,-4.301,-4.3711,-4.3711,-4.3711,-4.3711,-4.3711,-4.4205,-4.6103,-4.983,-5.0475,-5.2494,-5.6047,-5.6219,-5.6219,-5.6219,-5.6219,-5.6219,-5.6219,-5.6219,-5.6219,-5.6219,-5.6219,-5.6219,0.0,0.0,0.0,-5.5686,-5.4507,-5.3511,-5.5862,-5.5118,-5.378,-5.3212,-5.2807,-5.2315,-5.1294,-4.9643,-4.7977,-4.6271,-4.5347,-4.4663,-4.4228,-4.2979,-4.2046,-4.2204,-4.0797,-3.9328,-3.769,-3.7136,-3.5976,-3.404,-3.3856,-3.36,-3.3213,-3.2452,-3.1209,-2.9649,-2.7933,-2.7596,-2.8515,-2.95,-2.9818,-2.9621,-3.2144,-3.2128,-2.9621,-3.2309,-3.2128,-2.9788,-3.2309,-3.2474,-3.0788,-2.9955,-3.0122,-3.0788,-2.9955,-2.9818,-3.0085,-3.0933,-3.1666,-3.2381,-3.2773,-3.3535,-3.3983,-3.3117,-3.347,-3.4174,-3.3646,-3.347,-3.347,-3.347,-3.3117,-3.2778,-3.2763,-3.2778,-3.2778,-3.2763,-3.2763,-3.2955,-3.347,-3.347,-3.347,-3.347,-3.3822,-3.4174,-3.4174,-3.4174,-3.4174,-3.4349,-3.6896,-3.8938,-3.8938,-4.1658,-4.3711,-4.3711,-4.3711,-4.3711,-4.3711,-4.4534,-4.6447,-4.9853,-5.0807,-5.2821,-5.6047,-5.6219,-5.6219,-5.6219,-5.6219,-5.6219,-5.6219,-5.6219,-5.6219,-5.6219,-5.6219,-5.6219,-5.7895,0.0,0.0,0.0,0.0,0.0,-5.5206,-5.5591,-5.5672,-5.4571,-5.4138,-5.3604,-5.2315,-5.0537,-4.8868,-4.7977,-4.654,-4.5483,-4.5074,-4.4526,-4.3713,-4.3064,-4.2246,-4.1068,-3.8883,-3.7803,-3.6751,-3.5192,-3.4225,-3.3635,-3.3213,-3.2452,-3.1533,-3.0469,-2.9989,-2.968,-2.9514,-3.0641,-3.0809,-2.9955,-3.2309,-3.2309,-2.9955,-3.2474,-3.2639,-3.0969,-3.2819,-3.3148,-3.2803,-3.2474,-3.2474,-3.2803,-3.2474,-3.237,-3.2478,-3.2738,-3.3106,-3.3506,-3.3487,-3.3889,-3.4185,-3.3922,-3.3822,-3.3646,-3.347,-3.3293,-3.294,-3.294,-3.2955,-3.2955,-3.3293,-3.3117,-3.294,-3.3293,-3.3293,-3.3293,-3.347,-3.3998,-3.4525,-3.4525,-3.4349,-3.4349,-3.47,-3.4174,-3.4158,-3.589,-3.7757,-3.9448,-4.0837,-4.2531,-4.3711,-4.3711,-4.3711,-4.3711,-4.3711,-4.4534,-4.6447,-4.9853,-5.0807,-5.2821,-5.6047,-5.6219,-5.6219,-5.6219,-5.6219,-5.6219,-5.6219,-5.6219,-5.6219,-5.6219,-5.6219,-5.6219,-5.9369,-5.8427,-5.7345,-5.7005,0.0,0.0,-5.6088,-5.6352,-5.6419,-5.5776,-5.5282,-5.4814,-5.3752,-5.2269,-5.0753,-4.9568,-4.7953,-4.6674,-4.589,-4.5347,-4.4774,-4.4036,-4.3386,-4.2168,-4.0156,-3.8822,-3.7366,-3.6044,-3.4819,-3.3686,-3.3061,-3.2452,-3.184,-3.1087,-3.0948,-3.0793,-3.0801,-3.1456,-3.1634,-3.1467,-3.2819,-3.2819,-3.1632,-3.2819,-3.3148,-3.2324,-3.3148,-3.3492,-3.3492,-3.3492,-3.3492,-3.3492,-3.3492,-3.3492,-3.3508,-3.3384,-3.3723,-3.3897,-3.363,-3.3847,-3.4361,-3.3838,-3.3611,-3.3466,-3.3249,-3.2955,-3.2778,-3.2778,-3.294,-3.3117,-3.3646,-3.3646,-3.347,-3.3646,-3.3822,-3.3822,-3.3998,-3.4525,-3.4875,-3.4875,-3.4875,-3.4875,-3.505,-3.47,-3.4875,-3.608,-3.743,-3.8785,-3.9823,-4.1173,-4.2178,-4.2863,-4.3029,-4.3672,-4.4965,-4.5799,-4.7688,-5.1071,-5.1884,-5.3425,-5.6047,-5.6219,-5.6219,-5.6219,-5.6219,-5.6219,-5.6219,-5.6219,-5.6219,-5.6219,-5.6219,-5.6219,-6.0876,-6.0238,-5.9482,-5.8841,-5.854,0.0,-5.77,-5.7246,-5.6889,-5.6835,-5.6623,-5.6369,-5.545,-5.4425,-5.3021,-5.1047,-4.9494,-4.8093,-4.665,-4.5866,-4.5416,-4.5266,-4.4228,-4.3089,-4.1585,-3.9932,-3.821,-3.6503,-3.5234,-3.4026,-3.2757,-3.274,-3.2452,-3.1549,-3.1087,-3.1573,-3.257,-3.2269,-3.2616,-3.364,-3.364,-3.3656,-3.3656,-3.3656,-3.3656,-3.3656,-3.3656,-3.3656,-3.3656,-3.3656,-3.3476,-3.3492,-3.3492,-3.3492,-3.3476,-3.3492,-3.3683,-3.3953,-3.3333,-3.3688,-3.417,-3.3315,-3.3278,-3.3542,-3.2969,-3.2911,-3.294,-3.294,-3.3293,-3.3646,-3.4174,-3.4174,-3.4174,-3.4349,-3.4349,-3.4349,-3.4875,-3.4875,-3.505,-3.505,-3.5225,-3.5573,-3.5573,-3.5573,-3.5573,-3.5573,-3.6773,-3.7619,-3.7619,-3.8802,-4.0144,-4.1528,-4.2011,-4.3468,-4.6545,-4.7688,-4.9562,-5.2949,-5.3425,-5.4497,-5.6072,-5.6219,-5.6219,-5.6219,-5.6219,-5.6219,-5.6219,-5.6219,-5.6219,-5.6219,-5.6219,-5.6219,-6.3294,-6.2221,-6.1219,-6.0936,-6.046,0.0,-5.8319,-5.8805,-5.9323,-5.806,-5.865,-5.8968,-5.7258,-5.5689,-5.4157,-5.2771,-5.0564,-4.846,-4.6665,-4.6563,-4.6669,-4.642,-4.5684,-4.4705,-4.3507,-4.1441,-3.929,-3.7258,-3.6012,-3.4644,-3.3196,-3.3954,-3.3651,-3.1993,-3.2146,-3.2642,-3.3378,-3.3395,-3.3754,-3.4621,-3.4621,-3.4294,-3.3968,-3.3968,-3.3968,-3.3968,-3.3968,-3.3968,-3.3968,-3.3968,-3.3804,-3.3492,-3.3492,-3.3492,-3.3476,-3.3148,-3.3195,-3.3454,-3.289,-3.3029,-3.3489,-3.3136,-3.3254,-3.367,-3.3558,-3.3595,-3.3998,-3.3998,-3.3998,-3.4174,-3.47,-3.4525,-3.4349,-3.47,-3.47,-3.4875,-3.4875,-3.5225,-3.5399,-3.5399,-3.5225,-3.5225,-3.5573,-3.5225,-3.5225,-3.5573,-3.6773,-3.7619,-3.7619,-3.8802,-4.0144,-4.1528,-4.2011,-4.3468,-4.6545,-4.7688,-4.9562,-5.2949,-5.3425,-5.4497,-5.6072,-5.6219,-5.6219,-5.6219,-5.6219,-5.6219,-5.6219,-5.6219,-5.6219,-5.6219,-5.6219,-5.6219,-6.4588,-6.3587,-6.2705,-6.2709,-6.2269,0.0,0.0,-6.0951,-6.0898,-6.0108,-6.0184,-6.0071,-5.9094,-5.7586,-5.6102,-5.4756,-5.2687,-5.075,-4.9669,-4.8256,-4.7116,-4.6658,-4.5726,-4.4826,-4.4084,-4.1764,-3.9551,-3.7278,-3.6757,-3.5736,-3.3954,-3.4556,-3.4255,-3.2604,-3.2588,-3.2951,-3.3694,-3.371,-3.3914,-3.4458,-3.5092,-3.5254,-3.4767,-3.4929,-3.5075,-3.5075,-3.4621,-3.4458,-3.4458,-3.4458,-3.4131,-3.3804,-3.364,-3.3492,-3.3476,-3.3312,-3.3328,-3.3508,-3.3171,-3.3234,-3.3312,-3.3305,-3.3476,-3.3769,-3.3594,-3.3899,-3.4174,-3.4525,-3.4525,-3.47,-3.505,-3.505,-3.4875,-3.5225,-3.5225,-3.5225,-3.5225,-3.5225,-3.5399,-3.5573,-3.5225,-3.505,-3.5573,-3.5225,-3.505,-3.5573,-3.5906,-3.6427,-3.66,-3.7102,-3.846,-4.05,-4.1788,-4.4211,-4.81,-4.9875,-5.1754,-5.4497,-5.4819,-5.5287,-5.6219,-5.6219,-5.6219,-5.6219,-5.6219,-5.6219,-5.6219,-5.6219,-5.6219,-5.6219,-5.6219,-5.6219,-6.5804,-6.5199,-6.4747,-6.4841,-6.4587,-6.4197,0.0,0.0,0.0,-6.2429,-6.1951,-6.1468,-6.1205,-5.9891,-5.8345,-5.7047,-5.4983,-5.3503,-5.3079,-5.0359,-4.8231,-4.7805,-4.6265,-4.5057,-4.4892,-4.2397,-3.984,-3.7596,-3.783,-3.7345,-3.5271,-3.5718,-3.5288,-3.3634,-3.3483,-3.3703,-3.4025,-3.434,-3.4534,-3.4929,-3.6046,-3.6351,-3.6029,-3.6351,-3.6511,-3.6511,-3.574,-3.5578,-3.5578,-3.5578,-3.5254,-3.4604,-3.3968,-3.3656,-3.3492,-3.3492,-3.3492,-3.3492,-3.3492,-3.3492,-3.3524,-3.3312,-3.3793,-3.4308,-3.4627,-3.4926,-3.5114,-3.5367,-3.5558,-3.5732,-3.5573,-3.5748,-3.5922,-3.5573,-3.5573,-3.5573,-3.5573,-3.5225,-3.5225,-3.5573,-3.5225,-3.5225,-3.5573,-3.5225,-3.5225,-3.5573,-3.5225,-3.5225,-3.5573,-3.5573,-3.66,-3.9125,-4.1546,-4.4764,-4.9339,-5.1884,-5.4074,-5.6072,-5.6219,-5.6219,-5.6219,-5.6219,-5.6219,-5.6219,-5.6219,-5.6219,-5.6219,-5.6219,-5.6219,-5.6219,-5.6219,-5.6219,-6.8327,-6.8239,-6.8296,-6.8256,-6.8312,-6.7789,-6.5732,0.0,-6.6335,-6.5032,0.0,-6.4912,-6.3974,0.0,0.0,-5.952,-5.6852,-5.4849,-5.4391,-5.2936,-5.2026,-5.2339,-4.8792,-4.6747,-4.7925,-4.4474,-4.1594,-4.0043,-4.0535,-4.0044,-3.8166,-3.9076,-3.835,-3.5402,-3.6294,-3.6116,-3.481,-3.6195,-3.7192,-3.7649,-3.8444,-3.8603,-3.8286,-3.8286,-3.8286,-3.8286,-3.8286,-3.8127,-3.8127,-3.8127,-3.7631,-3.6672,-3.4767,-3.3804,-3.3492,-3.3492,-3.3492,-3.3492,-3.3492,-3.3492,-3.3492,-3.3524,-3.4423,-3.6041,-3.8234,-3.8676,-3.8368,-3.7535,-3.8118,-3.8443,-3.6253,-3.6427,-3.7119,-3.5922,-3.5573,-3.5573,-3.5573,-3.5573,-3.5573,-3.5573,-3.5573,-3.5573,-3.5573,-3.5573,-3.5573,-3.5573,-3.5573,-3.5573,-3.5573,-3.5573,-3.6253,-3.8289,-4.1342,-4.4886,-4.8466,-5.1815,-5.4348,-5.6047,-5.6219,-5.6219,-5.6219,-5.6219,-5.6219,-5.6219,-5.6219,-5.6219,-5.6219,-5.6219,-5.6219,-5.6219,-5.6219,-5.6219,-6.8156,-6.7997,-6.8189,-6.9163,-6.8613,-6.7869,-6.7952,-6.7916,-6.7726,-6.7342,0.0,0.0,0.0,0.0,0.0,0.0,-5.9926,-5.8162,-5.7838,-5.5409,-5.3482,-5.2674,-5.0149,-4.8455,-4.8367,-4.6233,-4.4255,-4.274,-4.243,-4.1368,-3.9241,-3.9838,-3.953,-3.762,-3.762,-3.7594,-3.7393,-3.7852,-3.826,-3.8743,-3.9845,-4.0021,-3.9688,-4.0002,-3.9864,-3.9707,-3.9235,-3.8761,-3.8603,-3.8603,-3.8286,-3.7631,-3.6672,-3.5561,-3.4604,-3.4604,-3.4115,-3.364,-3.4278,-3.4115,-3.3704,-3.4932,-3.6305,-3.7752,-3.9183,-3.9529,-3.9254,-3.892,-3.8972,-3.8972,-3.7791,-3.7447,-3.7102,-3.6427,-3.5906,-3.5573,-3.5573,-3.5399,-3.5225,-3.5573,-3.5399,-3.5225,-3.5573,-3.5399,-3.5225,-3.5573,-3.5399,-3.5225,-3.5573,-3.5573,-3.6253,-3.8118,-4.0877,-4.4255,-4.8308,-5.1355,-5.39,-5.6047,-5.6219,-5.6219,-5.6219,-5.6219,-5.6219,-5.6219,-5.6219,-5.6219,-5.6219,-5.6219,-5.6219,-5.6219,-5.6219,-5.6219,-6.8082,-6.8024,-6.8371,-6.9596,-6.8749,-6.7961,-6.9196,-6.8819,-6.8318,-6.8599,-6.8045,0.0,0.0,0.0,-6.4853,-6.413,0.0,-6.0943,-6.0635,-5.8067,-5.5628,-5.4185,-5.224,-5.0261,-4.8756,-4.7568,-4.6323,-4.493,-4.4029,-4.2688,-4.0983,-4.1004,-4.0555,-3.9405,-3.9241,-3.9073,-3.9201,-3.9353,-3.9625,-3.9983,-4.1094,-4.1424,-4.1268,-4.1424,-4.1424,-4.1133,-4.0509,-4.0021,-3.9864,-3.9707,-3.9531,-3.9216,-3.9059,-3.8109,-3.6654,-3.619,-3.5399,-3.4588,-3.5544,-3.5399,-3.4882,-3.6919,-3.8247,-3.914,-4.0396,-4.0746,-4.0523,-4.0295,-4.0162,-4.0162,-3.9331,-3.8648,-3.8118,-3.7774,-3.7102,-3.6757,-3.6757,-3.608,-3.5732,-3.608,-3.5573,-3.5225,-3.5573,-3.5399,-3.5225,-3.5573,-3.5573,-3.5732,-3.608,-3.6427,-3.7275,-3.8631,-4.123,-4.4458,-4.8308,-5.1048,-5.375,-5.6047,-5.6219,-5.6219,-5.6219,-5.6219,-5.6219,-5.6219,-5.6219,-5.6219,-5.6219,-5.6219,-5.6219,-5.6219,-5.6219,-5.6219,-6.8935,-6.9573,-7.014,-7.0165,-6.9694,-6.9128,-6.873,-6.8357,-6.8189,-6.8455,-6.8225,-6.7866,-6.7485,-6.6538,-6.5721,-6.5234,-6.3556,0.0,0.0,-6.0732,-5.9621,-5.901,-5.596,-5.2656,-4.9505,-4.8252,-4.7203,-4.5859,-4.492,-4.4414,-4.4068,-4.3441,-4.2159,-4.0269,-4.1289,-4.0987,-3.9201,-4.0744,-4.1785,-4.2196,-4.2697,-4.2851,-4.2851,-4.2851,-4.2851,-4.2851,-4.2851,-4.2851,-4.2851,-4.237,-4.2216,-4.2216,-4.1773,-4.1113,-4.0139,-3.7932,-3.7135,-3.7135,-3.7295,-3.7135,-3.7597,-3.97,-4.0204,-4.0272,-4.2828,-4.3254,-4.2857,-4.1917,-4.2531,-4.3029,-4.0331,-4.0668,-4.1192,-3.9805,-3.9466,-3.9466,-3.9466,-3.846,-3.7464,-3.7447,-3.6427,-3.5573,-3.5573,-3.5573,-3.5573,-3.5573,-3.6773,-3.7464,-3.7447,-3.8631,-3.9635,-4.0162,-4.2895,-4.5776,-4.8308,-5.1332,-5.4025,-5.6047,-5.6219,-5.6219,-5.6219,-5.6219,-5.6219,-5.6219,-5.6219,-5.6219,-5.6219,-5.6219,-5.6219,-5.6219,-5.6219,-5.6219,-6.6069,-6.5851,-6.5674,-6.7642,-6.6967,-6.6219,-6.7832,-6.7713,-6.7606,-6.8888,-6.8183,-6.7656,-6.8722,-6.793,-6.6843,-6.6102,-6.5253,-6.4404,0.0,-6.2708,-6.1592,-6.0502,-5.83,-5.6013,-5.3884,-5.2992,-5.2063,-5.0542,-4.9569,-4.8367,-4.704,-4.6665,-4.5885,-4.4413,-4.3492,-4.3111,-4.3024,-4.2375,-4.2405,-4.3136,-4.331,-4.3462,-4.3462,-4.3462,-4.331,-4.3004,-4.3004,-4.2851,-4.2524,-4.2524,-4.237,-4.237,-4.2216,-4.1907,-4.1113,-3.9531,-3.8426,-3.7614,-3.7454,-3.8426,-4.0016,-4.0366,-4.1019,-4.174,-4.3234,-4.3448,-4.3041,-4.2678,-4.255,-4.2197,-4.1714,-4.1192,-4.0855,-4.0668,-3.9974,-3.9635,-3.9635,-3.9296,-3.8631,-3.7791,-3.7791,-3.7447,-3.5922,-3.6773,-3.7447,-3.6584,-3.7619,-3.8477,-3.8477,-3.899,-3.9483,-4.0162,-4.1974,-4.4702,-4.8308,-5.2575,-5.5435,-5.6219,-5.6219,-5.6219,-5.6219,-5.6219,-5.6219,-5.6219,-5.6219,-5.6219,-5.6219,-5.6219,-5.6219,-5.6219,-5.6219,-5.6219,-6.3864,-6.3265,-6.2693,-6.4663,-6.3894,-6.3238,-6.5413,-6.568,-6.5878,-6.7265,-6.673,-6.6167,-6.6804,-6.6516,-6.5985,-6.5312,-6.5366,-6.5234,0.0,-6.3992,-6.3186,-6.1849,-6.0097,-5.8339,-5.6793,-5.5166,-5.3669,-5.2217,-5.1134,-4.997,-4.8422,-4.8361,-4.7831,-4.6931,-4.5368,-4.4841,-4.5534,-4.4451,-4.4203,-4.4976,-4.4849,-4.4784,-4.4784,-4.4784,-4.4633,-4.4482,-4.4482,-4.4029,-4.3442,-4.3269,-4.3116,-4.283,-4.2984,-4.283,-4.239,-4.1268,-4.0178,-3.9216,-3.8901,-3.9726,-4.1152,-4.117,-4.1779,-4.2578,-4.3437,-4.3546,-4.3322,-4.3031,-4.2652,-4.2474,-4.2353,-4.199,-4.1695,-4.1844,-4.1491,-4.0987,-4.0987,-4.065,-4.0162,-3.916,-3.9143,-3.8802,-3.7275,-3.8648,-3.9331,-3.7447,-3.8819,-4.001,-4.001,-4.05,-4.1005,-4.1509,-4.2345,-4.4742,-4.8824,-5.3528,-5.6219,-5.6219,-5.6219,-5.6219,-5.6219,-5.6219,-5.6219,-5.6219,-5.6219,-5.6219,-5.6219,-5.6219,-5.6219,-5.6219,-5.6219,-5.6219]},{"header":{"parameterUnit":"m.s-1","parameterCategory":1,"la1":30.6,"la2":29.2853,"lo1":-89.7004,"lo2":-87.6739,"dy":0.0162,"dx":0.0183,"nx":112,"ny":82,"refTime":"2023-04-09T12:00:00:Z","depth":0,"parameterNumber":3,"parameterNumberName":"V-component_of_WINDS"},"data":[0.0,0.0,0.0,0.0,0.0,0.0,0.0,0.0,0.0,0.0,0.0,0.0,0.0,0.0,0.0,0.0,0.0,0.0,0.0,0.0,0.0,0.0,0.0,0.0,0.0,0.0,0.0,0.0,0.0,0.0,0.0,0.0,0.0,0.0,0.0,0.0,0.0,0.0,0.0,0.0,0.0,0.0,0.0,0.0,0.0,0.0,0.0,0.0,0.0,0.0,0.0,0.0,0.0,0.0,0.0,0.0,0.0,0.0,0.0,0.0,0.0,0.0,0.0,0.0,0.0,0.0,0.0,0.0,0.0,0.0,0.0,0.0,0.0,0.0,0.0,0.0,0.0,0.0,0.0,0.0,0.0,0.0,0.0,0.0,0.0,0.0,0.0,0.0,0.0,0.0,5.5472,5.5486,5.6034,5.6304,5.5879,5.6335,5.6686,5.6686,0.0,0.0,0.0,0.0,0.0,0.0,0.0,0.0,0.0,0.0,0.0,0.0,0.0,0.0,0.0,0.0,0.0,0.0,0.0,0.0,0.0,0.0,0.0,0.0,0.0,0.0,0.0,0.0,0.0,0.0,0.0,0.0,0.0,0.0,0.0,0.0,0.0,0.0,0.0,0.0,0.0,0.0,0.0,0.0,0.0,0.0,0.0,0.0,0.0,0.0,0.0,0.0,0.0,0.0,0.0,0.0,0.0,0.0,0.0,0.0,0.0,0.0,0.0,0.0,0.0,0.0,0.0,0.0,0.0,0.0,0.0,0.0,0.0,0.0,0.0,0.0,0.0,0.0,0.0,0.0,0.0,0.0,0.0,0.0,0.0,0.0,0.0,0.0,0.0,0.0,0.0,0.0,0.0,0.0,0.0,0.0,0.0,0.0,0.0,0.0,0.0,0.0,0.0,0.0,5.5815,5.6042,5.6232,5.6208,5.6119,5.6214,5.6278,5.6278,0.0,0.0,0.0,0.0,0.0,0.0,0.0,0.0,0.0,0.0,0.0,0.0,0.0,0.0,0.0,0.0,0.0,0.0,0.0,0.0,0.0,0.0,0.0,0.0,0.0,0.0,0.0,0.0,0.0,0.0,0.0,0.0,0.0,0.0,0.0,0.0,0.0,0.0,0.0,0.0,0.0,0.0,0.0,0.0,0.0,0.0,0.0,0.0,0.0,0.0,0.0,0.0,0.0,0.0,0.0,0.0,0.0,0.0,0.0,0.0,0.0,0.0,0.0,0.0,0.0,0.0,0.0,0.0,0.0,0.0,0.0,0.0,0.0,0.0,0.0,0.0,0.0,0.0,0.0,0.0,0.0,0.0,0.0,0.0,0.0,0.0,0.0,0.0,0.0,0.0,0.0,0.0,0.0,0.0,0.0,0.0,0.0,0.0,0.0,0.0,0.0,0.0,0.0,5.6121,5.6074,5.6157,5.6536,5.6757,5.6757,5.7105,5.7326,5.7326,5.6842,0.0,0.0,0.0,0.0,0.0,0.0,0.0,0.0,0.0,0.0,0.0,0.0,0.0,0.0,0.0,0.0,0.0,0.0,0.0,0.0,0.0,0.0,0.0,0.0,0.0,0.0,0.0,0.0,0.0,0.0,0.0,0.0,0.0,0.0,0.0,0.0,0.0,0.0,0.0,0.0,0.0,0.0,0.0,0.0,0.0,0.0,0.0,0.0,0.0,0.0,0.0,0.0,0.0,0.0,0.0,0.0,0.0,0.0,0.0,0.0,0.0,0.0,0.0,0.0,0.0,0.0,0.0,0.0,0.0,0.0,0.0,0.0,0.0,0.0,0.0,0.0,0.0,0.0,0.0,0.0,0.0,0.0,0.0,0.0,0.0,0.0,0.0,0.0,0.0,0.0,0.0,0.0,0.0,0.0,0.0,0.0,0.0,0.0,0.0,0.0,0.0,0.0,5.6568,5.6694,5.6694,5.7137,5.7484,5.7484,5.7958,5.8274,5.8274,5.7769,0.0,0.0,0.0,0.0,0.0,0.0,0.0,0.0,0.0,0.0,0.0,0.0,0.0,0.0,0.0,0.0,0.0,0.0,0.0,0.0,0.0,0.0,0.0,0.0,0.0,0.0,0.0,0.0,0.0,0.0,0.0,0.0,0.0,0.0,0.0,0.0,0.0,0.0,0.0,0.0,0.0,0.0,0.0,0.0,0.0,0.0,0.0,0.0,0.0,0.0,0.0,0.0,0.0,0.0,0.0,0.0,0.0,0.0,0.0,0.0,0.0,0.0,0.0,0.0,0.0,0.0,0.0,0.0,0.0,0.0,0.0,0.0,0.0,0.0,0.0,0.0,0.0,0.0,0.0,0.0,0.0,0.0,0.0,0.0,0.0,0.0,0.0,0.0,0.0,0.0,0.0,0.0,0.0,0.0,0.0,0.0,0.0,0.0,0.0,0.0,0.0,0.0,5.7706,5.8116,5.8116,5.818,5.8211,5.8211,5.8243,5.8274,5.8274,5.8211,0.0,0.0,0.0,0.0,0.0,0.0,0.0,0.0,0.0,0.0,0.0,0.0,0.0,0.0,0.0,0.0,0.0,0.0,0.0,0.0,0.0,0.0,0.0,0.0,0.0,0.0,0.0,0.0,0.0,0.0,0.0,0.0,0.0,0.0,0.0,0.0,0.0,0.0,0.0,0.0,0.0,0.0,0.0,0.0,0.0,0.0,0.0,0.0,0.0,0.0,0.0,0.0,0.0,0.0,0.0,0.0,0.0,0.0,0.0,0.0,0.0,0.0,0.0,0.0,0.0,0.0,0.0,0.0,0.0,0.0,0.0,0.0,0.0,0.0,0.0,0.0,0.0,0.0,0.0,0.0,0.0,0.0,0.0,0.0,0.0,0.0,0.0,0.0,0.0,0.0,0.0,0.0,0.0,0.0,0.0,0.0,0.0,0.0,0.0,0.0,0.0,0.0,5.8116,5.8274,5.8274,5.8274,5.8274,5.8274,5.8274,5.8274,5.8274,0.0,0.0,0.0,0.0,0.0,0.0,0.0,0.0,0.0,0.0,0.0,0.0,0.0,0.0,0.0,0.0,0.0,0.0,0.0,0.0,0.0,0.0,0.0,0.0,0.0,0.0,0.0,0.0,0.0,0.0,0.0,0.0,0.0,0.0,0.0,0.0,0.0,0.0,0.0,0.0,0.0,0.0,0.0,0.0,0.0,0.0,0.0,0.0,0.0,0.0,0.0,0.0,0.0,0.0,0.0,0.0,0.0,0.0,0.0,0.0,0.0,0.0,0.0,0.0,0.0,0.0,0.0,0.0,0.0,0.0,0.0,0.0,0.0,0.0,0.0,0.0,0.0,0.0,0.0,0.0,0.0,0.0,0.0,0.0,0.0,0.0,0.0,0.0,0.0,0.0,0.0,0.0,0.0,0.0,0.0,0.0,0.0,0.0,0.0,0.0,0.0,0.0,5.8211,5.8274,5.8274,5.8274,5.8274,5.8274,5.8274,5.8274,5.8274,5.8274,0.0,0.0,0.0,0.0,0.0,0.0,0.0,0.0,0.0,0.0,0.0,0.0,0.0,0.0,0.0,0.0,0.0,0.0,0.0,0.0,0.0,0.0,0.0,0.0,0.0,0.0,0.0,0.0,0.0,0.0,0.0,0.0,0.0,0.0,0.0,0.0,0.0,0.0,0.0,0.0,0.0,0.0,0.0,0.0,0.0,0.0,0.0,0.0,0.0,0.0,0.0,0.0,0.0,0.0,0.0,0.0,0.0,0.0,0.0,0.0,0.0,0.0,0.0,0.0,0.0,0.0,0.0,0.0,0.0,0.0,0.0,0.0,0.0,0.0,0.0,0.0,0.0,0.0,0.0,0.0,0.0,0.0,0.0,0.0,0.0,0.0,0.0,0.0,0.0,0.0,0.0,0.0,0.0,0.0,0.0,0.0,0.0,0.0,0.0,0.0,0.0,0.0,5.8274,5.8274,5.8274,5.8274,5.8274,5.8274,5.8274,5.8274,5.8274,0.0,0.0,0.0,0.0,0.0,0.0,0.0,0.0,0.0,0.0,0.0,0.0,0.0,0.0,0.0,0.0,0.0,0.0,0.0,0.0,0.0,0.0,0.0,0.0,0.0,0.0,0.0,0.0,0.0,0.0,0.0,0.0,0.0,0.0,0.0,0.0,0.0,0.0,0.0,0.0,0.0,0.0,0.0,0.0,0.0,0.0,0.0,0.0,0.0,0.0,0.0,0.0,0.0,0.0,0.0,0.0,0.0,0.0,0.0,0.0,0.0,0.0,0.0,0.0,0.0,0.0,0.0,0.0,0.0,0.0,0.0,0.0,0.0,0.0,0.0,0.0,0.0,0.0,0.0,0.0,0.0,0.0,0.0,0.0,0.0,0.0,0.0,0.0,0.0,0.0,0.0,0.0,0.0,0.0,0.0,0.0,0.0,0.0,0.0,0.0,0.0,0.0,0.0,5.8274,5.8274,5.8274,5.8274,5.8274,5.8274,5.8274,5.8274,5.8274,5.8274,0.0,0.0,0.0,0.0,0.0,0.0,0.0,0.0,0.0,0.0,0.0,0.0,0.0,0.0,0.0,0.0,0.0,0.0,0.0,0.0,0.0,0.0,0.0,0.0,0.0,0.0,0.0,0.0,0.0,0.0,0.0,0.0,0.0,0.0,0.0,0.0,0.0,0.0,0.0,0.0,0.0,0.0,0.0,0.0,0.0,0.0,0.0,0.0,0.0,0.0,0.0,0.0,0.0,0.0,0.0,0.0,0.0,0.0,0.0,0.0,0.0,0.0,0.0,0.0,0.0,0.0,0.0,0.0,0.0,0.0,0.0,0.0,0.0,0.0,0.0,0.0,0.0,0.0,0.0,0.0,0.0,0.0,0.0,0.0,0.0,0.0,0.0,0.0,0.0,0.0,0.0,0.0,0.0,0.0,0.0,0.0,0.0,0.0,0.0,0.0,0.0,0.0,5.8367,5.8274,5.8369,5.8654,5.8685,5.878,5.9064,5.9096,5.9096,5.9096,0.0,0.0,0.0,0.0,0.0,0.0,0.0,0.0,0.0,0.0,0.0,0.0,0.0,0.0,0.0,0.0,0.0,0.0,0.0,0.0,0.0,0.0,0.0,0.0,0.0,0.0,0.0,0.0,0.0,0.0,0.0,0.0,0.0,0.0,0.0,0.0,0.0,0.0,0.0,0.0,0.0,0.0,0.0,0.0,0.0,0.0,0.0,0.0,0.0,0.0,0.0,0.0,0.0,0.0,0.0,0.0,0.0,0.0,0.0,0.0,0.0,0.0,0.0,0.0,0.0,0.0,0.0,0.0,0.0,0.0,0.0,0.0,0.0,0.0,0.0,0.0,0.0,0.0,0.0,0.0,0.0,0.0,0.0,0.0,0.0,0.0,0.0,0.0,0.0,0.0,0.0,0.0,0.0,0.0,0.0,0.0,0.0,0.0,0.0,0.0,0.0,0.0,5.8522,5.8432,5.8717,5.9317,5.938,5.9633,6.0234,6.0297,6.0297,6.0297,0.0,0.0,0.0,0.0,0.0,0.0,0.0,0.0,0.0,0.0,0.0,0.0,0.0,0.0,0.0,0.0,0.0,0.0,0.0,0.0,0.0,0.0,0.0,0.0,0.0,0.0,0.0,0.0,0.0,0.0,0.0,0.0,0.0,0.0,0.0,0.0,0.0,0.0,0.0,0.0,0.0,0.0,0.0,0.0,0.0,0.0,0.0,0.0,0.0,0.0,0.0,0.0,0.0,0.0,0.0,0.0,0.0,0.0,0.0,0.0,5.7552,5.6892,0.0,0.0,0.0,0.0,0.0,0.0,0.0,0.0,0.0,0.0,0.0,0.0,0.0,0.0,0.0,0.0,0.0,0.0,0.0,0.0,0.0,0.0,0.0,0.0,0.0,0.0,0.0,0.0,0.0,0.0,0.0,0.0,0.0,0.0,0.0,0.0,0.0,0.0,0.0,0.0,5.9158,5.9538,5.9918,6.0076,6.0076,6.0139,6.0297,6.0297,6.0297,6.0297,6.0297,0.0,0.0,0.0,0.0,0.0,0.0,0.0,0.0,0.0,0.0,0.0,0.0,0.0,0.0,0.0,0.0,0.0,0.0,0.0,0.0,0.0,0.0,0.0,0.0,0.0,0.0,0.0,0.0,0.0,0.0,0.0,0.0,0.0,0.0,0.0,0.0,0.0,0.0,0.0,0.0,0.0,0.0,0.0,0.0,0.0,0.0,0.0,0.0,0.0,0.0,0.0,0.0,0.0,0.0,0.0,0.0,0.0,0.0,0.0,5.8237,5.7506,0.0,0.0,0.0,0.0,0.0,0.0,0.0,0.0,0.0,0.0,0.0,0.0,0.0,0.0,0.0,0.0,0.0,0.0,0.0,0.0,0.0,0.0,0.0,0.0,0.0,0.0,0.0,0.0,0.0,0.0,0.0,0.0,0.0,0.0,0.0,0.0,0.0,0.0,0.0,0.0,5.9949,6.0076,6.0423,6.0803,6.0834,6.0961,6.1308,6.1308,6.1308,6.1308,6.1308,0.0,0.0,0.0,0.0,0.0,0.0,0.0,0.0,0.0,0.0,0.0,0.0,0.0,0.0,0.0,0.0,0.0,0.0,0.0,0.0,0.0,0.0,0.0,0.0,0.0,0.0,0.0,0.0,0.0,0.0,0.0,0.0,0.0,0.0,0.0,0.0,0.0,0.0,0.0,0.0,0.0,0.0,0.0,0.0,0.0,0.0,0.0,0.0,0.0,0.0,0.0,0.0,0.0,5.978,5.9979,6.0104,6.0863,6.0588,5.9602,5.9076,5.8379,5.7569,5.7712,0.0,0.0,0.0,0.0,0.0,0.0,0.0,0.0,0.0,0.0,0.0,0.0,0.0,0.0,0.0,0.0,0.0,0.0,0.0,0.0,0.0,0.0,6.3334,6.2779,6.3341,6.3979,6.3979,0.0,0.0,0.0,0.0,0.0,0.0,0.0,0.0,0.0,0.0,0.0,6.0899,6.0677,6.0897,6.1498,6.1561,6.1814,6.2383,6.2446,6.2446,6.2446,6.2446,6.2446,0.0,0.0,0.0,0.0,0.0,0.0,0.0,0.0,0.0,0.0,0.0,0.0,0.0,0.0,0.0,0.0,0.0,0.0,0.0,0.0,0.0,0.0,0.0,0.0,0.0,0.0,0.0,0.0,0.0,0.0,0.0,0.0,5.3934,5.3973,0.0,0.0,0.0,0.0,0.0,0.0,0.0,0.0,0.0,0.0,0.0,0.0,0.0,5.7925,5.8821,5.9465,6.0275,6.1271,6.1918,6.2717,6.3531,6.3509,6.3356,6.319,6.3131,0.0,5.856,5.9388,0.0,0.0,0.0,0.0,0.0,0.0,0.0,0.0,0.0,0.0,0.0,0.0,0.0,0.0,0.0,0.0,0.0,0.0,0.0,0.0,0.0,0.0,6.5583,6.4449,6.4879,6.56,6.56,6.5048,6.4738,6.5462,6.56,6.56,0.0,0.0,0.0,0.0,0.0,0.0,6.2631,6.2301,6.2193,6.2288,6.2288,6.2319,6.2414,6.2446,6.2446,6.2446,6.2446,6.2446,6.2446,6.2446,0.0,0.0,0.0,0.0,0.0,0.0,0.0,0.0,0.0,0.0,0.0,0.0,0.0,0.0,0.0,0.0,0.0,0.0,0.0,0.0,0.0,0.0,0.0,0.0,0.0,0.0,0.0,0.0,0.0,5.3885,5.3922,5.2865,5.385,5.4193,0.0,0.0,0.0,0.0,0.0,0.0,0.0,0.0,0.0,5.9274,5.9274,5.9885,6.1049,6.1523,6.2155,6.3041,6.348,6.3863,6.4282,6.4224,6.4188,6.4188,6.4188,6.3336,6.1867,6.1588,6.1142,6.0774,0.0,0.0,0.0,0.0,6.1172,6.1571,6.1968,6.2233,6.2494,6.3401,0.0,0.0,0.0,0.0,0.0,0.0,0.0,6.5009,6.476,6.5508,6.611,6.5447,6.5611,6.5979,6.6428,6.6221,6.5979,6.5911,6.5876,6.6014,6.6428,6.6497,0.0,0.0,0.0,6.5234,6.4351,6.4099,6.4049,6.4049,6.4049,6.3768,6.326,6.326,6.2971,6.2446,6.2446,6.2446,6.2446,6.2446,6.2873,0.0,0.0,0.0,0.0,0.0,0.0,0.0,0.0,0.0,0.0,0.0,0.0,0.0,0.0,0.0,0.0,0.0,0.0,0.0,0.0,0.0,0.0,0.0,0.0,0.0,0.0,0.0,0.0,5.4652,5.4759,5.3417,5.4619,5.5252,0.0,0.0,0.0,0.0,0.0,0.0,5.9655,5.9926,6.0323,6.0937,6.1118,6.1859,6.3016,6.3382,6.3945,6.4664,6.4855,6.502,6.5011,6.5125,6.496,6.4722,6.4903,6.4903,6.4649,6.3473,6.2789,6.2454,6.2558,6.2779,6.2911,6.2693,6.2766,6.3147,6.4194,6.4621,6.4865,6.5958,6.6294,6.6263,6.6329,0.0,0.0,0.0,0.0,6.6572,6.6744,6.6979,6.7094,6.6746,6.6616,6.66,6.7152,6.7256,6.7118,6.6566,6.6462,6.6635,6.7187,6.7256,0.0,6.7059,6.6878,6.6424,6.5734,6.547,6.5293,6.5293,6.5293,6.5024,6.4328,6.4081,6.3611,6.2808,6.2671,6.2798,6.3062,6.2956,6.3513,6.4821,0.0,0.0,0.0,0.0,0.0,0.0,0.0,0.0,0.0,0.0,0.0,0.0,0.0,0.0,0.0,0.0,0.0,0.0,0.0,0.0,0.0,0.0,0.0,0.0,0.0,0.0,0.0,0.0,0.0,5.7711,5.7783,0.0,0.0,0.0,0.0,5.8311,5.976,6.0772,6.112,6.1953,6.2442,6.2479,6.321,6.3753,6.3929,6.4714,6.5364,6.5934,6.6329,6.6572,6.6677,6.6931,6.6494,6.5591,6.6351,6.6243,6.5482,6.4649,6.4323,6.4359,6.512,6.541,6.5337,6.4541,6.4871,6.5638,6.5711,6.6219,6.707,6.8691,6.8608,6.7885,6.7909,6.7366,0.0,0.0,6.78,6.8873,6.8342,6.8884,6.953,6.8943,6.8447,6.8014,6.8049,6.8049,6.8014,6.798,6.798,6.8014,6.8049,0.0,6.8049,6.8004,6.7291,6.6677,6.6627,6.5821,6.5293,6.5293,6.5293,6.5293,6.5204,6.442,6.3894,6.38,6.3609,6.3893,6.4802,6.4498,6.5346,6.7321,6.7321,0.0,0.0,0.0,0.0,0.0,0.0,0.0,0.0,0.0,0.0,0.0,0.0,0.0,0.0,0.0,0.0,0.0,0.0,0.0,0.0,0.0,0.0,0.0,0.0,0.0,0.0,0.0,0.0,5.7298,5.8303,0.0,5.7955,5.9232,6.0098,6.0165,6.1441,6.2215,6.2215,6.3135,6.3576,6.3525,6.4332,6.4992,6.5521,6.5301,6.5799,6.7012,6.6659,6.679,6.7286,6.7396,6.7305,6.7048,6.7341,6.7268,6.6975,6.679,6.6446,6.5953,6.6125,6.6641,6.7252,6.6961,6.7477,6.8247,6.8398,6.8502,6.8668,6.9415,6.9632,6.9369,6.8641,6.8739,6.8995,6.8488,6.9104,6.9922,6.9878,6.9842,6.9671,6.9122,6.8551,6.8083,6.8083,6.8083,6.8083,6.8083,6.8083,6.8083,6.8083,6.8083,6.8083,6.8083,6.7845,6.7569,6.7569,6.7735,6.7876,6.7876,6.8318,6.8303,6.7699,6.7346,6.6899,6.6351,6.6209,6.6279,6.6653,6.6508,6.7109,6.8417,6.8505,6.8944,0.0,0.0,0.0,0.0,0.0,0.0,0.0,0.0,0.0,0.0,0.0,0.0,0.0,0.0,0.0,0.0,0.0,0.0,0.0,0.0,0.0,0.0,0.0,0.0,0.0,5.8394,5.8825,5.8178,5.9256,5.9957,5.9735,6.0719,6.1506,6.1911,6.2977,6.3601,6.3553,6.4425,6.482,6.4672,6.5533,6.6234,6.6764,6.6505,6.6861,6.7826,6.7414,6.731,6.7577,6.772,6.7626,6.7384,6.7679,6.7841,6.793,6.824,6.8272,6.7976,6.7433,6.7855,6.8721,6.8641,6.9027,6.9654,7.0062,7.0201,7.0254,7.0365,7.0545,7.0599,6.9832,7.0148,7.0661,7.0118,7.0335,7.0816,7.0966,7.0407,6.9671,6.9344,6.867,6.8152,6.8428,6.8497,6.8566,6.8808,6.8463,6.8187,6.8463,6.8497,6.8566,6.8842,6.8877,6.8877,6.8877,6.9325,6.9635,6.9635,7.0084,7.0113,6.9493,6.9203,6.8769,6.8115,6.7987,6.812,6.8393,6.8353,6.886,7.006,7.0148,7.0481,7.1153,0.0,0.0,0.0,0.0,0.0,0.0,0.0,0.0,0.0,0.0,0.0,0.0,0.0,0.0,0.0,0.0,0.0,0.0,0.0,0.0,0.0,0.0,0.0,5.933,6.0124,6.0648,6.0846,6.081,6.126,6.2214,6.1972,6.2155,6.3224,6.4299,6.4919,6.5046,6.5791,6.623,6.6128,6.6945,6.7402,6.7542,6.8287,6.8517,6.8272,6.8517,6.8321,6.7667,6.8004,6.7613,6.6736,6.7583,6.7967,6.8158,6.8934,6.9784,7.0449,6.9192,6.9116,6.9811,6.9559,6.9536,6.98,7.0565,7.1331,7.1927,7.162,7.1494,7.1494,7.1494,7.1494,7.1494,7.1494,7.1531,7.1531,7.1531,7.0714,6.9885,6.9885,6.9043,6.8394,6.9153,6.9325,6.9532,7.0256,6.9187,6.8428,6.9187,6.9325,6.9566,7.0291,7.0394,0.0,7.0394,7.0394,7.0429,7.0429,7.0429,7.0463,7.0463,6.9646,6.9098,6.9098,6.8851,6.9161,7.0148,6.9888,7.053,7.2225,7.235,7.2458,7.2671,0.0,0.0,0.0,0.0,0.0,0.0,0.0,0.0,0.0,0.0,0.0,0.0,0.0,0.0,0.0,0.0,0.0,0.0,0.0,0.0,0.0,5.9654,6.0124,6.0087,6.0449,6.0991,6.1642,6.1927,6.2311,6.2843,6.3501,6.4058,6.4373,6.5336,6.5956,6.6,6.6694,6.7049,6.7123,6.781,6.8171,6.8219,6.7885,6.7911,6.8457,6.7911,6.79,6.8259,6.8952,6.9249,6.9171,6.999,7.0411,7.0555,7.0911,7.1461,7.2037,7.0539,7.0565,7.1266,7.1029,7.1264,7.1699,7.1646,7.1805,7.1927,7.162,7.1494,7.1494,7.1494,7.1494,7.1494,7.1494,7.1929,7.2364,7.2364,7.1968,7.1549,7.1549,7.0651,6.9808,7.0049,7.0084,7.0153,7.036,7.0049,6.9842,7.0049,7.0084,7.0153,7.036,7.0394,7.0394,7.0394,7.0843,7.1187,7.1187,7.1705,7.205,7.205,7.1847,7.1678,7.1678,7.1593,7.1696,7.1987,7.1901,7.2106,7.2605,7.2605,7.2588,0.0,0.0,0.0,0.0,0.0,0.0,0.0,0.0,0.0,0.0,0.0,0.0,0.0,0.0,0.0,0.0,0.0,0.0,0.0,0.0,0.0,0.0,6.088,6.1495,6.1299,6.1388,6.1676,6.2235,6.2961,6.3578,6.3873,6.4882,6.5583,6.5627,6.6544,6.7074,6.6992,6.7688,6.8045,6.7989,6.8379,6.8554,6.8506,6.806,6.806,6.8506,6.8394,6.858,6.9063,6.9843,7.0313,7.0544,7.104,7.1546,7.2024,7.2162,7.265,7.3232,0.0,0.0,0.0,0.0,7.2392,7.263,7.2285,7.2108,7.1927,7.162,7.1494,7.1567,7.1893,7.2001,7.2074,7.25,7.2998,7.3361,7.3361,7.2821,7.2259,7.2186,7.1315,7.0463,7.0774,7.0843,7.0946,7.1291,7.1325,0.0,7.1325,7.105,7.0981,7.1291,7.1325,7.1325,7.1325,7.1739,7.1981,7.1981,7.2395,7.2671,7.2671,7.2671,0.0,0.0,0.0,7.2671,7.2671,7.2981,0.0,0.0,0.0,7.3464,7.3153,7.3464,0.0,0.0,7.3291,7.3533,0.0,0.0,0.0,0.0,0.0,0.0,0.0,0.0,0.0,0.0,0.0,0.0,0.0,0.0,0.0,0.0,6.1834,6.264,6.2764,6.2698,6.275,6.2815,6.3922,6.4782,6.5165,6.6132,6.6828,6.6913,6.7664,6.8071,6.7941,6.8571,0.0,0.0,0.0,6.8602,6.8506,6.8617,6.8654,6.8654,6.9472,6.9843,6.988,7.0698,7.1169,7.1268,7.1488,7.208,7.2848,7.2987,7.3521,7.4076,7.2955,7.292,7.3503,7.3283,7.3071,7.2908,7.2537,0.0,0.0,7.1827,7.1775,7.1893,7.2681,7.2898,7.3043,7.3961,7.4315,7.4388,7.4388,7.3564,7.2727,7.2653,7.168,7.0972,7.1629,7.1684,7.1843,7.2533,7.2671,7.2671,7.2671,7.2084,7.1877,7.2567,7.2671,7.2671,7.2671,7.2671,7.2671,7.2671,7.2671,0.0,7.2671,7.2671,7.2671,7.2671,7.274,7.2809,7.2809,7.3498,7.3602,7.2946,7.4257,7.4602,7.3912,7.4602,7.4981,7.505,7.4257,7.4326,0.0,0.0,0.0,0.0,0.0,0.0,0.0,0.0,0.0,0.0,0.0,0.0,0.0,0.0,0.0,6.0933,6.1989,6.2975,6.3649,6.4106,6.4392,6.4531,6.477,6.5322,6.6336,6.7246,6.7734,6.7776,6.8403,6.8847,6.8935,6.8817,6.8791,6.8875,6.865,6.8506,6.8506,6.9137,6.9472,6.9509,7.0289,0.0,7.0698,7.1653,7.2211,7.2347,7.3127,7.3644,7.3888,7.3972,7.4047,7.4197,7.3916,7.3811,7.3728,7.3678,7.349,7.3141,7.2798,7.292,7.3237,7.2972,7.3224,7.3743,7.3978,7.4077,0.0,7.4296,7.4806,7.5316,7.5316,7.5261,7.522,7.515,7.4106,7.3177,7.3317,7.2858,7.2498,7.2636,7.2671,7.2671,7.2671,7.2567,7.2498,7.2671,7.2671,7.2671,7.2671,7.2671,7.2671,7.2671,7.2671,7.2671,7.2671,7.2671,7.2671,7.2671,7.3222,7.3567,7.3567,7.4292,7.4636,7.4499,7.4774,7.4843,7.4705,7.4843,7.5257,7.5878,7.5085,7.5119,0.0,0.0,0.0,0.0,0.0,0.0,0.0,0.0,0.0,0.0,0.0,5.9724,6.0122,0.0,6.1397,6.2354,6.3185,6.4033,6.4953,6.5523,6.5739,6.5613,6.6075,6.6656,6.7363,6.8114,6.8602,6.8602,6.8891,6.9116,6.9203,6.9027,6.8975,6.8975,6.9201,6.9283,6.9197,6.9917,7.0326,7.0425,7.1244,7.1703,7.1789,7.2659,7.3168,7.3217,7.3774,7.4056,7.4104,7.4151,7.4197,7.4235,7.4648,7.4441,7.4046,7.4458,7.4424,7.416,7.4269,7.4349,7.4338,7.4198,7.4251,7.4441,7.4993,7.5041,7.5087,7.5614,7.6016,7.6345,7.6345,7.6178,7.6032,7.5963,7.4828,7.3799,7.3799,7.3229,7.2671,7.2671,7.2671,7.2809,7.3188,7.3222,7.3119,7.274,7.2671,7.2671,7.2671,7.3015,7.3222,7.3222,7.3567,7.3809,7.3809,7.3809,7.3809,7.3809,7.4154,7.4361,7.4361,7.474,7.4947,7.4947,7.5326,7.5533,7.5533,7.5878,7.6292,7.6671,7.6258,7.6292,0.0,0.0,0.0,0.0,0.0,0.0,0.0,5.9071,5.9673,5.9619,5.9941,6.0441,6.1147,6.1506,6.2223,6.3759,6.4524,6.5264,6.6313,6.6818,6.6978,6.6784,6.7404,6.7953,6.8227,6.8828,6.9203,6.9203,6.9203,6.9203,6.9203,6.9347,6.9378,6.9252,6.9939,7.0293,7.0198,7.0871,7.1244,7.1391,7.2249,7.2745,7.2843,7.3516,7.3864,7.3864,7.4009,7.4056,7.4056,7.4151,7.431,7.4498,7.5136,7.5098,7.476,7.5399,7.5529,7.5409,7.593,7.5861,7.5474,7.5474,7.5235,7.5103,7.5947,7.6104,7.6089,7.6909,7.7265,7.7411,7.7411,7.713,7.6772,7.6285,7.5225,7.4245,7.4045,7.3473,7.2946,7.3084,7.3119,7.3326,7.3912,7.4016,7.3809,7.3222,7.3119,7.3119,7.3119,7.3636,7.4016,7.4016,7.4568,7.4912,7.4947,7.4947,7.4947,7.4947,7.5085,7.5154,7.5154,7.5292,7.5361,7.5361,7.6016,7.6326,7.6326,7.6913,7.7223,7.7223,7.7223,7.7223,5.399,5.4888,5.6038,5.7016,5.7719,5.8142,0.0,5.9409,6.0558,6.0267,6.1118,6.202,6.2198,6.2975,6.3643,6.4094,6.5112,6.6221,6.727,6.7723,6.8114,6.8784,6.8334,6.8264,6.9015,6.9166,6.9203,6.9203,6.9203,6.9203,6.9203,6.9828,7.0151,7.0151,7.0798,7.1162,7.1162,7.1973,7.2421,7.247,7.3243,7.3665,7.3665,7.3875,7.4009,7.4009,7.4104,7.4151,7.4151,7.4197,7.461,7.5249,7.5361,7.5812,7.6413,7.6525,7.6573,7.6583,7.6417,7.6602,7.6973,7.6865,7.6897,7.7047,7.7316,7.7255,7.7133,7.7243,7.7829,7.8442,7.8442,7.8893,7.9032,7.757,7.6554,7.5747,7.5011,7.4274,7.3878,7.4533,7.4671,7.4705,7.4774,7.4809,7.4774,7.4705,7.4671,7.4671,7.4671,7.474,7.4809,7.4809,7.4843,7.4912,7.4912,7.4947,7.4947,7.4947,7.5602,7.5982,7.5982,7.6602,7.6982,7.6982,7.7051,7.7085,7.7085,7.7189,7.7223,7.7223,7.7223,7.7223,5.6268,5.6879,5.7382,5.8692,5.9685,6.026,5.9953,6.0747,6.1589,6.1912,6.2495,6.3111,6.3656,6.4181,6.4809,6.5804,6.6367,6.7123,6.8391,6.8628,6.8828,6.9166,6.8903,6.8828,6.9203,6.9203,6.9203,6.9203,6.9203,6.9428,6.9917,7.0255,7.0712,7.1238,7.1891,7.2257,7.2257,7.2929,7.334,7.3389,7.3725,7.3961,7.4056,7.426,7.4438,7.4568,7.4649,7.4827,7.5103,7.5103,7.5501,7.615,7.6638,7.7137,7.7485,7.7485,7.7532,7.7617,7.8022,7.829,7.8303,7.8353,7.8229,7.8053,7.7977,7.8174,7.8367,7.81,7.8662,7.9286,7.9286,7.9543,7.9462,7.8364,7.7452,7.664,7.582,7.499,7.4533,7.4878,7.4947,7.5085,7.5533,7.5637,7.5775,7.6189,7.5499,7.4947,7.4947,7.5326,7.5775,7.6223,7.6258,7.6258,7.6258,7.6258,7.6258,7.6258,7.6568,7.6775,7.6775,7.7051,7.7223,7.7223,7.7223,7.7223,7.7223,7.7223,7.7223,7.7223,7.7223,7.7223,5.7842,5.8564,5.9241,6.056,6.17,6.2342,6.2139,6.2377,6.2838,6.3474,6.3693,6.4003,6.464,6.5148,6.5794,6.6852,6.7246,6.7858,6.8915,6.9116,6.9116,6.9203,6.9203,6.9203,6.9203,6.9203,6.9316,6.9541,6.9579,6.9954,7.0824,7.1137,7.1595,7.224,7.2943,7.3349,7.3349,7.3766,7.4019,7.4206,7.4206,7.426,7.4476,7.4653,7.4859,7.5018,7.5245,7.5501,7.5858,7.5998,7.6467,7.7109,7.7748,7.8172,7.8408,7.8502,7.8548,7.8661,7.9358,7.9406,7.9214,7.9311,7.9229,7.8932,7.8647,7.8981,7.9416,7.9007,7.9507,8.0131,8.0131,8.0277,8.0158,7.8849,7.8133,7.7382,7.6304,7.562,7.5326,7.5533,7.5568,7.574,7.6326,7.643,7.6602,7.7154,7.6258,7.5568,7.5568,7.6051,7.6637,7.7154,7.7223,7.7223,7.7223,7.7223,7.7223,7.7223,7.7223,7.7223,7.7223,7.7223,7.7223,7.7223,7.7223,7.7223,7.7223,7.7223,7.7223,7.7223,7.7223,7.7223,5.7998,5.9679,6.1594,6.2335,6.3093,6.3741,6.4072,6.4209,6.438,6.4528,6.4658,6.4767,6.4803,6.5677,6.6492,6.6611,6.7465,6.8235,6.8726,6.8809,6.89,6.916,6.9203,6.9203,6.9203,6.9203,6.9541,7.0405,7.0442,7.0862,7.182,7.2611,7.3107,7.3237,7.4029,7.4482,7.4482,7.4425,7.4519,7.4778,7.4657,7.4781,7.5057,7.5018,7.5018,7.5133,7.5774,7.6114,7.623,7.6727,7.7425,7.8142,7.8116,7.8558,7.9321,7.9554,7.9645,7.9683,7.9683,7.9592,7.95,7.95,7.9741,7.9935,7.9503,7.9834,8.0289,7.9915,8.0351,8.0975,8.0975,8.1525,8.1526,7.9174,7.8619,7.8157,7.6452,7.6085,7.6292,7.7016,7.7154,7.7154,7.7189,7.7189,7.7189,7.7223,7.7189,7.7154,7.7154,7.7154,7.7189,7.7223,7.7223,7.7223,7.7223,7.7223,7.7223,7.7223,7.7223,7.7223,7.7223,7.7223,7.7223,7.7223,7.7223,7.7223,7.7223,7.7223,7.7223,7.7223,7.7223,7.7223,6.0639,6.1806,6.2825,6.3541,6.4348,6.4874,6.4426,6.4452,6.471,6.5141,6.5039,6.4931,6.5386,6.5825,6.6279,6.6522,6.7325,6.8097,6.8679,6.8772,6.89,6.916,6.9729,7.0067,7.0067,7.0073,7.0229,7.0573,7.1181,7.1944,7.2779,7.3161,7.3624,7.4233,7.4497,7.4649,7.4649,7.4469,7.4519,7.4819,7.4901,7.5057,7.5318,7.5888,7.6265,7.6407,7.7217,7.7758,7.8065,7.8252,7.8652,7.9222,7.9229,7.9373,7.9592,7.9638,7.9766,7.9854,7.9854,7.981,7.9841,8.0371,8.0574,8.0629,8.0555,8.0973,8.1413,8.0761,8.1195,8.1782,8.1912,8.2031,8.1879,8.0585,7.9858,7.9017,7.7951,7.725,7.6913,7.7154,7.7223,7.7223,7.7223,7.7223,7.7223,7.7223,7.7223,7.7223,7.7223,7.7223,7.7223,7.7223,7.7223,7.7223,7.7223,7.7223,7.7223,7.7223,7.7223,7.7223,7.7223,7.7223,7.7223,7.7223,7.7223,7.7223,7.7223,7.7223,7.7223,7.7223,7.7223,7.7223,6.1967,6.307,6.4024,6.4492,6.533,6.5881,6.5374,6.5343,6.5602,6.6032,6.5677,6.5387,6.5823,6.5733,6.5842,6.6313,6.6896,6.7598,6.8453,6.867,6.8921,6.9573,7.0186,7.068,7.0981,7.1412,7.1605,7.1482,7.2175,7.2902,7.3775,7.3855,7.4203,7.4733,7.4771,7.4771,7.4771,7.4649,7.4737,7.5057,7.5315,7.5646,7.6021,7.659,7.7083,7.7495,7.8343,7.8853,7.9207,7.94,7.9664,7.995,7.9908,7.9822,7.9854,8.0113,8.0271,8.0315,8.0315,8.0315,8.0466,8.13,8.171,8.183,8.1574,8.2053,8.2442,8.1634,8.1847,8.2316,8.2343,8.238,8.215,8.1368,8.044,7.953,7.8635,7.7772,7.7223,7.7223,7.7223,7.7223,7.7223,7.7223,7.7223,7.7223,7.7223,7.7223,7.7223,7.7223,7.7223,7.7223,7.7223,7.7223,7.7223,7.7223,7.7223,7.7223,7.7223,7.7223,7.7223,7.7223,7.7223,7.7223,7.7223,7.7223,7.7223,7.7223,7.7223,7.7223,7.7223,7.7223,6.2021,6.3547,6.5212,6.5212,6.6021,6.6822,6.6786,6.6903,6.7019,6.7019,6.6554,6.6135,6.6007,6.5496,6.5294,6.5897,6.619,6.6769,6.7986,6.842,6.908,7.0361,7.0605,7.1068,7.1858,7.2939,7.3473,7.322,7.3307,7.3775,7.4653,7.4691,7.4771,7.4895,7.4895,7.4895,7.4895,7.4977,7.5208,7.5523,7.5895,7.6417,7.7093,7.7105,7.7571,7.8382,7.9118,7.9535,7.9642,8.0195,8.0391,8.0392,8.0157,8.0072,8.0144,8.0851,8.111,8.1148,8.1224,8.1186,8.13,8.2172,8.2968,8.3436,8.2639,8.2892,8.3321,8.2471,8.2316,8.2407,8.2407,8.2571,8.2471,8.1506,8.0551,7.965,7.88,7.7858,7.7223,7.7223,7.7223,7.7223,7.7223,7.7223,7.7223,7.7223,7.7223,7.7223,7.7223,7.7223,7.7223,7.7223,7.7223,7.7223,7.7223,7.7223,7.7223,7.7223,7.7223,7.7223,7.7223,7.7223,7.7223,7.7223,7.7223,7.7223,7.7223,7.7223,7.7223,7.7223,7.7223,7.7223,6.359,6.4559,6.5409,6.5409,6.5985,6.6608,6.6727,6.6786,6.6845,6.6845,6.5949,6.5259,6.5654,6.5165,6.4986,6.5731,6.6647,6.7447,6.7804,6.9,6.9901,7.0172,7.1531,7.2573,7.2761,7.3634,7.4174,7.4304,7.4388,7.4585,7.4854,7.4854,7.4854,7.4895,7.4895,7.4895,7.4895,7.5133,7.5281,7.5421,7.6312,7.6804,7.7007,7.8267,7.899,7.922,8.0068,8.0481,8.0548,8.0711,8.0681,8.054,8.0578,8.0774,8.1067,8.1254,8.1664,8.2134,8.2649,8.246,8.221,8.2914,8.3238,8.3311,8.3404,8.3415,8.3318,8.2843,8.2659,8.2633,8.2782,8.2758,8.2696,8.2497,8.1121,7.9844,7.9572,7.8266,7.7223,7.7223,7.7223,7.7223,7.7223,7.7223,7.7223,7.7223,7.7223,7.7223,7.7223,7.7223,7.7223,7.7223,7.7223,7.7223,7.7223,7.7223,7.7223,7.7223,7.7223,7.7223,7.7223,7.7223,7.7223,7.7223,7.7223,7.7223,7.7223,7.7223,7.7223,7.7223,7.7009,7.7009,6.4041,6.474,6.5409,6.5474,6.5985,6.644,6.6293,6.6279,6.617,6.5924,6.5003,6.4567,6.5602,6.5165,6.5093,6.6619,6.7429,6.8055,6.8659,6.9767,7.0656,7.1125,7.2312,7.3251,7.3627,7.4124,7.4476,7.4606,7.4771,7.4854,7.4895,7.4895,7.4895,7.4895,7.4895,7.4895,7.4937,7.5095,7.5472,7.5959,7.6667,7.7352,7.8049,7.9071,7.9685,8.003,8.0596,8.0893,8.0888,8.0959,8.0926,8.0826,8.0792,8.1114,8.1572,8.1873,8.239,8.3043,8.3785,8.3831,8.3528,8.3758,8.3812,8.379,8.3847,8.3712,8.3433,8.3047,8.2904,8.2782,8.2904,8.2904,8.2941,8.2904,8.1396,8.0146,8.0404,7.8729,7.7223,7.7223,7.7223,7.7223,7.7223,7.7223,7.7223,7.7223,7.7223,7.7223,7.7223,7.7223,7.7223,7.7223,7.7223,7.7223,7.7223,7.7223,7.7223,7.7223,7.7133,7.7009,7.7009,7.6953,7.6862,7.6862,7.6862,7.6953,7.7009,7.6953,7.6953,7.7009,7.6736,7.6736,6.382,6.4568,6.5278,6.5409,6.603,6.638,6.575,6.5605,6.5424,6.471,6.4039,6.4057,6.5806,6.5367,6.5509,6.7905,6.8364,6.8757,6.9758,7.0438,7.1227,7.2236,7.281,7.3462,7.426,7.4387,7.4432,7.4519,7.4606,7.4691,7.4854,7.4895,7.4895,7.4854,7.4854,7.4935,7.4939,7.5133,7.5741,7.6685,7.7092,7.8041,7.9427,7.9574,7.9995,8.065,8.0822,8.0888,8.0959,8.1061,8.1093,8.1093,8.0932,8.1262,8.192,8.2525,8.3188,8.3877,8.4635,8.4854,8.4854,8.4579,8.453,8.4481,8.4191,8.3838,8.3564,8.3281,8.3047,8.2964,8.2964,8.3061,8.318,8.2964,8.1599,8.0514,8.1087,7.9214,7.7313,7.7223,7.7223,7.7223,7.7223,7.7223,7.7223,7.7223,7.7133,7.7133,7.7133,7.7223,7.7223,7.7223,7.7223,7.7223,7.7223,7.7133,7.7133,7.7133,7.6918,7.6702,7.6702,7.6553,7.6495,7.6495,7.6495,7.6587,7.6702,7.6587,7.6587,7.6736,7.6553,7.6495,6.3747,6.4568,6.5212,6.5278,6.6037,6.6531,6.5586,6.5525,6.5474,6.4628,6.38,6.3945,6.6229,6.5975,6.6229,6.8621,6.9318,6.9529,6.95,7.0698,7.1664,7.1689,7.2652,7.3454,7.3944,7.3971,7.4066,7.4476,7.4469,7.4557,7.4691,7.4854,7.4854,7.4733,7.4733,7.4774,7.4819,7.5661,7.6236,7.6577,7.8137,7.905,7.9427,8.0078,8.0566,8.0855,8.0888,8.0959,8.1061,8.1093,8.1093,8.1093,8.1061,8.1751,8.2798,8.2913,8.3659,8.4711,8.4685,8.476,8.476,8.4713,8.4665,8.4627,8.4481,8.4087,8.373,8.3675,8.3433,8.3121,8.3121,8.318,8.318,8.318,8.2169,8.119,8.1364,7.9727,7.8031,7.7313,7.7223,7.7223,7.7223,7.7223,7.7223,7.7223,7.7009,7.6918,7.6918,7.7009,7.7223,7.7223,7.7223,7.7223,7.7223,7.7009,7.6918,7.6918,7.6645,7.6587,7.6587,7.6495,7.6495,7.6495,7.6495,7.6495,7.6587,7.6495,7.6495,7.6587,7.6309,7.6309,6.3673,6.4428,6.5049,6.5505,6.6097,6.6256,6.5223,6.5028,6.4715,6.3393,6.2838,6.32,6.5192,6.5229,6.5772,6.8162,6.879,6.9249,6.9903,7.0916,7.1704,7.2097,7.2758,7.3298,7.3553,7.3728,7.3875,7.4113,7.4289,7.4513,7.4691,7.4733,7.4771,7.4691,7.4563,7.4746,7.5205,7.5839,7.6688,7.7645,7.8826,7.9619,8.0148,8.0562,8.0822,8.0888,8.0959,8.1061,8.1093,8.1093,8.1093,8.1131,8.1458,8.2176,8.3027,8.3368,8.4111,8.4901,8.4808,8.4808,8.4808,8.4808,8.4713,8.4579,8.4579,8.4242,8.3784,8.3892,8.3546,8.318,8.318,8.318,8.318,8.318,8.2622,8.1672,8.0294,7.9494,7.8718,7.7456,7.7223,7.7223,7.7223,7.7099,7.7009,7.7009,7.6828,7.6645,7.6645,7.6771,7.6862,7.7009,7.7009,7.7009,7.7009,7.6736,7.6645,7.6645,7.6402,7.6309,7.6309,7.6216,7.6088,7.6088,7.6088,7.6182,7.6309,7.6182,7.6216,7.6309,7.6028,7.5994,6.3417,6.4354,6.5303,6.5863,6.625,6.6176,6.4947,6.4662,6.4091,6.2346,6.2005,6.2512,6.4106,6.4541,6.5374,6.7655,6.8264,6.8958,7.035,7.0967,7.1489,7.2365,7.2686,7.2871,7.3087,7.3438,7.3678,7.3728,7.4151,7.4469,7.4649,7.4691,7.4691,7.4606,7.4469,7.4794,7.5539,7.6047,7.7097,7.8742,7.9323,8.0037,8.0826,8.0893,8.0926,8.0959,8.1061,8.1093,8.1093,8.1093,8.1061,8.1106,8.1747,8.2375,8.3026,8.3662,8.4285,8.4901,8.4901,8.4901,8.4901,8.4901,8.476,8.4616,8.4713,8.4343,8.3945,8.3998,8.3657,8.3297,8.318,8.318,8.3121,8.3121,8.2941,8.2076,7.9536,7.9337,7.9134,7.7421,7.7099,7.7133,7.7043,7.6918,7.6793,7.6702,7.6553,7.6402,7.6402,7.6402,7.6495,7.6645,7.6736,7.6736,7.6736,7.6553,7.6402,7.6402,7.6122,7.6028,7.6028,7.5805,7.5709,7.5709,7.5709,7.5805,7.6028,7.5805,7.5805,7.6028,7.5805,7.5709,6.2855,6.4754,6.6351,6.5828,6.6631,6.7057,6.4977,6.477,6.4479,6.2398,6.2005,6.2512,6.4106,6.5011,6.6025,6.7728,6.8609,6.9405,7.0263,7.0444,7.0858,7.1769,7.1903,7.2084,7.248,7.2871,7.3283,7.3503,7.4066,7.4425,7.4519,7.4649,7.4606,7.4425,7.438,7.4711,7.5399,7.6429,7.7533,7.8742,7.9742,8.0465,8.0888,8.0888,8.0959,8.1093,8.1093,8.1093,8.1093,8.1093,8.0997,8.0903,8.1674,8.2302,8.2825,8.3621,8.4285,8.4901,8.4901,8.4901,8.4901,8.4901,8.4901,8.4854,8.4854,8.4637,8.4306,8.405,8.3822,8.3489,8.3239,8.3024,8.2904,8.2758,8.2819,8.2297,8.022,7.9691,7.9063,7.7209,7.6793,7.6828,7.6587,7.6736,7.6736,7.6587,7.6309,7.6122,7.6122,7.6122,7.6122,7.6122,7.6402,7.6495,7.6495,7.6309,7.6122,7.6122,7.5899,7.5709,7.5709,7.5709,7.5709,7.5709,7.5709,7.5709,7.5709,7.5709,7.5709,7.5709,7.5709,7.5709,6.3634,6.5095,6.6219,6.6577,6.6989,6.686,6.522,6.4964,6.4486,6.2434,6.2005,6.2223,6.2838,6.3237,6.3961,6.5555,6.6223,6.722,6.9394,6.9796,7.031,7.1646,7.1816,7.1903,7.2167,7.248,7.2926,7.3452,7.3789,7.4076,7.4335,7.4469,7.4469,7.438,7.4824,7.5371,7.6112,7.7174,7.8328,7.9546,8.0087,8.0576,8.0991,8.0991,8.1061,8.1093,8.1093,8.1093,8.1093,8.1154,8.1029,8.0907,8.2179,8.2684,8.2859,8.4057,8.4689,8.4901,8.4901,8.4901,8.4901,8.4901,8.4901,8.4901,8.4901,8.4541,8.4153,8.405,8.3822,8.3489,8.3143,8.2904,8.2758,8.2696,8.2696,8.2039,8.0146,7.9691,7.9019,7.7065,7.6736,7.6736,7.6495,7.6402,7.6368,7.6309,7.5994,7.5899,7.5899,7.5899,7.5899,7.5899,7.6122,7.6216,7.6216,7.5994,7.5899,7.5899,7.5805,7.5709,7.5709,7.5709,7.5709,7.5709,7.5709,7.5709,7.5709,7.5709,7.5709,7.5709,7.5709,7.5709,6.4106,6.5573,6.6566,6.7065,6.6919,6.6346,6.5127,6.4623,6.3889,6.204,6.1784,6.1968,6.2185,6.2438,6.3108,6.4541,6.5262,6.6402,6.8536,6.9156,6.9813,7.0894,7.1246,7.1453,7.1539,7.2138,7.2761,7.3401,7.3653,7.3886,7.4151,7.4243,7.4335,7.4335,7.5032,7.5774,7.66,7.7617,7.8731,7.9916,8.0121,8.043,8.0826,8.0926,8.0997,8.0959,8.1061,8.1093,8.1093,8.1093,8.108,8.1186,8.2454,8.2985,8.3112,8.4416,8.4901,8.4901,8.4901,8.4901,8.4901,8.4901,8.4901,8.4901,8.4901,8.4627,8.4242,8.3998,8.3657,8.326,8.2904,8.2758,8.2696,8.2633,8.2571,8.1945,8.0035,7.9536,7.8938,7.6793,7.6461,7.6553,7.6275,7.6216,7.6122,7.5994,7.5805,7.5709,7.5709,7.5709,7.5709,7.5709,7.5899,7.6028,7.6028,7.5805,7.5709,7.5709,7.5709,7.5709,7.5709,7.5709,7.5709,7.5709,7.5709,7.5709,7.5709,7.5709,7.5709,7.5709,7.5709,7.5709,6.3781,6.6085,6.7911,6.7152,6.6428,6.5613,6.4566,6.3509,6.2415,6.1102,6.135,6.1981,6.2587,6.3509,6.4477,6.5446,6.6931,6.7981,6.8017,6.8706,6.9213,6.9213,6.9901,7.0408,7.0408,7.1787,7.2908,7.3298,7.374,7.4009,7.4009,7.4151,7.4197,7.4197,7.4986,7.5774,7.66,7.7464,7.8483,7.9607,7.974,7.9912,8.0159,8.0578,8.0758,8.065,8.0959,8.1093,8.1093,8.0898,8.1147,8.1729,8.2447,8.3074,8.3688,8.4597,8.4901,8.4901,8.4901,8.4901,8.4901,8.4901,8.4901,8.4901,8.4901,8.4901,8.476,8.4035,8.326,8.2696,8.2696,8.2696,8.2633,8.2471,8.2571,8.2141,8.0035,7.9387,7.8588,7.6519,7.6122,7.6028,7.5805,7.5899,7.6028,7.5709,7.5709,7.5709,7.5709,7.5709,7.5709,7.5709,7.5709,7.5709,7.5709,7.5709,7.5709,7.5709,7.5709,7.5709,7.5709,7.5709,7.5709,7.5709,7.5709,7.5709,7.5709,7.5709,7.5709,7.5709,7.5709,7.5709,6.2219,6.3713,6.4828,6.4738,6.4496,6.4058,6.3032,6.2705,6.2258,6.0919,6.1234,6.1687,6.1283,6.2354,6.3747,6.4891,6.6127,6.7427,6.8669,6.9156,6.9433,6.9433,7.0116,7.075,7.1132,7.1598,7.2071,7.2537,7.2871,7.3283,7.3641,7.3923,7.4104,7.4197,7.5511,7.6338,7.66,7.8027,7.901,7.9607,7.9652,7.9827,8.0119,8.0277,8.0316,8.0277,8.0614,8.0685,8.0616,8.1368,8.1609,8.1609,8.3018,8.3574,8.3688,8.4597,8.4901,8.4901,8.4901,8.4901,8.4901,8.4901,8.4901,8.4901,8.4901,8.4722,8.4443,8.3945,8.3165,8.2534,8.2782,8.2471,8.215,8.2084,8.2018,8.1368,7.938,7.9099,7.8447,7.6207,7.5994,7.6028,7.5709,7.5805,7.5805,7.5709,7.5709,7.5709,7.5709,7.5709,7.5709,7.5709,7.5709,7.5709,7.5709,7.5709,7.5709,7.5709,7.5709,7.5709,7.5709,7.5709,7.5709,7.5709,7.5709,7.5709,7.5709,7.5709,7.5709,7.5709,7.5709,7.5709,6.1537,6.2736,6.3452,6.36,6.3078,6.2461,6.1849,6.1564,6.113,6.0148,6.0661,6.1236,6.1094,6.2185,6.3502,6.4822,6.654,6.7868,6.8264,6.9167,6.9721,6.9501,6.9961,7.0554,7.1395,7.162,7.1805,7.2108,7.2573,7.298,7.3401,7.3826,7.4056,7.4197,7.5774,7.66,7.6638,7.829,7.9177,7.9378,7.9425,7.9562,7.974,7.9912,7.9996,7.9996,8.0316,8.0621,0.0,8.1536,8.2034,8.2441,8.3426,8.3943,8.4143,8.4711,8.4901,8.4901,8.4901,8.4901,8.4901,8.4901,8.477,8.4675,8.4808,8.4492,8.4012,8.3784,8.3165,8.2597,8.2659,8.2407,8.2113,8.1952,8.1751,8.1089,7.9258,7.8857,7.8315,7.6114,7.5805,7.5899,7.5709,7.5709,7.5709,7.5709,7.5709,7.5709,7.5709,7.5709,7.5709,7.5709,7.5709,7.5709,7.5709,7.5709,7.5709,7.5709,7.5709,7.5709,7.5709,7.5709,7.5709,7.5709,7.5709,7.5709,7.5709,7.5709,7.5709,7.5709,7.5709,7.5709,0.0,6.2548,6.3255,6.3181,6.2041,6.083,6.083,6.0151,0.0,5.9081,5.9683,6.0656,6.1736,6.2581,6.3662,6.509,6.7826,6.9095,6.7231,6.8877,7.0086,6.9609,6.9603,7.0087,7.1359,7.1805,7.1988,7.1988,7.265,7.3141,7.3246,7.3691,7.4056,7.4197,7.5774,7.6638,7.6675,7.829,7.9116,7.9116,7.9214,7.9214,7.9116,7.9554,7.9778,7.9784,8.0119,8.0773,8.1652,8.1532,8.2441,8.3883,8.374,8.4181,8.4901,8.4901,8.4901,8.4901,8.4901,8.4901,8.4901,8.4901,8.4589,8.4306,8.4579,8.4102,8.3434,8.3564,8.3223,8.2721,8.2316,8.2343,8.2397,8.1952,8.1683,8.1126,7.938,7.8903,7.8196,7.6207,7.5771,7.5805,7.5709,7.5709,7.5709,7.5709,7.5709,7.5709,7.5709,7.5709,7.5709,7.5709,7.5709,7.5709,7.5709,7.5709,7.5709,7.5709,7.5709,7.5709,7.5709,7.5709,7.5709,7.5709,7.5709,7.5709,7.5709,7.5709,7.5709,7.5709,7.5709,7.5709,5.7742,0.0,5.9835,5.9481,5.9242,5.9145,0.0,5.9357,5.9217,5.8909,5.9617,6.0352,6.0393,6.1532,6.3044,6.4594,6.7191,6.8706,6.7914,6.8531,6.9349,7.0289,7.0427,7.0698,7.1431,7.1557,7.162,7.162,7.2343,7.2853,7.3017,7.3641,7.4056,7.4197,7.5774,7.66,7.6638,7.829,7.9116,7.9116,7.9165,7.9165,7.9116,7.9225,7.9321,7.9416,7.974,8.0363,8.1154,8.2015,8.2927,8.374,8.4332,8.4711,8.4901,8.4901,8.4901,8.4901,8.4901,8.4901,8.4901,8.4808,8.4675,8.4579,8.4431,8.3767,8.3106,8.3338,8.2769,8.2084,8.2018,8.1818,8.1683,8.1583,8.1375,8.0912,7.9798,7.953,7.8973,7.7085,7.6759,7.6576,7.5771,7.5709,7.5709,7.5709,7.5709,7.5709,7.5709,7.5709,7.5709,7.5709,7.5709,7.5709,7.5709,7.5709,7.5709,7.5709,7.5709,7.5709,7.5709,7.5709,7.5709,7.5709,7.5709,7.5709,7.5709,7.5709,7.5709,7.5709,7.5709,7.5709,5.6132,5.7181,5.8348,5.8065,5.8171,5.8419,5.849,5.8701,5.8736,5.8561,5.9012,5.9631,6.0069,6.1049,6.2335,6.3797,6.6318,6.8398,6.8965,6.8467,6.8609,7.0267,7.0475,7.0781,7.134,7.1431,7.1494,7.1656,7.2108,7.2516,7.2798,7.3387,7.3777,7.4009,7.5764,7.6638,7.6638,7.829,7.9116,7.9116,7.9116,7.9116,7.9116,7.9165,7.9263,7.9406,7.9645,8.0226,8.1021,8.1697,8.2608,8.365,8.4105,8.456,8.4901,8.4854,8.4808,8.4808,8.4808,8.4808,8.4808,8.4627,8.4481,8.4242,8.3998,8.3508,8.2987,8.3106,8.2769,8.227,8.1818,8.1683,8.1647,8.1445,8.1234,8.084,8.0028,7.9798,7.9249,7.744,7.7085,7.685,7.5865,7.5709,7.5709,7.5709,7.5709,7.5709,7.5709,7.5709,7.5709,7.5709,7.5709,7.5709,7.5709,7.5709,7.5709,7.5709,7.5709,7.5709,7.5709,7.5709,7.5709,7.5709,7.5709,7.5709,7.5709,7.5709,7.5709,7.5709,7.5709,7.5709,5.5491,5.6323,5.7431,5.7588,5.7881,5.8133,5.8269,5.8269,5.8375,5.8375,5.8518,5.8999,6.0177,6.0823,6.1697,6.3268,6.5965,6.8543,7.0418,6.9107,6.8523,7.0309,7.0514,7.0714,7.1211,7.1404,7.1531,7.1718,7.1866,7.2189,7.2686,7.3087,7.3527,7.4001,7.5743,7.6751,7.6863,7.8365,7.9116,7.9116,7.9116,7.9116,7.9165,7.9263,7.9406,7.9546,7.9638,8.0264,8.111,8.111,8.202,8.3422,8.3536,8.4067,8.4665,8.4685,8.4713,8.4665,8.4665,8.4665,8.4665,8.4481,8.4191,8.3838,8.3583,8.3358,8.3165,8.2806,8.283,8.2671,8.1751,8.1647,8.1812,8.1478,8.1234,8.0912,8.029,8.0063,7.9444,7.7667,7.7263,7.6996,7.5865,7.5709,7.5709,7.5709,7.5709,7.5709,7.5709,7.5709,7.5709,7.5709,7.5709,7.5709,7.5709,7.5709,7.5709,7.5709,7.5709,7.5709,7.5709,7.5709,7.5709,7.5709,7.5709,7.5709,7.5709,7.5709,7.5709,7.5709,7.5709,7.5709,5.5196,5.5069,5.5176,5.6277,5.7256,5.8051,5.8545,5.8937,5.9157,5.9157,5.9302,5.9648,6.0245,6.0489,6.1524,6.4633,6.7746,7.0453,7.2529,7.1582,7.1019,7.1821,7.1345,7.0979,7.1276,7.111,7.1175,7.1494,7.1769,7.2153,7.2686,7.3193,7.3939,7.4934,7.5956,7.6879,7.7689,7.8628,7.9116,7.9116,7.9116,7.9165,7.9263,7.9311,7.9453,7.9638,7.9683,8.0264,8.111,8.111,8.1679,8.2627,8.3309,8.3642,8.3692,8.4448,8.4665,8.453,8.453,8.453,8.4481,8.4331,8.428,8.4125,8.3508,8.362,8.3657,8.2334,8.2076,8.2141,8.1885,8.1547,8.1269,8.1547,8.1375,8.1021,8.0948,8.0948,8.0361,7.8565,7.8231,7.7633,7.596,7.5709,7.5709,7.5709,7.5709,7.5709,7.5709,7.5709,7.5709,7.5709,7.5709,7.5709,7.5709,7.5709,7.5709,7.5709,7.5709,7.5709,7.5709,7.5709,7.5709,7.5709,7.5709,7.5709,7.5709,7.5709,7.5709,7.5709,7.5709,7.5709,5.5031,5.5108,5.5397,5.6661,5.6431,5.5898,5.6552,5.7288,5.8019,5.854,5.9197,5.9977,6.0766,6.1554,6.308,6.6276,6.7706,6.9118,7.1201,7.0552,7.0268,7.1268,7.1179,7.1015,7.1051,7.1211,7.1304,7.1494,7.1583,7.1951,7.2553,7.2908,7.3432,7.4187,7.557,7.6493,7.7005,7.8329,7.9016,7.9116,7.9116,7.9165,7.9311,7.9359,7.95,7.9683,7.981,8.0043,8.0428,8.0428,8.0921,8.1717,8.2096,8.2733,8.3596,8.4325,8.4481,8.4381,8.428,8.4331,8.4331,8.4266,8.4215,8.402,8.3186,8.3452,8.3767,8.2233,8.2076,8.2242,8.1615,8.1305,8.1092,8.1305,8.1234,8.1128,8.1128,8.1128,8.0584,7.8729,7.8399,7.7805,7.602,7.5709,7.5709,7.5709,7.5709,7.5709,7.5709,7.5709,7.5709,7.5709,7.5709,7.5709,7.5709,7.5709,7.5709,7.5709,7.5709,7.5709,7.5709,7.5709,7.5709,7.5709,7.5709,7.5709,7.5709,7.5709,7.5709,7.5709,7.5709,7.5709,5.4948,5.5095,5.5429,5.6787,5.6119,5.534,5.6186,5.7144,5.8108,5.8864,5.9624,6.0357,6.1335,6.3057,6.5019,6.7371,6.793,6.8743,7.054,7.0184,7.0103,7.1084,7.1192,7.1129,7.0852,7.1211,7.1431,7.1494,7.1431,7.1682,7.238,7.2516,7.2927,7.3617,7.5254,7.6266,7.6504,7.8013,7.8915,7.9116,7.9116,7.9214,7.9359,7.9406,7.9546,7.9683,7.981,7.9898,7.9898,7.9898,8.0239,8.0763,8.0997,8.2134,8.3642,8.4228,8.4331,8.4229,8.4073,8.4073,8.4125,8.4073,8.402,8.3822,8.289,8.3223,8.3657,8.2169,8.2206,8.2397,8.1615,8.1234,8.1092,8.1163,8.1163,8.1128,8.1128,8.1128,8.062,7.9089,7.8565,7.7891,7.63,7.5865,7.5709,7.5709,7.5709,7.5709,7.5709,7.5709,7.5709,7.5709,7.5709,7.5709,7.5709,7.5709,7.5709,7.5709,7.5709,7.5709,7.5709,7.5709,7.5709,7.5709,7.5709,7.5709,7.5709,7.5709,7.5709,7.5709,7.5388,7.5484,5.4729,5.4047,5.3684,5.5504,5.7181,5.8873,6.0369,6.1,6.1488,6.1998,6.1402,6.1119,6.2177,6.4647,6.6727,6.7165,6.9867,7.2242,7.3171,7.2949,7.271,7.262,7.2152,7.1605,7.1051,7.0979,7.1175,7.1494,7.1175,7.1304,7.1988,7.2248,7.3018,7.4327,7.5447,7.6424,7.7401,7.8155,7.876,7.9116,7.9116,7.9263,7.95,7.9359,7.9453,7.9683,7.9683,7.981,7.9898,7.9898,7.9892,7.9917,8.0763,8.2044,8.3455,8.408,8.4229,8.3998,8.3838,8.3767,8.3657,8.3784,8.3784,8.3675,8.283,8.295,8.3127,8.2104,8.2206,8.2523,8.2343,8.1683,8.1163,8.1478,8.1375,8.1128,8.1128,8.1128,8.084,7.987,7.9009,7.8062,7.7175,7.6334,7.5709,7.5709,7.5709,7.5709,7.5709,7.5709,7.5709,7.5709,7.5709,7.5709,7.5709,7.5709,7.5709,7.5709,7.5709,7.5709,7.5709,7.5709,7.5709,7.5709,7.5709,7.5709,7.5709,7.5709,7.5709,7.5676,7.4671,7.4671,5.4327,5.3606,5.3404,5.6929,5.8046,5.8338,5.8591,5.9487,6.0392,6.1177,6.1827,6.2727,6.4233,6.5563,6.6987,6.8388,7.0413,7.2038,7.2552,7.2394,7.2154,7.1809,7.1658,7.1335,7.0924,7.1081,7.1211,7.134,7.1276,7.1368,7.1805,7.213,7.2569,7.3296,7.4974,7.6096,7.6536,7.7931,7.8812,7.9116,7.9016,7.9116,7.9359,7.9311,7.9406,7.9592,7.9592,7.9638,7.981,7.981,7.9766,7.9834,8.115,8.1963,8.2583,8.3841,8.4177,8.4073,8.402,8.3876,8.3767,8.3929,8.3876,8.3675,8.3069,8.3069,8.3127,8.237,8.2307,8.2434,8.2113,8.1782,8.151,8.1339,8.1163,8.1128,8.1128,8.1128,8.0876,7.9947,7.9089,7.8147,7.7263,7.63,7.5709,7.5709,7.5709,7.5709,7.5709,7.5709,7.5709,7.5709,7.5709,7.5709,7.5709,7.5709,7.5709,7.5709,7.5709,7.5709,7.5709,7.5709,7.5388,7.4671,7.5388,7.4966,7.3599,7.4966,7.5388,7.4671,7.4966,7.5291,5.3899,5.3427,5.3589,5.7275,5.8185,5.819,5.7978,5.9179,6.0671,6.1369,6.2392,6.3612,6.4786,6.5813,6.7124,6.8829,7.0565,7.1761,7.2157,7.2299,7.2126,7.1452,7.1657,7.1585,7.0924,7.1081,7.1276,7.1276,7.1211,7.1368,7.1646,7.1951,7.2307,7.2798,7.4826,7.5947,7.6051,7.7834,7.8812,7.9066,7.8966,7.9066,7.9311,7.9263,7.9311,7.9453,7.9453,7.95,7.9638,7.9638,7.9638,7.9827,8.1349,8.1894,8.2071,8.3678,8.4177,8.4073,8.402,8.3876,8.3712,8.3913,8.3822,8.3564,8.3165,8.3047,8.2927,8.2534,8.2343,8.2178,8.1879,8.1745,8.1647,8.1234,8.1128,8.1128,8.1128,8.1128,8.0948,8.0286,7.9522,7.8565,7.7667,7.6725,7.6054,7.5771,7.5709,7.5709,7.5709,7.5709,7.5709,7.5709,7.5709,7.5709,7.5709,7.5709,7.5709,7.5709,7.5709,7.5709,7.5709,7.5709,7.5161,7.4038,7.477,7.4439,7.2842,7.4005,7.4439,7.4038,7.4439,7.4638,5.3465,5.3699,5.4145,5.5988,5.7645,5.9055,5.9662,6.1387,6.2873,6.342,6.3497,6.3432,6.3523,6.5336,6.7167,6.8402,7.0311,7.185,7.2687,7.3291,7.314,7.1837,7.251,7.2538,7.1159,7.1211,7.1276,7.1276,7.111,7.124,7.1646,7.1794,7.227,7.3071,7.4986,7.6051,7.6205,7.7849,7.876,7.8915,7.8915,7.9066,7.9311,7.9165,7.9165,7.9311,7.9311,7.9359,7.95,7.95,7.95,7.9651,8.1204,8.1845,8.2168,8.3728,8.4177,8.3998,8.3838,8.3657,8.3413,8.3546,8.3489,8.3355,8.3024,8.2659,8.2407,8.2407,8.2113,8.1812,8.1812,8.1715,8.1547,8.1163,8.1128,8.1128,8.1128,8.1128,8.1128,8.1128,8.0361,7.9522,7.8565,7.7667,7.6759,7.5865,7.5709,7.5709,7.5709,7.5709,7.5709,7.5709,7.5709,7.5709,7.5709,7.5709,7.5709,7.5709,7.5709,7.5709,7.5709,7.5709,7.5161,7.4038,7.4038,7.4038,7.3904,7.2842,7.2842,7.3937,7.2842,7.2314,5.2637,5.2782,5.3347,5.6199,5.7771,5.9042,6.0661,6.1853,6.2678,6.3324,6.3068,6.3033,6.4068,6.5494,6.7016,6.8387,7.0311,7.1848,7.261,7.2666,7.2602,7.2484,7.2211,7.1977,7.1645,7.1303,7.1081,7.1081,7.1146,7.1211,7.124,7.1583,7.2011,7.2593,7.4626,7.5947,7.6394,7.7938,7.8812,7.9066,7.8966,7.9016,7.9165,7.9116,7.9116,7.9165,7.9165,7.9263,7.9359,7.9263,7.9214,7.9365,8.0802,8.1387,8.1664,8.3222,8.3767,8.3712,8.3657,8.3546,8.3413,8.3546,8.3489,8.3413,8.326,8.2843,8.2343,8.2242,8.1915,8.1579,8.1339,8.1478,8.1547,8.1163,8.1128,8.1128,8.1128,8.1128,8.1128,8.1128,8.0361,7.9522,7.8565,7.7667,7.6759,7.5865,7.5709,7.5709,7.5709,7.5709,7.5709,7.5709,7.5709,7.5709,7.5709,7.5709,7.5709,7.5709,7.5709,7.5709,7.5709,7.5709,7.5161,7.4038,7.4038,7.3187,7.1561,7.21,7.21,7.1669,7.21,7.2314,5.2231,5.2892,5.3802,5.6093,5.7565,5.9045,6.102,6.1916,6.2383,6.2971,6.2873,6.31,6.444,6.589,6.738,6.8608,7.0342,7.1761,7.2138,7.2513,7.2614,7.2009,7.203,7.1942,7.1605,7.1201,7.1045,7.111,7.1304,7.1431,7.1494,7.1891,7.2307,7.2871,7.4826,7.6036,7.6394,7.799,7.8864,7.8966,7.8915,7.8915,7.8966,7.9066,7.9066,7.9016,7.9016,7.9066,7.9165,7.9016,7.8966,7.9065,8.0592,8.1211,8.1398,8.3004,8.3602,8.3602,8.3602,8.3489,8.3413,8.3489,8.347,8.3297,8.3297,8.2843,8.2242,8.2242,8.1782,8.1339,8.1234,8.1305,8.1339,8.1163,8.1128,8.1128,8.1128,8.1128,8.1128,8.0948,8.0546,7.987,7.8846,7.8301,7.7528,7.6334,7.5899,7.5709,7.5709,7.5709,7.5709,7.5709,7.5709,7.5709,7.5709,7.5709,7.5709,7.5709,7.5709,7.5709,7.5709,7.5709,7.4966,7.3394,7.329,7.242,7.0599,7.0822,7.0822,7.0487,7.1233,7.1342,5.1929,5.3392,5.506,5.58,5.7362,5.9062,6.0743,6.1613,6.2116,6.2284,6.2776,6.3484,6.4491,6.6252,6.7854,6.8938,7.0507,7.1538,7.1419,7.2567,7.2783,7.0996,7.194,7.2333,7.1098,7.1087,7.1153,7.1276,7.1494,7.1769,7.2071,7.2459,7.2908,7.3476,7.532,7.6192,7.6205,7.7952,7.8812,7.8708,7.8812,7.8812,7.8708,7.8966,7.9016,7.8864,7.8864,7.8864,7.8864,7.876,7.8655,7.8842,8.0485,8.1119,8.1343,8.2949,8.3546,8.3546,8.3546,8.3489,8.3413,8.3413,8.3297,8.318,8.318,8.2721,8.2178,8.2343,8.1751,8.1163,8.1305,8.1234,8.1128,8.1128,8.1021,8.1021,8.1021,8.1021,8.1021,8.0876,8.0803,8.0472,7.9436,7.9276,7.867,7.7065,7.6148,7.5709,7.5709,7.5709,7.5709,7.5709,7.5709,7.5709,7.5709,7.5709,7.5709,7.5709,7.5709,7.5709,7.5709,7.5709,7.4736,7.2632,7.242,7.1778,7.0711,6.941,6.9178,6.989,7.0262,6.9724,5.1017,5.3087,5.54,5.5977,5.8038,6.0028,6.039,6.1277,6.2016,6.2116,6.2315,6.2967,6.4384,6.5736,6.7279,6.8769,7.0186,7.121,7.1538,7.2022,7.2054,7.1446,7.2197,7.2282,7.1126,7.1577,7.1699,7.1117,7.1368,7.1494,7.1531,7.1927,7.2401,7.2853,7.4772,7.5894,7.6205,7.7797,7.8655,7.8708,7.8602,7.8602,7.8549,7.8812,7.8864,7.876,7.876,7.876,7.8708,7.8602,7.8549,7.8698,8.0228,8.0805,8.1028,8.2665,8.3297,8.3297,8.3297,8.3239,8.3239,8.3239,8.3239,8.318,8.318,8.2941,8.2471,8.2242,8.1849,8.1408,8.1234,8.1092,8.1021,8.0876,8.0876,8.0876,8.0876,8.0876,8.0876,8.1021,8.1057,8.0694,7.9672,7.94,7.8835,7.7065,7.6148,7.5709,7.5709,7.5709,7.5709,7.5709,7.5709,7.5709,7.5709,7.5709,7.5709,7.5709,7.5709,7.5709,7.5709,7.5709,7.5388,7.4671,7.305,7.1993,7.1265,6.9379,6.8505,6.8505,6.8741,6.8623,5.127,5.3023,5.4955,5.6581,5.8637,6.0316,6.0106,6.1072,6.1916,6.1714,6.2216,6.3128,6.419,6.5546,6.6933,6.8446,6.9643,7.0515,7.0973,7.1435,7.1523,7.1063,7.156,7.165,7.0807,7.1223,7.1314,7.1015,7.1431,7.1682,7.1656,7.1988,7.2401,7.2798,7.4238,7.5325,7.5999,7.7266,7.8123,7.8495,7.8495,7.8495,7.8495,7.8655,7.8708,7.8708,7.8655,7.8602,7.8602,7.8441,7.8386,7.8535,8.0116,8.0691,8.0877,8.2586,8.318,8.318,8.318,8.318,8.318,8.318,8.318,8.318,8.318,8.3001,8.2721,8.2343,8.1982,8.1647,8.1305,8.1163,8.1021,8.0803,8.0803,8.073,8.0656,8.073,8.073,8.0656,8.073,8.0582,7.9864,7.9436,7.8753,7.7475,7.6668,7.6054,7.5805,7.5709,7.5709,7.5709,7.5709,7.5709,7.5709,7.5709,7.5709,7.5709,7.5709,7.5709,7.5709,7.5064,7.4306,7.3668,7.1961,7.0679,6.9839,6.8741,6.8059,6.7729,6.8059,6.8059,5.1341,5.2826,5.4601,5.693,5.8714,5.9895,5.9683,6.0732,6.1714,6.1206,6.2184,6.3323,6.4055,6.5319,6.6678,6.8041,6.9049,6.9827,7.033,7.1022,7.1125,7.0441,7.0902,7.1053,7.0378,7.0654,7.0857,7.0979,7.1494,7.1866,7.1988,7.2263,7.2516,7.2908,7.3831,7.4809,7.5787,7.675,7.7605,7.8276,7.8386,7.8495,7.8495,7.8495,7.8549,7.8602,7.8495,7.8495,7.8441,7.8332,7.8276,7.8462,8.0059,8.0691,8.0877,8.2586,8.318,8.318,8.318,8.318,8.3121,8.3121,8.3061,8.3061,8.3061,8.3024,8.2843,8.2471,8.2113,8.1849,8.1408,8.1234,8.1021,8.0803,8.0803,8.073,8.0508,8.0582,8.0582,8.0283,8.0358,8.0358,7.9977,7.9391,7.8622,7.7875,7.7209,7.6519,7.5771,7.5709,7.5709,7.5709,7.5709,7.5709,7.5709,7.5709,7.5709,7.5614,7.5614,7.5614,7.5614,7.4005,7.2704,7.1713,7.0343,6.9147,6.8179,6.797,6.7729,6.7487,6.7729,6.7729,4.9319,5.2421,5.5415,5.6049,5.7416,5.8525,5.8415,5.9713,6.0897,6.0897,6.1714,6.2825,6.3917,6.4811,6.6091,6.7945,6.8928,6.9574,7.0176,7.0906,7.092,6.9833,7.1053,7.1392,6.9882,7.0665,7.1192,7.1051,7.111,7.1368,7.1988,7.1866,7.213,7.2908,7.3572,7.4552,7.5787,7.6696,7.7551,7.8276,7.8332,7.8332,7.8332,7.8332,7.8332,7.8332,7.8332,7.8332,7.8332,7.8276,7.8276,7.8462,8.0059,8.0691,8.0877,8.2586,8.318,8.318,8.318,8.3001,8.2758,8.2758,8.2534,8.2307,8.2696,8.2782,8.2806,8.2307,8.2242,8.215,8.1375,8.1128,8.1021,8.0803,8.0803,8.073,8.0508,8.0358,8.0283,8.0433,8.0358,8.0207,8.013,7.9471,7.8622,7.7875,7.7209,7.6519,7.5771,7.5709,7.5709,7.5709,7.5709,7.5709,7.5709,7.5709,7.5614,7.5422,7.5325,7.5228,7.5067,7.2632,7.131,7.1091,7.0231,6.9348,6.8679,6.7909,6.7365,6.7121,6.7365,6.7365,4.8766,5.2157,5.506,5.5933,5.7078,5.7974,5.8003,5.9039,6.0106,6.0241,6.1278,6.2393,6.3327,6.4247,6.5326,6.6956,6.8042,6.8896,6.9478,7.018,7.0317,6.951,7.0222,7.0427,6.9372,7.006,7.0557,7.0547,7.0847,7.1175,7.1593,7.1494,7.1866,7.263,7.2847,7.3664,7.5118,7.5936,7.7013,7.8276,7.8276,7.8276,7.8276,7.8276,7.8276,7.8276,7.8276,7.8276,7.8276,7.8276,7.8276,7.8425,7.9576,8.0282,8.084,8.2066,8.269,8.2941,8.2941,8.2696,8.2343,8.2343,8.2242,8.2113,8.2343,8.2471,8.2534,8.1982,8.1849,8.1745,8.1234,8.1057,8.0948,8.0948,8.0876,8.0803,8.0656,8.0582,8.0582,8.0656,8.0508,8.0358,8.0358,8.0018,7.9356,7.8182,7.7702,7.7085,7.5865,7.5709,7.5709,7.5709,7.5709,7.5709,7.5709,7.5709,7.5258,7.4439,7.434,7.3904,7.305,7.1091,6.9973,6.9973,6.8766,6.7998,6.7759,6.7457,6.7121,6.6999,6.7121,6.7121,4.7354,5.0586,5.3413,5.419,5.551,5.6586,5.6392,5.7658,5.9009,5.9469,6.0532,6.1532,6.2424,6.3626,6.4792,6.5911,6.7028,6.7849,6.8372,6.911,6.9377,6.8999,6.9288,6.9385,6.9078,6.9628,7.0061,7.0132,7.0725,7.1129,7.1276,7.1211,7.1593,7.2553,7.2248,7.2941,7.4561,7.5493,7.6718,7.8276,7.8014,7.8014,7.8276,7.8014,7.8014,7.8276,7.8276,7.8221,7.8165,7.8276,7.8221,7.8239,7.9168,7.9985,8.0802,8.1599,8.2177,8.2696,8.2571,8.2279,8.1982,8.1982,8.1915,8.1782,8.1849,8.2047,8.2047,8.1647,8.1542,8.1542,8.1163,8.0948,8.0876,8.1021,8.0985,8.0803,8.073,8.073,8.073,8.073,8.0582,8.0508,8.0508,8.0508,7.9982,7.8682,7.8266,7.758,7.6207,7.5865,7.5709,7.5709,7.5709,7.5709,7.5709,7.5614,7.4966,7.3566,7.3464,7.2737,7.131,6.9859,6.9085,6.9085,6.7759,6.6999,6.6999,6.6999,6.6999,6.6999,6.6999,6.6999,4.3887,4.6913,4.9683,4.9114,5.1455,5.3724,5.2661,5.5021,5.764,5.8525,5.9392,6.0272,6.1165,6.2871,6.4398,6.524,6.59,6.642,6.69,6.7678,6.816,6.8099,6.8617,6.8991,6.9002,6.9898,7.0261,6.9955,7.0807,7.1297,7.1175,7.0949,7.1404,7.263,7.2153,7.2789,7.4561,7.5715,7.6934,7.8276,7.7231,7.7292,7.8276,7.7231,7.7353,7.8276,7.8276,7.8108,7.7879,7.8165,7.8108,7.7953,7.9055,7.9985,8.0745,8.1229,8.1957,8.2633,8.2242,8.1915,8.1647,8.1647,8.1269,8.0948,8.1232,8.1474,8.1506,8.1336,8.1542,8.1678,8.1234,8.1092,8.1128,8.1128,8.1092,8.0948,8.0582,8.0508,8.0508,8.0508,8.0508,8.0508,8.0508,8.0508,8.0247,7.9558,7.8682,7.784,7.7085,7.6207,7.5709,7.5709,7.5709,7.5709,7.5709,7.5518,7.4671,7.329,7.2979,7.2133,7.0711,6.9463,6.8766,6.8766,6.7668,6.6999,6.6999,6.6999,6.6999,6.6999,6.6999,6.6999,4.1779,4.4393,4.6773,4.7308,4.8839,5.0505,5.1972,5.3248,5.4734,5.7299,5.8851,5.9874,6.0302,6.2053,6.3563,6.3868,6.4821,6.5705,6.5901,6.6831,6.7372,6.7146,6.7861,6.8426,6.8388,6.8948,6.9472,6.9705,7.0168,7.0486,7.075,7.065,7.1015,7.1927,7.1707,7.2788,7.5107,7.5206,7.6184,7.8071,7.7169,7.7169,7.8071,7.7107,7.7107,7.7747,7.7413,7.7389,7.757,7.7389,7.7169,7.7144,7.7561,7.8247,7.9055,7.9673,8.0283,8.0849,8.1223,8.1162,8.0912,8.0912,8.0876,8.0803,8.0912,8.1127,8.1269,8.1234,8.1127,8.1127,8.1092,8.1021,8.0948,8.1021,8.1128,8.1021,8.0876,8.0803,8.0656,8.0656,8.0656,8.0656,8.0656,8.0803,8.0361,7.9009,7.8482,7.7805,7.6392,7.5865,7.5709,7.5709,7.5709,7.5709,7.5709,7.5422,7.434,7.2175,7.1745,7.0679,6.8325,6.7879,6.7668,6.7668,6.7213,6.6999,6.6999,6.6999,6.6999,6.6999,6.6999,6.6999,3.9241,4.1322,4.3265,4.389,4.5529,4.7519,4.9784,5.1213,5.2806,5.6166,5.7736,5.8667,5.9099,6.0683,6.2197,6.2637,6.3689,6.4473,6.4572,6.5638,6.6384,6.6428,6.7342,6.808,6.8338,6.8907,6.938,6.9522,6.9952,7.0203,7.0202,7.0341,7.075,7.1368,7.162,7.2814,7.5022,7.4604,7.5409,7.7533,7.6664,7.6664,7.7533,7.6599,7.6599,7.7169,7.6469,7.6534,7.7045,7.6793,7.6664,7.6534,7.6664,7.7239,7.8041,7.842,7.9053,7.9861,8.0333,8.0551,8.0508,8.0656,8.073,8.073,8.0803,8.0876,8.1021,8.1021,8.0948,8.0948,8.1057,8.1021,8.0948,8.1021,8.1128,8.1092,8.1021,8.0876,8.0803,8.0803,8.073,8.073,8.073,8.0803,8.0472,7.9285,7.8647,7.7891,7.6634,7.602,7.5709,7.5709,7.5709,7.5709,7.5709,7.5422,7.4139,7.1497,7.1091,6.9662,6.7091,6.6999,6.6999,6.6999,6.6999,6.6999,6.6999,6.6999,6.6999,6.6999,6.6999,6.6999,0.0,0.0,0.0,3.8631,4.1448,4.4703,4.5845,4.8765,5.2162,5.5102,5.6136,5.6594,5.747,5.8901,6.0316,6.1683,6.2414,6.2905,6.3164,6.402,6.5056,6.593,6.6901,6.7775,6.87,6.9842,7.0228,6.9407,7.0191,7.0444,6.9633,6.9991,7.0511,7.1139,7.183,7.2838,7.4285,7.3942,7.474,7.6664,7.5726,7.569,7.6664,7.5655,7.569,7.6599,7.5655,7.5585,7.6203,7.6534,7.6469,7.6203,7.6534,7.7174,7.7866,7.7534,7.8376,7.9645,7.9612,7.9972,8.0546,8.0948,8.0803,8.0508,8.073,8.0803,8.0803,8.0803,8.0948,8.1128,8.1092,8.1128,8.1128,8.1092,8.1092,8.1057,8.0803,8.0803,8.0803,8.0803,8.0656,8.0508,8.0508,8.0508,8.0508,8.0433,7.9125,7.8097,7.8097,7.6725,7.5709,7.5709,7.5709,7.5709,7.5709,7.5228,7.397,7.1529,7.0902,6.9463,6.7091,6.6999,6.6999,6.6999,6.6999,6.6999,6.6999,6.6999,6.6999,6.6999,6.6999,6.6999,3.2922,0.0,0.0,0.0,0.0,0.0,4.411,4.6234,4.8608,5.2469,5.4138,5.5267,5.6594,5.8136,5.9546,6.0316,6.1481,6.2315,6.2612,6.3002,6.3901,6.5372,6.5995,6.6689,6.8031,6.8905,6.9118,6.8698,6.9402,6.9734,6.9633,6.9991,7.041,7.0919,7.1081,7.2098,7.3978,7.3519,7.4379,7.6534,7.5655,7.5655,7.6534,7.5585,7.5514,7.6172,7.5478,7.5334,7.5442,7.5585,7.5585,7.5442,7.5585,7.5799,7.6051,7.6661,7.7056,7.7522,7.889,7.9356,7.9569,8.0402,8.0656,8.073,8.0803,8.0876,8.1021,8.1021,8.1057,8.1057,8.0876,8.0948,8.1021,8.0876,8.0876,8.0876,8.0803,8.0582,8.0358,8.0358,8.0433,8.0433,8.0283,8.0508,8.0472,7.9672,7.8718,7.784,7.7209,7.6334,7.5709,7.5709,7.5709,7.5709,7.5709,7.5228,7.397,7.1529,7.0902,6.9463,6.7091,6.6999,6.6999,6.6999,6.6999,6.6999,6.6999,6.6999,6.6999,6.6999,6.6999,6.6999,2.9924,3.1888,3.3948,3.4592,0.0,0.0,4.1883,4.4425,4.7132,5.0664,5.2232,5.3397,5.5178,5.6051,5.7114,5.8811,6.0285,6.1379,6.2016,6.2414,6.3353,6.5287,6.5861,6.6832,6.8513,6.9322,6.9542,6.8873,6.9456,6.9839,6.9705,6.9991,7.0272,7.065,7.0754,7.1673,7.3452,7.3216,7.4075,7.5967,7.5478,7.5478,7.5898,7.5478,7.5334,7.5691,7.5334,7.5225,7.5225,7.5225,7.5225,7.5225,7.5225,7.5225,7.526,7.5871,7.619,7.6583,7.7809,7.8311,7.8556,7.9717,8.0152,8.0297,8.0768,8.1057,8.1128,8.1128,8.1021,8.0948,8.073,8.073,8.0803,8.073,8.0656,8.0656,8.0582,8.0358,8.0207,8.0207,8.0207,8.0207,8.013,8.0283,8.0207,7.9629,7.8917,7.8217,7.7737,7.703,7.6485,7.6148,7.6054,7.5642,7.4835,7.4373,7.3083,7.0616,7.0118,6.9,6.7091,6.6999,6.6999,6.6999,6.6999,6.6999,6.6999,6.6999,6.6999,6.6999,6.6999,6.6999,2.6628,2.841,3.0307,3.1451,3.3289,0.0,3.9286,4.2747,4.6068,4.8756,4.9657,5.0532,5.285,5.2788,5.3486,5.6694,5.8465,5.9923,6.1348,6.1985,6.3087,6.525,6.6193,6.7311,6.9209,7.0221,7.0374,6.9381,6.9903,7.0152,6.9849,6.9813,6.9991,7.0445,7.065,7.1333,7.2727,7.2904,7.369,7.5116,7.5116,7.5151,7.5151,7.5151,7.5151,7.5151,7.5151,7.5151,7.5151,7.5151,7.5189,7.5225,7.5225,7.5225,7.5189,7.5225,7.5653,7.6259,7.666,7.7017,7.7658,7.8963,7.936,7.9503,8.0587,8.0948,8.1021,8.1021,8.0876,8.073,8.0508,8.0508,8.0508,8.0433,8.0433,8.0433,8.0207,8.0207,8.013,8.013,8.0054,7.9899,7.9899,7.9899,7.9899,7.9899,7.9311,7.887,7.887,7.8252,7.7528,7.6884,7.6576,7.5669,7.377,7.3083,7.1778,6.9317,6.9,6.8206,6.7121,6.6999,6.6999,6.6999,6.6999,6.6999,6.6999,6.6999,6.6999,6.6999,6.6999,6.6999,2.1949,2.5455,2.8061,2.8577,3.1139,0.0,3.5738,3.8188,4.0581,4.2962,4.4196,4.5453,4.7833,4.841,4.9193,5.1183,5.4223,5.7497,6.1091,6.1512,6.2214,6.4482,6.5244,6.5966,6.6995,6.8293,6.8744,6.7912,6.8448,6.9107,6.9598,6.9231,6.9379,7.0202,7.0132,7.0807,7.2403,7.2438,7.3219,7.4669,7.4669,7.4819,7.4968,7.4968,7.4968,7.4968,7.4968,7.4968,7.4968,7.4968,7.5042,7.5225,7.5225,7.5225,7.5189,7.5334,7.5442,7.5583,7.6554,7.6877,7.7019,7.8063,7.8819,7.9321,7.9539,8.0116,8.0582,8.0582,8.0582,8.0508,8.0283,8.0358,8.0433,8.0283,8.0283,8.0207,8.0207,8.0054,7.9977,7.9977,8.0054,8.0054,7.9899,8.0054,8.0054,7.9899,7.9311,7.887,7.887,7.8252,7.7528,7.6884,7.6576,7.5669,7.377,7.3083,7.1778,6.9317,6.9,6.8206,6.7121,6.6999,6.6999,6.6999,6.6999,6.6999,6.6999,6.6999,6.6999,6.6999,6.6999,6.6999,1.6253,2.0201,2.3133,2.4229,2.6753,0.0,0.0,3.466,3.7136,3.9408,4.0214,4.1286,4.3927,4.3789,4.4426,4.8231,5.1326,5.4423,5.739,5.9591,6.1681,6.3633,6.4402,6.5222,6.6289,6.782,6.8504,6.8302,6.8051,6.8284,6.9231,6.8932,6.9083,6.992,6.9885,7.0664,7.2257,7.2292,7.3145,7.4744,7.4405,7.4329,7.4558,7.4482,7.437,7.437,7.4669,7.4744,7.4744,7.4744,7.4894,7.5042,7.5116,7.5225,7.5189,7.5262,7.5297,7.526,7.5836,7.5979,7.6158,7.7056,7.7918,7.86,7.9142,7.9861,8.0508,8.0358,8.0358,8.0283,8.013,8.013,8.0207,8.0054,8.0054,8.0054,8.0054,8.0054,7.9977,7.9899,8.0054,8.013,7.9899,8.0054,8.013,7.9899,7.9708,7.9471,7.9391,7.9115,7.842,7.7386,7.6565,7.5056,7.2672,7.1561,7.0262,6.8206,6.7998,6.7668,6.6999,6.6999,6.6999,6.6999,6.6999,6.6999,6.6999,6.6999,6.6999,6.6999,6.6999,6.6999,1.0275,1.4156,1.7198,1.8899,2.1298,2.4162,0.0,0.0,0.0,3.5141,3.5588,3.6569,3.9368,3.8523,3.9169,4.417,4.7376,4.9674,5.1258,5.5684,5.9561,6.1742,6.3098,6.4348,6.5318,6.6872,6.7974,6.8528,6.755,6.7373,6.8482,6.825,6.8517,6.9344,6.9417,7.0265,7.2144,7.1995,7.2811,7.4482,7.3905,7.3712,7.3869,7.3712,7.3632,7.3632,7.4096,7.4174,7.4174,7.4174,7.4329,7.4633,7.4968,7.5151,7.5225,7.5225,7.5225,7.5225,7.5225,7.5225,7.5296,7.6158,7.68,7.7512,7.8695,7.9374,7.9804,7.9905,7.9864,7.9786,7.9899,7.9822,7.9743,7.9899,7.9899,7.9899,7.9899,8.0054,8.0054,7.9899,8.0054,8.0054,7.9899,8.0054,8.0054,7.9899,8.0054,8.0054,7.9899,7.9899,7.9391,7.8047,7.6519,7.45,7.1789,7.0118,6.8592,6.7121,6.6999,6.6999,6.6999,6.6999,6.6999,6.6999,6.6999,6.6999,6.6999,6.6999,6.6999,6.6999,6.6999,6.6999,0.388,0.8681,1.1735,1.2189,1.5457,1.8959,2.041,0.0,2.4802,2.611,0.0,2.9753,3.2071,0.0,0.0,3.5411,3.9073,4.1708,4.2495,4.7456,5.2712,5.7368,6.1065,6.2888,6.1896,6.3516,6.4976,6.5988,6.5504,6.5667,6.6777,6.6339,6.6761,6.837,6.7901,6.9011,7.1769,7.1037,7.1446,7.3101,7.2686,7.2602,7.2769,7.2769,7.2769,7.2769,7.2769,7.2853,7.2853,7.2853,7.3066,7.3552,7.4558,7.5042,7.5225,7.5225,7.5225,7.5225,7.5225,7.5225,7.5225,7.5296,7.5534,7.5987,7.753,7.7572,7.7377,7.8694,7.8587,7.8385,7.955,7.9471,7.915,7.9743,7.9899,7.9899,7.9899,7.9899,7.9899,7.9899,7.9899,7.9899,7.9899,7.9899,7.9899,7.9899,7.9899,7.9899,7.9899,7.9899,7.955,7.8504,7.654,7.4335,7.2193,7.0023,6.8325,6.7091,6.6999,6.6999,6.6999,6.6999,6.6999,6.6999,6.6999,6.6999,6.6999,6.6999,6.6999,6.6999,6.6999,6.6999,-0.1041,0.1187,0.2679,0.5899,0.7514,0.9387,1.3979,1.6462,1.8306,1.9948,0.0,0.0,0.0,0.0,0.0,0.0,3.425,3.6875,3.774,4.3096,4.8367,5.2674,5.6187,5.852,5.9199,6.1076,6.262,6.3664,6.4105,6.4934,6.6287,6.5975,6.6115,6.7175,6.7175,6.8173,7.0325,7.0079,7.0835,7.2483,7.1883,7.183,7.1969,7.1796,7.1917,7.2004,7.2262,7.2517,7.2602,7.2602,7.2769,7.3066,7.3552,7.4139,7.4633,7.4633,7.4858,7.5116,7.4784,7.4858,7.5258,7.5773,7.5689,7.572,7.7318,7.758,7.7457,7.8062,7.8167,7.8167,7.8788,7.8952,7.9115,7.9471,7.9708,7.9899,7.9899,7.9977,8.0054,7.9899,7.9977,8.0054,7.9899,7.9977,8.0054,7.9899,7.9977,8.0054,7.9899,7.9899,7.955,7.8587,7.6878,7.4757,7.2299,7.0361,6.8679,6.7091,6.6999,6.6999,6.6999,6.6999,6.6999,6.6999,6.6999,6.6999,6.6999,6.6999,6.6999,6.6999,6.6999,6.6999,-0.8359,-0.715,-0.5982,-0.1367,-0.03,0.1038,0.6815,0.9366,1.1126,1.3334,1.5397,0.0,0.0,0.0,2.1857,2.51,0.0,3.1052,3.2071,3.7171,4.2685,4.7519,5.1336,5.461,5.6835,5.8741,6.0369,6.1558,6.2588,6.3887,6.527,6.5303,6.5537,6.6235,6.6287,6.7336,6.9288,6.9203,7.0036,7.1761,7.1176,7.103,7.112,7.103,7.103,7.1244,7.16,7.183,7.1917,7.2004,7.2056,7.2228,7.2313,7.2818,7.3517,7.3791,7.4216,7.4598,7.4104,7.4216,7.4806,7.5695,7.5471,7.5188,7.6779,7.7036,7.7021,7.7405,7.7562,7.7562,7.8031,7.8371,7.8587,7.8753,7.9115,7.9276,7.9276,7.9629,7.9786,7.9629,7.9899,8.0054,7.9899,7.9977,8.0054,7.9899,7.9899,7.9786,7.9629,7.9471,7.9034,7.8336,7.6734,7.4728,7.2299,7.0584,6.8797,6.7091,6.6999,6.6999,6.6999,6.6999,6.6999,6.6999,6.6999,6.6999,6.6999,6.6999,6.6999,6.6999,6.6999,6.6999,-1.993,-1.5902,-1.2525,-1.0173,-0.7325,-0.4228,-0.165,0.0597,0.2679,0.4937,0.7472,0.9689,1.1142,1.3084,1.4871,1.6567,2.0039,0.0,0.0,2.7998,3.4076,4.1511,4.7374,5.1971,5.4981,5.6496,5.8031,6.0035,6.0984,6.1979,6.3228,6.3802,6.461,6.5713,6.5123,6.6234,6.9288,6.8484,6.886,7.0574,7.0363,7.027,7.027,7.027,7.027,7.027,7.027,7.027,7.027,7.0515,7.0608,7.0608,7.0916,7.121,7.1674,7.2866,7.3276,7.3276,7.3195,7.3276,7.3391,7.4274,7.4047,7.3788,7.5315,7.5296,7.4984,7.6405,7.6334,7.6054,7.7475,7.7298,7.7065,7.7702,7.7875,7.7875,7.7875,7.842,7.8987,7.8952,7.9471,7.9899,7.9899,7.9899,7.9899,7.9899,7.9311,7.8987,7.8952,7.8336,7.7789,7.7562,7.5816,7.3974,7.2299,7.0329,6.8531,6.7091,6.6999,6.6999,6.6999,6.6999,6.6999,6.6999,6.6999,6.6999,6.6999,6.6999,6.6999,6.6999,6.6999,6.6999,-2.6359,-2.6272,-2.587,-2.0036,-1.8414,-1.6971,-1.1199,-0.8164,-0.6212,-0.5422,-0.2828,-0.0148,0.195,0.4601,0.7173,0.9879,1.3721,1.6656,0.0,2.2669,2.8557,3.458,4.0822,4.5969,4.9376,5.2075,5.4148,5.5887,5.7527,5.9199,6.0753,6.1091,6.1728,6.2843,6.3578,6.4825,6.6889,6.7486,6.8526,7.0049,6.9988,6.9893,6.9893,6.9893,6.9988,7.0176,7.0176,7.027,7.0423,7.0423,7.0515,7.0515,7.0608,7.0791,7.121,7.2056,7.2651,7.3031,7.3113,7.2651,7.219,7.3959,7.4001,7.3776,7.5263,7.5635,7.5688,7.6207,7.6368,7.6519,7.6828,7.7065,7.7244,7.7298,7.7615,7.7789,7.7789,7.7961,7.8336,7.8788,7.8788,7.8952,7.9743,7.9311,7.8952,7.9356,7.887,7.8455,7.8455,7.8202,7.791,7.7562,7.6508,7.4765,7.2299,6.9454,6.7548,6.6999,6.6999,6.6999,6.6999,6.6999,6.6999,6.6999,6.6999,6.6999,6.6999,6.6999,6.6999,6.6999,6.6999,6.6999,-3.4316,-3.5249,-3.547,-2.9639,-2.8782,-2.7661,-2.1412,-1.8524,-1.6884,-1.5994,-1.3122,-1.048,-0.9389,-0.5673,-0.2016,0.0142,0.4858,0.9604,0.0,1.7446,2.2375,2.8186,3.5048,4.1039,4.5378,4.8593,5.1377,5.3837,5.5559,5.7231,5.9002,5.9455,6.0132,6.0887,6.2157,6.3449,6.4729,6.5902,6.71,6.8275,6.8732,6.8961,6.8961,6.8961,6.9058,6.9156,6.9156,6.9445,6.986,6.9921,7.0016,7.0236,7.0143,7.0236,7.0549,7.112,7.1742,7.2228,7.2398,7.2038,7.1638,7.3514,7.3844,7.3747,7.5236,7.5805,7.5798,7.5289,7.5773,7.6232,7.5628,7.6143,7.6793,7.6668,7.6815,7.7085,7.7085,7.7263,7.7562,7.8116,7.8082,7.8252,7.9034,7.8371,7.8031,7.8952,7.8287,7.7685,7.7685,7.7386,7.712,7.685,7.6392,7.4832,7.2046,6.8821,6.6999,6.6999,6.6999,6.6999,6.6999,6.6999,6.6999,6.6999,6.6999,6.6999,6.6999,6.6999,6.6999,6.6999,6.6999,6.6999]}]]